<?xml version='1.0' encoding='UTF-8'?><gpx version="1.1" creator="JPX - https://github.com/jenetics/jpx" xmlns="http://www.topografix.com/GPX/1/1"><trk><trkseg><trkpt lat="45.7877848" lon="9.979815"><ele>336.0</ele><time>2026-04-24T16:12:52.334Z</time></trkpt><trkpt lat="45.7877203" lon="9.9798334"><ele>336.0</ele><time>2026-04-24T16:13:41.334Z</time></trkpt><trkpt lat="45.7876585" lon="9.9798636"><ele>336.0</ele><time>2026-04-24T16:13:48.335Z</time></trkpt><trkpt lat="45.7876014" lon="9.9799133"><ele>336.0</ele><time>2026-04-24T16:14:00.335Z</time></trkpt><trkpt lat="45.7875399" lon="9.9798404"><ele>336.0</ele><time>2026-04-24T16:14:02.335Z</time></trkpt><trkpt lat="45.7875403" lon="9.9797433"><ele>336.0</ele><time>2026-04-24T16:14:05.334Z</time></trkpt><trkpt lat="45.7875266" lon="9.9798932"><ele>336.3333333333333</ele><time>2026-04-24T16:14:13.333Z</time></trkpt><trkpt lat="45.787557" lon="9.9800505"><ele>336.6666666666667</ele><time>2026-04-24T16:14:15.334Z</time></trkpt><trkpt lat="45.7875933" lon="9.9801393"><ele>337.0</ele><time>2026-04-24T16:14:16.334Z</time></trkpt><trkpt lat="45.7876081" lon="9.980228"><ele>337.33333333333337</ele><time>2026-04-24T16:14:17.334Z</time></trkpt><trkpt lat="45.7876252" lon="9.9803305"><ele>337.6666666666667</ele><time>2026-04-24T16:14:18.334Z</time></trkpt><trkpt lat="45.7876474" lon="9.9804463"><ele>338.0</ele><time>2026-04-24T16:14:19.333Z</time></trkpt><trkpt lat="45.7876774" lon="9.9805719"><ele>338.0</ele><time>2026-04-24T16:14:20.335Z</time></trkpt><trkpt lat="45.787708" lon="9.9806992"><ele>338.0</ele><time>2026-04-24T16:14:21.334Z</time></trkpt><trkpt lat="45.7877477" lon="9.9808284"><ele>338.0</ele><time>2026-04-24T16:14:22.333Z</time></trkpt><trkpt lat="45.7877928" lon="9.9809414"><ele>338.0</ele><time>2026-04-24T16:14:23.334Z</time></trkpt><trkpt lat="45.7878425" lon="9.9810398"><ele>338.0</ele><time>2026-04-24T16:14:24.334Z</time></trkpt><trkpt lat="45.7878958" lon="9.9811357"><ele>338.33333333333337</ele><time>2026-04-24T16:14:25.334Z</time></trkpt><trkpt lat="45.7879589" lon="9.9812199"><ele>338.6666666666667</ele><time>2026-04-24T16:14:26.334Z</time></trkpt><trkpt lat="45.7880146" lon="9.98129"><ele>339.0</ele><time>2026-04-24T16:14:27.335Z</time></trkpt><trkpt lat="45.7880487" lon="9.9813662"><ele>339.3333333333333</ele><time>2026-04-24T16:14:28.333Z</time></trkpt><trkpt lat="45.788013" lon="9.98154"><ele>339.66666666666663</ele><time>2026-04-24T16:14:30.334Z</time></trkpt><trkpt lat="45.7879588" lon="9.9816104"><ele>340.0</ele><time>2026-04-24T16:14:31.334Z</time></trkpt><trkpt lat="45.7878869" lon="9.981658"><ele>339.8333333333333</ele><time>2026-04-24T16:14:32.334Z</time></trkpt><trkpt lat="45.787807" lon="9.9817002"><ele>339.66666666666663</ele><time>2026-04-24T16:14:33.334Z</time></trkpt><trkpt lat="45.787725" lon="9.9817428"><ele>339.5</ele><time>2026-04-24T16:14:34.334Z</time></trkpt><trkpt lat="45.7876421" lon="9.9817837"><ele>339.3333333333333</ele><time>2026-04-24T16:14:35.334Z</time></trkpt><trkpt lat="45.7875577" lon="9.9818289"><ele>339.1666666666667</ele><time>2026-04-24T16:14:36.334Z</time></trkpt><trkpt lat="45.7874705" lon="9.9818701"><ele>339.0</ele><time>2026-04-24T16:14:37.334Z</time></trkpt><trkpt lat="45.7873842" lon="9.9819192"><ele>339.0</ele><time>2026-04-24T16:14:38.335Z</time></trkpt><trkpt lat="45.7872975" lon="9.98197"><ele>339.0</ele><time>2026-04-24T16:14:39.333Z</time></trkpt><trkpt lat="45.7872091" lon="9.9820194"><ele>339.0</ele><time>2026-04-24T16:14:40.334Z</time></trkpt><trkpt lat="45.7871174" lon="9.9820611"><ele>339.0</ele><time>2026-04-24T16:14:41.334Z</time></trkpt><trkpt lat="45.7870268" lon="9.9821037"><ele>339.0</ele><time>2026-04-24T16:14:42.334Z</time></trkpt><trkpt lat="45.7869358" lon="9.9821471"><ele>339.0</ele><time>2026-04-24T16:14:43.334Z</time></trkpt><trkpt lat="45.786846" lon="9.9821917"><ele>339.0</ele><time>2026-04-24T16:14:44.333Z</time></trkpt><trkpt lat="45.7867563" lon="9.9822357"><ele>339.0</ele><time>2026-04-24T16:14:45.333Z</time></trkpt><trkpt lat="45.7866679" lon="9.9822839"><ele>339.0</ele><time>2026-04-24T16:14:46.334Z</time></trkpt><trkpt lat="45.7865792" lon="9.9823356"><ele>339.0</ele><time>2026-04-24T16:14:47.334Z</time></trkpt><trkpt lat="45.7864881" lon="9.9823836"><ele>339.0</ele><time>2026-04-24T16:14:48.334Z</time></trkpt><trkpt lat="45.7863968" lon="9.9824345"><ele>339.0</ele><time>2026-04-24T16:14:49.334Z</time></trkpt><trkpt lat="45.7863059" lon="9.9824892"><ele>339.0</ele><time>2026-04-24T16:14:50.334Z</time></trkpt><trkpt lat="45.7862163" lon="9.9825519"><ele>339.0</ele><time>2026-04-24T16:14:51.334Z</time></trkpt><trkpt lat="45.7861254" lon="9.9826126"><ele>339.0</ele><time>2026-04-24T16:14:52.334Z</time></trkpt><trkpt lat="45.7860355" lon="9.982679"><ele>339.79999999999995</ele><time>2026-04-24T16:14:53.333Z</time></trkpt><trkpt lat="45.7859445" lon="9.9827403"><ele>340.59999999999997</ele><time>2026-04-24T16:14:54.334Z</time></trkpt><trkpt lat="45.7858542" lon="9.9828035"><ele>341.4</ele><time>2026-04-24T16:14:55.333Z</time></trkpt><trkpt lat="45.7857579" lon="9.9828598"><ele>342.2</ele><time>2026-04-24T16:14:56.334Z</time></trkpt><trkpt lat="45.7856588" lon="9.9828926"><ele>343.0</ele><time>2026-04-24T16:14:57.335Z</time></trkpt><trkpt lat="45.785558" lon="9.9829137"><ele>343.0</ele><time>2026-04-24T16:14:58.333Z</time></trkpt><trkpt lat="45.7854584" lon="9.982931"><ele>343.0</ele><time>2026-04-24T16:14:59.334Z</time></trkpt><trkpt lat="45.7853577" lon="9.9829465"><ele>343.0</ele><time>2026-04-24T16:15:00.334Z</time></trkpt><trkpt lat="45.785256" lon="9.9829371"><ele>343.0</ele><time>2026-04-24T16:15:01.333Z</time></trkpt><trkpt lat="45.7851569" lon="9.982907"><ele>343.0</ele><time>2026-04-24T16:15:02.334Z</time></trkpt><trkpt lat="45.7850583" lon="9.9828764"><ele>344.0</ele><time>2026-04-24T16:15:03.334Z</time></trkpt><trkpt lat="45.7849584" lon="9.9828498"><ele>345.0</ele><time>2026-04-24T16:15:04.333Z</time></trkpt><trkpt lat="45.7848579" lon="9.9828233"><ele>346.0</ele><time>2026-04-24T16:15:05.334Z</time></trkpt><trkpt lat="45.7847566" lon="9.9828046"><ele>347.0</ele><time>2026-04-24T16:15:06.333Z</time></trkpt><trkpt lat="45.7846535" lon="9.9827965"><ele>348.0</ele><time>2026-04-24T16:15:07.333Z</time></trkpt><trkpt lat="45.7845511" lon="9.9827998"><ele>348.0</ele><time>2026-04-24T16:15:08.334Z</time></trkpt><trkpt lat="45.7844485" lon="9.9828085"><ele>348.0</ele><time>2026-04-24T16:15:09.334Z</time></trkpt><trkpt lat="45.7843479" lon="9.982819"><ele>348.0</ele><time>2026-04-24T16:15:10.334Z</time></trkpt><trkpt lat="45.7842439" lon="9.9828231"><ele>348.0</ele><time>2026-04-24T16:15:11.333Z</time></trkpt><trkpt lat="45.7841464" lon="9.9828198"><ele>348.0</ele><time>2026-04-24T16:15:12.334Z</time></trkpt><trkpt lat="45.7840477" lon="9.9828239"><ele>349.4</ele><time>2026-04-24T16:15:13.334Z</time></trkpt><trkpt lat="45.7839497" lon="9.982836"><ele>350.79999999999995</ele><time>2026-04-24T16:15:14.334Z</time></trkpt><trkpt lat="45.7838508" lon="9.98285"><ele>352.2</ele><time>2026-04-24T16:15:15.334Z</time></trkpt><trkpt lat="45.7837541" lon="9.9828723"><ele>353.6</ele><time>2026-04-24T16:15:16.334Z</time></trkpt><trkpt lat="45.7836577" lon="9.9828937"><ele>355.0</ele><time>2026-04-24T16:15:17.334Z</time></trkpt><trkpt lat="45.7835609" lon="9.9829178"><ele>356.66666666666663</ele><time>2026-04-24T16:15:18.334Z</time></trkpt><trkpt lat="45.7834623" lon="9.9829362"><ele>358.3333333333333</ele><time>2026-04-24T16:15:19.334Z</time></trkpt><trkpt lat="45.7833632" lon="9.9829576"><ele>360.0</ele><time>2026-04-24T16:15:20.335Z</time></trkpt><trkpt lat="45.7832659" lon="9.9829682"><ele>361.6666666666667</ele><time>2026-04-24T16:15:21.335Z</time></trkpt><trkpt lat="45.7831892" lon="9.9829719"><ele>363.33333333333337</ele><time>2026-04-24T16:15:22.334Z</time></trkpt><trkpt lat="45.7831212" lon="9.9829782"><ele>365.0</ele><time>2026-04-24T16:15:23.334Z</time></trkpt><trkpt lat="45.7830179" lon="9.9830126"><ele>365.0</ele><time>2026-04-24T16:15:25.334Z</time></trkpt><trkpt lat="45.7829457" lon="9.9830366"><ele>365.0</ele><time>2026-04-24T16:15:26.334Z</time></trkpt><trkpt lat="45.7830027" lon="9.9832057"><ele>365.0</ele><time>2026-04-24T16:15:27.334Z</time></trkpt><trkpt lat="45.7830251" lon="9.9833431"><ele>365.0</ele><time>2026-04-24T16:15:28.335Z</time></trkpt><trkpt lat="45.7830536" lon="9.983487"><ele>365.0</ele><time>2026-04-24T16:15:29.333Z</time></trkpt><trkpt lat="45.7830595" lon="9.9836035"><ele>364.0</ele><time>2026-04-24T16:15:30.334Z</time></trkpt><trkpt lat="45.783098" lon="9.9837416"><ele>363.0</ele><time>2026-04-24T16:15:31.334Z</time></trkpt><trkpt lat="45.7831332" lon="9.9838872"><ele>362.0</ele><time>2026-04-24T16:15:32.334Z</time></trkpt><trkpt lat="45.7831721" lon="9.9840201"><ele>361.0</ele><time>2026-04-24T16:15:33.335Z</time></trkpt><trkpt lat="45.7831985" lon="9.9841474"><ele>360.0</ele><time>2026-04-24T16:15:34.334Z</time></trkpt><trkpt lat="45.7832186" lon="9.9842667"><ele>359.2</ele><time>2026-04-24T16:15:35.335Z</time></trkpt><trkpt lat="45.7832593" lon="9.9843898"><ele>358.4</ele><time>2026-04-24T16:15:36.333Z</time></trkpt><trkpt lat="45.7833076" lon="9.9844996"><ele>357.6</ele><time>2026-04-24T16:15:37.335Z</time></trkpt><trkpt lat="45.7833553" lon="9.9846173"><ele>356.8</ele><time>2026-04-24T16:15:38.333Z</time></trkpt><trkpt lat="45.7834047" lon="9.9847377"><ele>356.0</ele><time>2026-04-24T16:15:39.335Z</time></trkpt><trkpt lat="45.7834513" lon="9.9848568"><ele>356.0</ele><time>2026-04-24T16:15:40.334Z</time></trkpt><trkpt lat="45.7834977" lon="9.9849772"><ele>356.0</ele><time>2026-04-24T16:15:41.334Z</time></trkpt><trkpt lat="45.7835407" lon="9.9851052"><ele>356.0</ele><time>2026-04-24T16:15:42.334Z</time></trkpt><trkpt lat="45.7835736" lon="9.9852363"><ele>356.0</ele><time>2026-04-24T16:15:43.334Z</time></trkpt><trkpt lat="45.7835909" lon="9.9853712"><ele>356.0</ele><time>2026-04-24T16:15:44.335Z</time></trkpt><trkpt lat="45.7835978" lon="9.9855161"><ele>354.20000000000005</ele><time>2026-04-24T16:15:45.333Z</time></trkpt><trkpt lat="45.7835995" lon="9.9856622"><ele>352.40000000000003</ele><time>2026-04-24T16:15:46.334Z</time></trkpt><trkpt lat="45.7836043" lon="9.9858083"><ele>350.6</ele><time>2026-04-24T16:15:47.335Z</time></trkpt><trkpt lat="45.7836166" lon="9.9859573"><ele>348.8</ele><time>2026-04-24T16:15:48.335Z</time></trkpt><trkpt lat="45.7836417" lon="9.9861031"><ele>347.0</ele><time>2026-04-24T16:15:49.333Z</time></trkpt><trkpt lat="45.7836835" lon="9.9862474"><ele>346.0</ele><time>2026-04-24T16:15:50.334Z</time></trkpt><trkpt lat="45.7837289" lon="9.9863936"><ele>345.0</ele><time>2026-04-24T16:15:51.334Z</time></trkpt><trkpt lat="45.7837765" lon="9.9865392"><ele>344.0</ele><time>2026-04-24T16:15:52.335Z</time></trkpt><trkpt lat="45.7838238" lon="9.98669"><ele>343.0</ele><time>2026-04-24T16:15:53.333Z</time></trkpt><trkpt lat="45.7838698" lon="9.9868468"><ele>343.0</ele><time>2026-04-24T16:15:54.334Z</time></trkpt><trkpt lat="45.7839107" lon="9.9870013"><ele>343.0</ele><time>2026-04-24T16:15:55.336Z</time></trkpt><trkpt lat="45.7839462" lon="9.987156"><ele>343.0</ele><time>2026-04-24T16:15:56.335Z</time></trkpt><trkpt lat="45.7839865" lon="9.987312"><ele>343.0</ele><time>2026-04-24T16:15:57.333Z</time></trkpt><trkpt lat="45.7840407" lon="9.9874624"><ele>343.0</ele><time>2026-04-24T16:15:58.334Z</time></trkpt><trkpt lat="45.7841042" lon="9.9876081"><ele>343.0</ele><time>2026-04-24T16:15:59.334Z</time></trkpt><trkpt lat="45.7841811" lon="9.987745"><ele>343.0</ele><time>2026-04-24T16:16:00.334Z</time></trkpt><trkpt lat="45.7842581" lon="9.9878787"><ele>343.0</ele><time>2026-04-24T16:16:01.333Z</time></trkpt><trkpt lat="45.7843329" lon="9.9880145"><ele>341.75</ele><time>2026-04-24T16:16:02.335Z</time></trkpt><trkpt lat="45.7843954" lon="9.9881631"><ele>340.5</ele><time>2026-04-24T16:16:03.335Z</time></trkpt><trkpt lat="45.7844399" lon="9.9883209"><ele>339.25</ele><time>2026-04-24T16:16:04.333Z</time></trkpt><trkpt lat="45.7844688" lon="9.9884871"><ele>338.0</ele><time>2026-04-24T16:16:05.334Z</time></trkpt><trkpt lat="45.7844809" lon="9.9886547"><ele>338.0</ele><time>2026-04-24T16:16:06.334Z</time></trkpt><trkpt lat="45.784498" lon="9.9888271"><ele>338.0</ele><time>2026-04-24T16:16:07.335Z</time></trkpt><trkpt lat="45.7845179" lon="9.9889958"><ele>338.0</ele><time>2026-04-24T16:16:08.334Z</time></trkpt><trkpt lat="45.7845389" lon="9.9891703"><ele>338.0</ele><time>2026-04-24T16:16:09.334Z</time></trkpt><trkpt lat="45.7845587" lon="9.989339"><ele>338.5</ele><time>2026-04-24T16:16:10.333Z</time></trkpt><trkpt lat="45.7845747" lon="9.9895158"><ele>339.0</ele><time>2026-04-24T16:16:11.335Z</time></trkpt><trkpt lat="45.7846029" lon="9.9896977"><ele>339.5</ele><time>2026-04-24T16:16:12.335Z</time></trkpt><trkpt lat="45.7846425" lon="9.9898734"><ele>340.0</ele><time>2026-04-24T16:16:13.334Z</time></trkpt><trkpt lat="45.784692" lon="9.9900389"><ele>341.0</ele><time>2026-04-24T16:16:14.335Z</time></trkpt><trkpt lat="45.7847494" lon="9.9902072"><ele>342.0</ele><time>2026-04-24T16:16:15.334Z</time></trkpt><trkpt lat="45.7848067" lon="9.9903823"><ele>343.0</ele><time>2026-04-24T16:16:16.334Z</time></trkpt><trkpt lat="45.7848678" lon="9.9905537"><ele>344.0</ele><time>2026-04-24T16:16:17.334Z</time></trkpt><trkpt lat="45.7849289" lon="9.9907157"><ele>343.75</ele><time>2026-04-24T16:16:18.333Z</time></trkpt><trkpt lat="45.7849991" lon="9.9908738"><ele>343.5</ele><time>2026-04-24T16:16:19.334Z</time></trkpt><trkpt lat="45.7850728" lon="9.9910247"><ele>343.25</ele><time>2026-04-24T16:16:20.335Z</time></trkpt><trkpt lat="45.7851439" lon="9.9911839"><ele>343.0</ele><time>2026-04-24T16:16:21.334Z</time></trkpt><trkpt lat="45.7852154" lon="9.9913423"><ele>343.0</ele><time>2026-04-24T16:16:22.335Z</time></trkpt><trkpt lat="45.7852841" lon="9.9915041"><ele>343.0</ele><time>2026-04-24T16:16:23.334Z</time></trkpt><trkpt lat="45.7853551" lon="9.9916615"><ele>343.0</ele><time>2026-04-24T16:16:24.334Z</time></trkpt><trkpt lat="45.7854248" lon="9.9918224"><ele>343.0</ele><time>2026-04-24T16:16:25.334Z</time></trkpt><trkpt lat="45.7854889" lon="9.991982"><ele>343.25</ele><time>2026-04-24T16:16:26.333Z</time></trkpt><trkpt lat="45.7855477" lon="9.9921472"><ele>343.5</ele><time>2026-04-24T16:16:27.334Z</time></trkpt><trkpt lat="45.7855962" lon="9.9923129"><ele>343.75</ele><time>2026-04-24T16:16:28.335Z</time></trkpt><trkpt lat="45.7856374" lon="9.9924852"><ele>344.0</ele><time>2026-04-24T16:16:29.334Z</time></trkpt><trkpt lat="45.7856853" lon="9.9926574"><ele>344.0</ele><time>2026-04-24T16:16:30.334Z</time></trkpt><trkpt lat="45.7857666" lon="9.9928002"><ele>344.0</ele><time>2026-04-24T16:16:31.333Z</time></trkpt><trkpt lat="45.7858485" lon="9.9929359"><ele>344.0</ele><time>2026-04-24T16:16:32.335Z</time></trkpt><trkpt lat="45.7859334" lon="9.9930722"><ele>344.0</ele><time>2026-04-24T16:16:33.334Z</time></trkpt><trkpt lat="45.7860149" lon="9.9932012"><ele>344.0</ele><time>2026-04-24T16:16:34.334Z</time></trkpt><trkpt lat="45.7860925" lon="9.9933311"><ele>344.0</ele><time>2026-04-24T16:16:35.334Z</time></trkpt><trkpt lat="45.7861483" lon="9.9934652"><ele>344.0</ele><time>2026-04-24T16:16:36.335Z</time></trkpt><trkpt lat="45.7861985" lon="9.9936084"><ele>344.0</ele><time>2026-04-24T16:16:37.334Z</time></trkpt><trkpt lat="45.7862335" lon="9.9937721"><ele>344.5</ele><time>2026-04-24T16:16:38.334Z</time></trkpt><trkpt lat="45.7862685" lon="9.9939293"><ele>345.0</ele><time>2026-04-24T16:16:39.335Z</time></trkpt><trkpt lat="45.7863026" lon="9.9940862"><ele>345.5</ele><time>2026-04-24T16:16:40.333Z</time></trkpt><trkpt lat="45.7863468" lon="9.994243"><ele>346.0</ele><time>2026-04-24T16:16:41.334Z</time></trkpt><trkpt lat="45.7863874" lon="9.9944103"><ele>346.0</ele><time>2026-04-24T16:16:42.335Z</time></trkpt><trkpt lat="45.7864159" lon="9.9945798"><ele>346.0</ele><time>2026-04-24T16:16:43.334Z</time></trkpt><trkpt lat="45.7864462" lon="9.9947546"><ele>346.0</ele><time>2026-04-24T16:16:44.334Z</time></trkpt><trkpt lat="45.7864771" lon="9.9949187"><ele>346.0</ele><time>2026-04-24T16:16:45.334Z</time></trkpt><trkpt lat="45.7864991" lon="9.9950733"><ele>346.20000000000005</ele><time>2026-04-24T16:16:46.333Z</time></trkpt><trkpt lat="45.7865175" lon="9.9952308"><ele>346.40000000000003</ele><time>2026-04-24T16:16:47.334Z</time></trkpt><trkpt lat="45.7865131" lon="9.9953896"><ele>346.6</ele><time>2026-04-24T16:16:48.335Z</time></trkpt><trkpt lat="45.7865021" lon="9.995551"><ele>346.8</ele><time>2026-04-24T16:16:49.335Z</time></trkpt><trkpt lat="45.7864951" lon="9.9957132"><ele>347.0</ele><time>2026-04-24T16:16:50.334Z</time></trkpt><trkpt lat="45.7864961" lon="9.9958744"><ele>347.0</ele><time>2026-04-24T16:16:51.334Z</time></trkpt><trkpt lat="45.7864948" lon="9.9960465"><ele>347.0</ele><time>2026-04-24T16:16:52.334Z</time></trkpt><trkpt lat="45.7864935" lon="9.9962161"><ele>347.0</ele><time>2026-04-24T16:16:53.334Z</time></trkpt><trkpt lat="45.786496" lon="9.9963836"><ele>347.0</ele><time>2026-04-24T16:16:54.334Z</time></trkpt><trkpt lat="45.7864963" lon="9.9965589"><ele>346.75</ele><time>2026-04-24T16:16:55.334Z</time></trkpt><trkpt lat="45.7864949" lon="9.9967312"><ele>346.5</ele><time>2026-04-24T16:16:56.334Z</time></trkpt><trkpt lat="45.7864952" lon="9.9969067"><ele>346.25</ele><time>2026-04-24T16:16:57.334Z</time></trkpt><trkpt lat="45.7864925" lon="9.9970907"><ele>346.0</ele><time>2026-04-24T16:16:58.335Z</time></trkpt><trkpt lat="45.7864849" lon="9.9972744"><ele>346.0</ele><time>2026-04-24T16:16:59.334Z</time></trkpt><trkpt lat="45.7864813" lon="9.9974634"><ele>346.0</ele><time>2026-04-24T16:17:00.335Z</time></trkpt><trkpt lat="45.7864881" lon="9.9976457"><ele>346.0</ele><time>2026-04-24T16:17:01.334Z</time></trkpt><trkpt lat="45.7865073" lon="9.9978281"><ele>346.0</ele><time>2026-04-24T16:17:02.333Z</time></trkpt><trkpt lat="45.7865364" lon="9.9980092"><ele>345.75</ele><time>2026-04-24T16:17:03.335Z</time></trkpt><trkpt lat="45.786572" lon="9.9981874"><ele>345.5</ele><time>2026-04-24T16:17:04.334Z</time></trkpt><trkpt lat="45.7866059" lon="9.9983674"><ele>345.25</ele><time>2026-04-24T16:17:05.335Z</time></trkpt><trkpt lat="45.7866436" lon="9.998542"><ele>345.0</ele><time>2026-04-24T16:17:06.333Z</time></trkpt><trkpt lat="45.7866749" lon="9.9987194"><ele>345.5</ele><time>2026-04-24T16:17:07.334Z</time></trkpt><trkpt lat="45.7867018" lon="9.9988987"><ele>346.0</ele><time>2026-04-24T16:17:08.334Z</time></trkpt><trkpt lat="45.7867256" lon="9.9990767"><ele>346.5</ele><time>2026-04-24T16:17:09.334Z</time></trkpt><trkpt lat="45.7867533" lon="9.9992574"><ele>347.0</ele><time>2026-04-24T16:17:10.335Z</time></trkpt><trkpt lat="45.786774" lon="9.9994211"><ele>347.0</ele><time>2026-04-24T16:17:11.333Z</time></trkpt><trkpt lat="45.7867934" lon="9.9995722"><ele>347.0</ele><time>2026-04-24T16:17:12.335Z</time></trkpt><trkpt lat="45.7868138" lon="9.9997116"><ele>347.0</ele><time>2026-04-24T16:17:13.334Z</time></trkpt><trkpt lat="45.786831" lon="9.9998376"><ele>347.0</ele><time>2026-04-24T16:17:14.333Z</time></trkpt><trkpt lat="45.7868495" lon="9.9999596"><ele>347.0</ele><time>2026-04-24T16:17:15.334Z</time></trkpt><trkpt lat="45.7868829" lon="10.0000593"><ele>347.0</ele><time>2026-04-24T16:17:16.334Z</time></trkpt><trkpt lat="45.7869343" lon="10.0001153"><ele>347.0</ele><time>2026-04-24T16:17:17.334Z</time></trkpt><trkpt lat="45.786992" lon="10.0001557"><ele>347.0</ele><time>2026-04-24T16:17:18.335Z</time></trkpt><trkpt lat="45.787076" lon="10.0001934"><ele>347.0</ele><time>2026-04-24T16:17:20.334Z</time></trkpt><trkpt lat="45.7871462" lon="10.0001848"><ele>347.0</ele><time>2026-04-24T16:17:23.336Z</time></trkpt><trkpt lat="45.7872072" lon="10.0000875"><ele>347.0</ele><time>2026-04-24T16:17:25.333Z</time></trkpt><trkpt lat="45.7872361" lon="9.9999783"><ele>347.0</ele><time>2026-04-24T16:17:27.334Z</time></trkpt><trkpt lat="45.787207" lon="9.9998801"><ele>347.0</ele><time>2026-04-24T16:17:30.334Z</time></trkpt><trkpt lat="45.7871842" lon="9.9999708"><ele>347.0</ele><time>2026-04-24T16:18:03.334Z</time></trkpt><trkpt lat="45.7871264" lon="10.0001475"><ele>347.0</ele><time>2026-04-24T16:19:44.335Z</time></trkpt><trkpt lat="45.7871112" lon="10.0002596"><ele>347.0</ele><time>2026-04-24T16:19:45.333Z</time></trkpt><trkpt lat="45.7870904" lon="10.0003841"><ele>347.0</ele><time>2026-04-24T16:19:46.334Z</time></trkpt><trkpt lat="45.7870502" lon="10.0005127"><ele>347.0</ele><time>2026-04-24T16:19:47.335Z</time></trkpt><trkpt lat="45.7870077" lon="10.0006609"><ele>347.0</ele><time>2026-04-24T16:19:48.334Z</time></trkpt><trkpt lat="45.7869656" lon="10.000826"><ele>347.0</ele><time>2026-04-24T16:19:49.335Z</time></trkpt><trkpt lat="45.7869411" lon="10.0010165"><ele>347.0</ele><time>2026-04-24T16:19:50.334Z</time></trkpt><trkpt lat="45.7869236" lon="10.0012089"><ele>347.25</ele><time>2026-04-24T16:19:51.334Z</time></trkpt><trkpt lat="45.7869017" lon="10.0013963"><ele>347.5</ele><time>2026-04-24T16:19:52.334Z</time></trkpt><trkpt lat="45.7868808" lon="10.0015657"><ele>347.75</ele><time>2026-04-24T16:19:53.333Z</time></trkpt><trkpt lat="45.7868569" lon="10.001721"><ele>348.0</ele><time>2026-04-24T16:19:54.334Z</time></trkpt><trkpt lat="45.7868242" lon="10.0018605"><ele>347.59999999999997</ele><time>2026-04-24T16:19:55.334Z</time></trkpt><trkpt lat="45.7868065" lon="10.0020132"><ele>347.2</ele><time>2026-04-24T16:19:56.334Z</time></trkpt><trkpt lat="45.7867841" lon="10.0021649"><ele>346.8</ele><time>2026-04-24T16:19:57.334Z</time></trkpt><trkpt lat="45.7867679" lon="10.0023145"><ele>346.4</ele><time>2026-04-24T16:19:58.335Z</time></trkpt><trkpt lat="45.7867511" lon="10.0024668"><ele>346.0</ele><time>2026-04-24T16:19:59.333Z</time></trkpt><trkpt lat="45.7867381" lon="10.0026093"><ele>345.8</ele><time>2026-04-24T16:20:00.335Z</time></trkpt><trkpt lat="45.7867337" lon="10.0027534"><ele>345.6</ele><time>2026-04-24T16:20:01.334Z</time></trkpt><trkpt lat="45.7867396" lon="10.0028911"><ele>345.4</ele><time>2026-04-24T16:20:02.334Z</time></trkpt><trkpt lat="45.7867483" lon="10.0030274"><ele>345.2</ele><time>2026-04-24T16:20:03.334Z</time></trkpt><trkpt lat="45.7867587" lon="10.0031532"><ele>345.0</ele><time>2026-04-24T16:20:04.334Z</time></trkpt><trkpt lat="45.7867766" lon="10.0032797"><ele>345.1666666666667</ele><time>2026-04-24T16:20:05.334Z</time></trkpt><trkpt lat="45.78679" lon="10.0034034"><ele>345.3333333333333</ele><time>2026-04-24T16:20:06.334Z</time></trkpt><trkpt lat="45.7868039" lon="10.0035271"><ele>345.5</ele><time>2026-04-24T16:20:07.334Z</time></trkpt><trkpt lat="45.7868035" lon="10.0036543"><ele>345.66666666666663</ele><time>2026-04-24T16:20:08.334Z</time></trkpt><trkpt lat="45.7868101" lon="10.0037862"><ele>345.8333333333333</ele><time>2026-04-24T16:20:09.333Z</time></trkpt><trkpt lat="45.7868152" lon="10.0039195"><ele>346.0</ele><time>2026-04-24T16:20:10.334Z</time></trkpt><trkpt lat="45.786814" lon="10.0040585"><ele>346.8</ele><time>2026-04-24T16:20:11.335Z</time></trkpt><trkpt lat="45.786809" lon="10.0041951"><ele>347.6</ele><time>2026-04-24T16:20:12.334Z</time></trkpt><trkpt lat="45.786803" lon="10.0043421"><ele>348.4</ele><time>2026-04-24T16:20:13.334Z</time></trkpt><trkpt lat="45.7867969" lon="10.0044865"><ele>349.2</ele><time>2026-04-24T16:20:14.334Z</time></trkpt><trkpt lat="45.7867926" lon="10.0046344"><ele>350.0</ele><time>2026-04-24T16:20:15.335Z</time></trkpt><trkpt lat="45.7867867" lon="10.0047764"><ele>350.0</ele><time>2026-04-24T16:20:16.334Z</time></trkpt><trkpt lat="45.7867824" lon="10.0049185"><ele>350.0</ele><time>2026-04-24T16:20:17.335Z</time></trkpt><trkpt lat="45.7867728" lon="10.0050618"><ele>350.0</ele><time>2026-04-24T16:20:18.333Z</time></trkpt><trkpt lat="45.7867656" lon="10.0052079"><ele>350.0</ele><time>2026-04-24T16:20:19.334Z</time></trkpt><trkpt lat="45.7867606" lon="10.0053571"><ele>350.0</ele><time>2026-04-24T16:20:20.333Z</time></trkpt><trkpt lat="45.7867602" lon="10.0055031"><ele>350.8</ele><time>2026-04-24T16:20:21.334Z</time></trkpt><trkpt lat="45.786767" lon="10.0056503"><ele>351.6</ele><time>2026-04-24T16:20:22.334Z</time></trkpt><trkpt lat="45.7867765" lon="10.0058023"><ele>352.4</ele><time>2026-04-24T16:20:23.333Z</time></trkpt><trkpt lat="45.7867885" lon="10.0059464"><ele>353.2</ele><time>2026-04-24T16:20:24.334Z</time></trkpt><trkpt lat="45.7868069" lon="10.0060923"><ele>354.0</ele><time>2026-04-24T16:20:25.334Z</time></trkpt><trkpt lat="45.786823" lon="10.0062369"><ele>352.6666666666667</ele><time>2026-04-24T16:20:26.334Z</time></trkpt><trkpt lat="45.7868484" lon="10.0063641"><ele>351.3333333333333</ele><time>2026-04-24T16:20:27.334Z</time></trkpt><trkpt lat="45.7868751" lon="10.0064916"><ele>350.0</ele><time>2026-04-24T16:20:28.334Z</time></trkpt><trkpt lat="45.7868991" lon="10.006591"><ele>348.66666666666663</ele><time>2026-04-24T16:20:29.335Z</time></trkpt><trkpt lat="45.7869299" lon="10.0067278"><ele>347.3333333333333</ele><time>2026-04-24T16:20:31.333Z</time></trkpt><trkpt lat="45.7869542" lon="10.006833"><ele>346.0</ele><time>2026-04-24T16:20:33.334Z</time></trkpt><trkpt lat="45.7869356" lon="10.0069506"><ele>346.0</ele><time>2026-04-24T16:20:35.335Z</time></trkpt><trkpt lat="45.7869029" lon="10.0070499"><ele>346.0</ele><time>2026-04-24T16:20:37.335Z</time></trkpt><trkpt lat="45.7868722" lon="10.0071423"><ele>346.0</ele><time>2026-04-24T16:20:39.335Z</time></trkpt><trkpt lat="45.7868617" lon="10.00726"><ele>346.0</ele><time>2026-04-24T16:20:41.333Z</time></trkpt><trkpt lat="45.7868696" lon="10.0074175"><ele>346.0</ele><time>2026-04-24T16:20:43.333Z</time></trkpt><trkpt lat="45.7868678" lon="10.0075414"><ele>346.0</ele><time>2026-04-24T16:20:45.334Z</time></trkpt><trkpt lat="45.7868689" lon="10.0076633"><ele>346.5</ele><time>2026-04-24T16:20:47.333Z</time></trkpt><trkpt lat="45.7868733" lon="10.0077607"><ele>347.0</ele><time>2026-04-24T16:20:49.334Z</time></trkpt><trkpt lat="45.7868656" lon="10.0078726"><ele>347.5</ele><time>2026-04-24T16:20:51.334Z</time></trkpt><trkpt lat="45.7868735" lon="10.0079914"><ele>348.0</ele><time>2026-04-24T16:20:54.334Z</time></trkpt><trkpt lat="45.7868778" lon="10.0081155"><ele>348.5</ele><time>2026-04-24T16:20:57.334Z</time></trkpt><trkpt lat="45.7868568" lon="10.0082029"><ele>349.0</ele><time>2026-04-24T16:20:59.335Z</time></trkpt><trkpt lat="45.7868164" lon="10.0083213"><ele>351.5</ele><time>2026-04-24T16:21:02.335Z</time></trkpt><trkpt lat="45.7867694" lon="10.008428"><ele>354.0</ele><time>2026-04-24T16:21:05.334Z</time></trkpt><trkpt lat="45.7867478" lon="10.0085345"><ele>356.5</ele><time>2026-04-24T16:21:07.334Z</time></trkpt><trkpt lat="45.786709" lon="10.0086194"><ele>359.0</ele><time>2026-04-24T16:21:09.334Z</time></trkpt><trkpt lat="45.7866552" lon="10.0087169"><ele>361.5</ele><time>2026-04-24T16:21:12.334Z</time></trkpt><trkpt lat="45.7866733" lon="10.0088243"><ele>364.0</ele><time>2026-04-24T16:21:15.334Z</time></trkpt><trkpt lat="45.7866573" lon="10.0089466"><ele>364.0</ele><time>2026-04-24T16:21:23.334Z</time></trkpt><trkpt lat="45.7866556" lon="10.009061"><ele>364.0</ele><time>2026-04-24T16:21:26.334Z</time></trkpt><trkpt lat="45.7866583" lon="10.0091538"><ele>364.0</ele><time>2026-04-24T16:21:36.334Z</time></trkpt><trkpt lat="45.7866382" lon="10.0092472"><ele>364.0</ele><time>2026-04-24T16:22:43.334Z</time></trkpt><trkpt lat="45.7865959" lon="10.0093221"><ele>364.0</ele><time>2026-04-24T16:22:53.333Z</time></trkpt><trkpt lat="45.786551" lon="10.0094107"><ele>364.0</ele><time>2026-04-24T16:22:55.335Z</time></trkpt><trkpt lat="45.7865451" lon="10.0095066"><ele>364.0</ele><time>2026-04-24T16:22:57.333Z</time></trkpt><trkpt lat="45.7865801" lon="10.0095946"><ele>363.85714285714283</ele><time>2026-04-24T16:22:59.333Z</time></trkpt><trkpt lat="45.7866158" lon="10.0096714"><ele>363.7142857142857</ele><time>2026-04-24T16:23:54.333Z</time></trkpt><trkpt lat="45.7866269" lon="10.0097964"><ele>363.57142857142856</ele><time>2026-04-24T16:25:10.333Z</time></trkpt><trkpt lat="45.7866288" lon="10.0098945"><ele>363.42857142857144</ele><time>2026-04-24T16:25:13.335Z</time></trkpt><trkpt lat="45.786626" lon="10.0099892"><ele>363.2857142857143</ele><time>2026-04-24T16:25:15.335Z</time></trkpt><trkpt lat="45.7866322" lon="10.0100864"><ele>363.1428571428571</ele><time>2026-04-24T16:25:17.31Z</time></trkpt><trkpt lat="45.7866267" lon="10.0101841"><ele>363.0</ele><time>2026-04-24T16:25:20.334Z</time></trkpt><trkpt lat="45.7866148" lon="10.0102839"><ele>365.59999999999997</ele><time>2026-04-24T16:25:24.284Z</time></trkpt><trkpt lat="45.7866252" lon="10.0103791"><ele>368.2</ele><time>2026-04-24T16:25:34.334Z</time></trkpt><trkpt lat="45.7865071" lon="10.0104896"><ele>370.8</ele><time>2026-04-24T16:25:42.333Z</time></trkpt><trkpt lat="45.7864006" lon="10.0105412"><ele>373.4</ele><time>2026-04-24T16:25:43.333Z</time></trkpt><trkpt lat="45.7863003" lon="10.010586"><ele>376.0</ele><time>2026-04-24T16:25:44.334Z</time></trkpt><trkpt lat="45.7862018" lon="10.0106586"><ele>376.0</ele><time>2026-04-24T16:25:45.334Z</time></trkpt><trkpt lat="45.7861156" lon="10.0107135"><ele>376.0</ele><time>2026-04-24T16:25:46.333Z</time></trkpt><trkpt lat="45.7860578" lon="10.0107982"><ele>376.0</ele><time>2026-04-24T16:25:47.333Z</time></trkpt><trkpt lat="45.7860071" lon="10.010899"><ele>376.0</ele><time>2026-04-24T16:25:48.334Z</time></trkpt><trkpt lat="45.7859547" lon="10.0109817"><ele>376.0</ele><time>2026-04-24T16:25:49.334Z</time></trkpt><trkpt lat="45.7858992" lon="10.0110943"><ele>376.0</ele><time>2026-04-24T16:25:51.333Z</time></trkpt><trkpt lat="45.7858521" lon="10.0111646"><ele>378.0</ele><time>2026-04-24T16:25:53.334Z</time></trkpt><trkpt lat="45.7859177" lon="10.0111958"><ele>380.0</ele><time>2026-04-24T16:25:58.334Z</time></trkpt><trkpt lat="45.7859884" lon="10.0111201"><ele>382.0</ele><time>2026-04-24T16:26:00.334Z</time></trkpt><trkpt lat="45.7860481" lon="10.0110423"><ele>384.0</ele><time>2026-04-24T16:26:02.334Z</time></trkpt><trkpt lat="45.7861155" lon="10.0110323"><ele>386.00000000000006</ele><time>2026-04-24T16:26:05.332Z</time></trkpt><trkpt lat="45.786118" lon="10.011153"><ele>388.0</ele><time>2026-04-24T16:27:02.334Z</time></trkpt><trkpt lat="45.7861113" lon="10.0112479"><ele>388.00000000000006</ele><time>2026-04-24T16:27:03.333Z</time></trkpt><trkpt lat="45.7861039" lon="10.0113457"><ele>388.0</ele><time>2026-04-24T16:27:04.333Z</time></trkpt><trkpt lat="45.7861103" lon="10.0114422"><ele>388.0</ele><time>2026-04-24T16:27:05.334Z</time></trkpt><trkpt lat="45.7861311" lon="10.0115304"><ele>388.0</ele><time>2026-04-24T16:27:06.333Z</time></trkpt><trkpt lat="45.7861931" lon="10.0116542"><ele>388.00000000000006</ele><time>2026-04-24T16:27:08.333Z</time></trkpt><trkpt lat="45.7862905" lon="10.0117287"><ele>388.0</ele><time>2026-04-24T16:27:10.334Z</time></trkpt><trkpt lat="45.7863908" lon="10.0118016"><ele>390.6666666666667</ele><time>2026-04-24T16:27:12.333Z</time></trkpt><trkpt lat="45.7864413" lon="10.0119217"><ele>393.33333333333337</ele><time>2026-04-24T16:27:14.334Z</time></trkpt><trkpt lat="45.7864119" lon="10.0120254"><ele>396.0</ele><time>2026-04-24T16:27:16.332Z</time></trkpt><trkpt lat="45.7863488" lon="10.0120811"><ele>398.66666666666663</ele><time>2026-04-24T16:27:18.334Z</time></trkpt><trkpt lat="45.7863859" lon="10.0121615"><ele>401.3333333333333</ele><time>2026-04-24T16:27:28.334Z</time></trkpt><trkpt lat="45.7864565" lon="10.012189"><ele>404.0</ele><time>2026-04-24T16:27:32.334Z</time></trkpt><trkpt lat="45.7865249" lon="10.0121827"><ele>403.99999999999994</ele><time>2026-04-24T16:27:37.334Z</time></trkpt><trkpt lat="45.786606" lon="10.0121869"><ele>404.0</ele><time>2026-04-24T16:27:41.333Z</time></trkpt><trkpt lat="45.7866601" lon="10.0122516"><ele>404.0</ele><time>2026-04-24T16:27:44.334Z</time></trkpt><trkpt lat="45.7867119" lon="10.0123159"><ele>404.0</ele><time>2026-04-24T16:28:12.334Z</time></trkpt><trkpt lat="45.7867336" lon="10.0124195"><ele>403.99999999999994</ele><time>2026-04-24T16:28:34.334Z</time></trkpt><trkpt lat="45.7867243" lon="10.012523"><ele>404.0</ele><time>2026-04-24T16:28:37.334Z</time></trkpt><trkpt lat="45.7867208" lon="10.0126703"><ele>407.66666666666663</ele><time>2026-04-24T16:28:40.333Z</time></trkpt><trkpt lat="45.7866903" lon="10.0127537"><ele>411.3333333333333</ele><time>2026-04-24T16:28:42.332Z</time></trkpt><trkpt lat="45.7866943" lon="10.0128452"><ele>415.0</ele><time>2026-04-24T16:28:45.333Z</time></trkpt><trkpt lat="45.7867408" lon="10.0129554"><ele>418.66666666666663</ele><time>2026-04-24T16:28:48.334Z</time></trkpt><trkpt lat="45.7867379" lon="10.0130858"><ele>422.3333333333333</ele><time>2026-04-24T16:28:51.332Z</time></trkpt><trkpt lat="45.7866909" lon="10.0131475"><ele>426.0</ele><time>2026-04-24T16:28:53.334Z</time></trkpt><trkpt lat="45.7865803" lon="10.0132064"><ele>426.0</ele><time>2026-04-24T16:28:55.334Z</time></trkpt><trkpt lat="45.7864724" lon="10.0132738"><ele>426.0</ele><time>2026-04-24T16:28:57.334Z</time></trkpt><trkpt lat="45.7864067" lon="10.013278"><ele>426.0</ele><time>2026-04-24T16:28:58.333Z</time></trkpt><trkpt lat="45.786322" lon="10.0133329"><ele>426.0</ele><time>2026-04-24T16:29:00.334Z</time></trkpt><trkpt lat="45.7862483" lon="10.0133955"><ele>426.0</ele><time>2026-04-24T16:29:02.334Z</time></trkpt><trkpt lat="45.7862207" lon="10.0134917"><ele>426.0</ele><time>2026-04-24T16:29:04.334Z</time></trkpt><trkpt lat="45.7861924" lon="10.0136164"><ele>429.8</ele><time>2026-04-24T16:29:06.333Z</time></trkpt><trkpt lat="45.7862096" lon="10.013756"><ele>433.6</ele><time>2026-04-24T16:29:08.334Z</time></trkpt><trkpt lat="45.7862221" lon="10.0138523"><ele>437.4</ele><time>2026-04-24T16:29:09.333Z</time></trkpt><trkpt lat="45.7862419" lon="10.0140165"><ele>441.2</ele><time>2026-04-24T16:29:11.333Z</time></trkpt><trkpt lat="45.7862543" lon="10.0141991"><ele>445.0</ele><time>2026-04-24T16:29:13.334Z</time></trkpt><trkpt lat="45.786258" lon="10.0143468"><ele>447.00000000000006</ele><time>2026-04-24T16:29:15.334Z</time></trkpt><trkpt lat="45.7862252" lon="10.0144588"><ele>449.0</ele><time>2026-04-24T16:29:17.334Z</time></trkpt><trkpt lat="45.7861401" lon="10.0145564"><ele>451.0</ele><time>2026-04-24T16:29:19.334Z</time></trkpt><trkpt lat="45.786071" lon="10.0146301"><ele>453.0</ele><time>2026-04-24T16:29:21.334Z</time></trkpt><trkpt lat="45.7859916" lon="10.0147136"><ele>455.00000000000006</ele><time>2026-04-24T16:29:23.335Z</time></trkpt><trkpt lat="45.7859317" lon="10.0147549"><ele>457.0</ele><time>2026-04-24T16:29:25.332Z</time></trkpt><trkpt lat="45.7858942" lon="10.014841"><ele>457.00000000000006</ele><time>2026-04-24T16:29:27.334Z</time></trkpt><trkpt lat="45.7858096" lon="10.0149372"><ele>457.0</ele><time>2026-04-24T16:29:29.333Z</time></trkpt><trkpt lat="45.7857523" lon="10.0150318"><ele>457.0</ele><time>2026-04-24T16:29:31.333Z</time></trkpt><trkpt lat="45.7858377" lon="10.015071"><ele>457.0</ele><time>2026-04-24T16:29:36.333Z</time></trkpt><trkpt lat="45.7859065" lon="10.0150446"><ele>457.00000000000006</ele><time>2026-04-24T16:29:42.333Z</time></trkpt><trkpt lat="45.7859649" lon="10.0151439"><ele>457.0</ele><time>2026-04-24T16:29:45.334Z</time></trkpt><trkpt lat="45.7859989" lon="10.0152521"><ele>462.20000000000005</ele><time>2026-04-24T16:29:47.333Z</time></trkpt><trkpt lat="45.7860246" lon="10.0153624"><ele>467.40000000000003</ele><time>2026-04-24T16:29:49.335Z</time></trkpt><trkpt lat="45.7860797" lon="10.0154642"><ele>472.59999999999997</ele><time>2026-04-24T16:29:51.311Z</time></trkpt><trkpt lat="45.7861433" lon="10.0155385"><ele>477.79999999999995</ele><time>2026-04-24T16:29:53.358Z</time></trkpt><trkpt lat="45.7862514" lon="10.0156562"><ele>483.0</ele><time>2026-04-24T16:29:54.334Z</time></trkpt><trkpt lat="45.7863009" lon="10.0157431"><ele>485.4</ele><time>2026-04-24T16:29:55.334Z</time></trkpt><trkpt lat="45.7862575" lon="10.0159026"><ele>487.79999999999995</ele><time>2026-04-24T16:29:57.334Z</time></trkpt><trkpt lat="45.7862231" lon="10.01598"><ele>490.2</ele><time>2026-04-24T16:29:58.334Z</time></trkpt><trkpt lat="45.7862057" lon="10.0161336"><ele>492.6</ele><time>2026-04-24T16:30:00.333Z</time></trkpt><trkpt lat="45.7862129" lon="10.0163041"><ele>495.0</ele><time>2026-04-24T16:30:02.333Z</time></trkpt><trkpt lat="45.7861998" lon="10.0164697"><ele>495.0</ele><time>2026-04-24T16:30:04.332Z</time></trkpt><trkpt lat="45.7861931" lon="10.0166061"><ele>495.0</ele><time>2026-04-24T16:30:06.333Z</time></trkpt><trkpt lat="45.7862145" lon="10.0167481"><ele>495.0</ele><time>2026-04-24T16:30:08.334Z</time></trkpt><trkpt lat="45.786231" lon="10.0168995"><ele>495.0</ele><time>2026-04-24T16:30:10.333Z</time></trkpt><trkpt lat="45.7862933" lon="10.0169614"><ele>495.0</ele><time>2026-04-24T16:30:12.334Z</time></trkpt><trkpt lat="45.7863724" lon="10.0169777"><ele>497.0</ele><time>2026-04-24T16:30:14.333Z</time></trkpt><trkpt lat="45.7864473" lon="10.0169891"><ele>499.0</ele><time>2026-04-24T16:30:16.334Z</time></trkpt><trkpt lat="45.7865458" lon="10.0169528"><ele>501.0</ele><time>2026-04-24T16:30:18.333Z</time></trkpt><trkpt lat="45.7866594" lon="10.0168816"><ele>503.0</ele><time>2026-04-24T16:30:20.334Z</time></trkpt><trkpt lat="45.7867258" lon="10.0168585"><ele>505.0</ele><time>2026-04-24T16:30:21.334Z</time></trkpt><trkpt lat="45.7867969" lon="10.0168375"><ele>507.0</ele><time>2026-04-24T16:30:22.333Z</time></trkpt><trkpt lat="45.7868675" lon="10.0168003"><ele>510.25</ele><time>2026-04-24T16:30:23.334Z</time></trkpt><trkpt lat="45.7869802" lon="10.0167655"><ele>513.5</ele><time>2026-04-24T16:30:25.333Z</time></trkpt><trkpt lat="45.7870863" lon="10.0168088"><ele>516.75</ele><time>2026-04-24T16:30:27.334Z</time></trkpt><trkpt lat="45.7871797" lon="10.0168941"><ele>520.0</ele><time>2026-04-24T16:30:29.334Z</time></trkpt><trkpt lat="45.787266" lon="10.017033"><ele>520.0</ele><time>2026-04-24T16:30:31.334Z</time></trkpt><trkpt lat="45.7873081" lon="10.017123"><ele>520.0</ele><time>2026-04-24T16:30:32.333Z</time></trkpt><trkpt lat="45.7873507" lon="10.0171977"><ele>520.0</ele><time>2026-04-24T16:30:33.333Z</time></trkpt><trkpt lat="45.7874199" lon="10.0172639"><ele>520.0</ele><time>2026-04-24T16:30:35.335Z</time></trkpt><trkpt lat="45.7874804" lon="10.0173728"><ele>520.0</ele><time>2026-04-24T16:30:38.334Z</time></trkpt><trkpt lat="45.787507" lon="10.0175385"><ele>520.0</ele><time>2026-04-24T16:30:40.332Z</time></trkpt><trkpt lat="45.7875236" lon="10.0176488"><ele>521.6666666666667</ele><time>2026-04-24T16:30:41.332Z</time></trkpt><trkpt lat="45.7875493" lon="10.0177627"><ele>523.3333333333334</ele><time>2026-04-24T16:30:42.333Z</time></trkpt><trkpt lat="45.7875877" lon="10.0178797"><ele>525.0</ele><time>2026-04-24T16:30:43.333Z</time></trkpt><trkpt lat="45.7876213" lon="10.0180034"><ele>526.6666666666666</ele><time>2026-04-24T16:30:44.334Z</time></trkpt><trkpt lat="45.7876588" lon="10.0181136"><ele>528.3333333333333</ele><time>2026-04-24T16:30:45.334Z</time></trkpt><trkpt lat="45.7877141" lon="10.0182283"><ele>530.0</ele><time>2026-04-24T16:30:46.333Z</time></trkpt><trkpt lat="45.7877663" lon="10.0183514"><ele>532.4</ele><time>2026-04-24T16:30:47.334Z</time></trkpt><trkpt lat="45.7878145" lon="10.0184899"><ele>534.8</ele><time>2026-04-24T16:30:48.334Z</time></trkpt><trkpt lat="45.7878709" lon="10.018627"><ele>537.2</ele><time>2026-04-24T16:30:49.333Z</time></trkpt><trkpt lat="45.787934" lon="10.0187524"><ele>539.6</ele><time>2026-04-24T16:30:50.334Z</time></trkpt><trkpt lat="45.7880113" lon="10.0188863"><ele>542.0</ele><time>2026-04-24T16:30:51.333Z</time></trkpt><trkpt lat="45.7880777" lon="10.0189795"><ele>542.0</ele><time>2026-04-24T16:30:52.335Z</time></trkpt><trkpt lat="45.7881292" lon="10.0190845"><ele>542.0</ele><time>2026-04-24T16:30:53.334Z</time></trkpt><trkpt lat="45.7882119" lon="10.019156"><ele>542.0</ele><time>2026-04-24T16:30:54.333Z</time></trkpt><trkpt lat="45.7882901" lon="10.0192319"><ele>542.0</ele><time>2026-04-24T16:30:55.335Z</time></trkpt><trkpt lat="45.7883808" lon="10.0193234"><ele>542.0</ele><time>2026-04-24T16:30:56.333Z</time></trkpt><trkpt lat="45.788439" lon="10.0193759"><ele>543.6</ele><time>2026-04-24T16:30:57.334Z</time></trkpt><trkpt lat="45.7885051" lon="10.0194933"><ele>545.2</ele><time>2026-04-24T16:30:58.333Z</time></trkpt><trkpt lat="45.7885602" lon="10.0196177"><ele>546.8</ele><time>2026-04-24T16:30:59.334Z</time></trkpt><trkpt lat="45.788607" lon="10.0197453"><ele>548.4</ele><time>2026-04-24T16:31:00.334Z</time></trkpt><trkpt lat="45.7886409" lon="10.0199105"><ele>550.0</ele><time>2026-04-24T16:31:01.334Z</time></trkpt><trkpt lat="45.7886882" lon="10.0200616"><ele>553.75</ele><time>2026-04-24T16:31:02.334Z</time></trkpt><trkpt lat="45.7887478" lon="10.0202255"><ele>557.5</ele><time>2026-04-24T16:31:03.334Z</time></trkpt><trkpt lat="45.7888125" lon="10.0203656"><ele>561.25</ele><time>2026-04-24T16:31:04.332Z</time></trkpt><trkpt lat="45.7888987" lon="10.0205513"><ele>565.0</ele><time>2026-04-24T16:31:05.333Z</time></trkpt><trkpt lat="45.7889719" lon="10.0207084"><ele>566.25</ele><time>2026-04-24T16:31:06.333Z</time></trkpt><trkpt lat="45.7890488" lon="10.0208379"><ele>567.5</ele><time>2026-04-24T16:31:07.333Z</time></trkpt><trkpt lat="45.7891368" lon="10.0209844"><ele>568.75</ele><time>2026-04-24T16:31:08.333Z</time></trkpt><trkpt lat="45.7892228" lon="10.0210852"><ele>570.0</ele><time>2026-04-24T16:31:09.333Z</time></trkpt><trkpt lat="45.7892911" lon="10.0212348"><ele>572.2</ele><time>2026-04-24T16:31:10.333Z</time></trkpt><trkpt lat="45.7893795" lon="10.0213182"><ele>574.4</ele><time>2026-04-24T16:31:11.333Z</time></trkpt><trkpt lat="45.7894594" lon="10.0214097"><ele>576.6</ele><time>2026-04-24T16:31:12.333Z</time></trkpt><trkpt lat="45.7895307" lon="10.0214709"><ele>578.8</ele><time>2026-04-24T16:31:13.334Z</time></trkpt><trkpt lat="45.7895875" lon="10.0215458"><ele>581.0</ele><time>2026-04-24T16:31:14.333Z</time></trkpt><trkpt lat="45.7896529" lon="10.0216353"><ele>580.8333333333333</ele><time>2026-04-24T16:31:15.334Z</time></trkpt><trkpt lat="45.7897169" lon="10.0217641"><ele>580.6666666666666</ele><time>2026-04-24T16:31:16.334Z</time></trkpt><trkpt lat="45.7897648" lon="10.02187"><ele>580.5</ele><time>2026-04-24T16:31:17.334Z</time></trkpt><trkpt lat="45.789798" lon="10.0219487"><ele>580.3333333333334</ele><time>2026-04-24T16:31:18.333Z</time></trkpt><trkpt lat="45.7898419" lon="10.0220263"><ele>580.1666666666667</ele><time>2026-04-24T16:31:19.334Z</time></trkpt><trkpt lat="45.7898804" lon="10.0221602"><ele>580.0</ele><time>2026-04-24T16:31:21.335Z</time></trkpt><trkpt lat="45.7899189" lon="10.0223081"><ele>580.0</ele><time>2026-04-24T16:31:23.335Z</time></trkpt><trkpt lat="45.789948" lon="10.0224557"><ele>580.0</ele><time>2026-04-24T16:31:25.335Z</time></trkpt><trkpt lat="45.7899622" lon="10.0226545"><ele>580.0</ele><time>2026-04-24T16:31:27.333Z</time></trkpt><trkpt lat="45.7899551" lon="10.0227785"><ele>580.0</ele><time>2026-04-24T16:31:28.334Z</time></trkpt><trkpt lat="45.7899431" lon="10.0229092"><ele>580.0</ele><time>2026-04-24T16:31:29.333Z</time></trkpt><trkpt lat="45.7899235" lon="10.023044"><ele>580.0</ele><time>2026-04-24T16:31:30.333Z</time></trkpt><trkpt lat="45.7899055" lon="10.023182"><ele>580.0</ele><time>2026-04-24T16:31:31.333Z</time></trkpt><trkpt lat="45.7898897" lon="10.0233243"><ele>580.0</ele><time>2026-04-24T16:31:32.334Z</time></trkpt><trkpt lat="45.789869" lon="10.0234682"><ele>580.0</ele><time>2026-04-24T16:31:33.333Z</time></trkpt><trkpt lat="45.7898506" lon="10.0236126"><ele>580.0</ele><time>2026-04-24T16:31:34.333Z</time></trkpt><trkpt lat="45.7898381" lon="10.0237618"><ele>579.8</ele><time>2026-04-24T16:31:35.334Z</time></trkpt><trkpt lat="45.7898348" lon="10.023917"><ele>579.6</ele><time>2026-04-24T16:31:36.334Z</time></trkpt><trkpt lat="45.7898191" lon="10.0240549"><ele>579.4</ele><time>2026-04-24T16:31:37.333Z</time></trkpt><trkpt lat="45.789799" lon="10.0241788"><ele>579.2</ele><time>2026-04-24T16:31:38.333Z</time></trkpt><trkpt lat="45.7897859" lon="10.0242908"><ele>579.0</ele><time>2026-04-24T16:31:39.334Z</time></trkpt><trkpt lat="45.7897691" lon="10.0244051"><ele>579.0</ele><time>2026-04-24T16:31:40.333Z</time></trkpt><trkpt lat="45.7897624" lon="10.0245073"><ele>579.0</ele><time>2026-04-24T16:31:41.333Z</time></trkpt><trkpt lat="45.789738" lon="10.0246071"><ele>579.0</ele><time>2026-04-24T16:31:42.333Z</time></trkpt><trkpt lat="45.7897317" lon="10.0247241"><ele>579.0</ele><time>2026-04-24T16:31:43.334Z</time></trkpt><trkpt lat="45.7896934" lon="10.024821"><ele>579.0</ele><time>2026-04-24T16:31:44.333Z</time></trkpt><trkpt lat="45.7896754" lon="10.0249186"><ele>579.0</ele><time>2026-04-24T16:31:45.333Z</time></trkpt><trkpt lat="45.7896814" lon="10.0250583"><ele>579.1428571428571</ele><time>2026-04-24T16:31:47.334Z</time></trkpt><trkpt lat="45.7897132" lon="10.0251488"><ele>579.2857142857142</ele><time>2026-04-24T16:31:48.332Z</time></trkpt><trkpt lat="45.7897399" lon="10.0252493"><ele>579.4285714285714</ele><time>2026-04-24T16:31:49.333Z</time></trkpt><trkpt lat="45.78976" lon="10.0253414"><ele>579.5714285714286</ele><time>2026-04-24T16:31:50.332Z</time></trkpt><trkpt lat="45.7897853" lon="10.0254273"><ele>579.7142857142858</ele><time>2026-04-24T16:31:51.333Z</time></trkpt><trkpt lat="45.7897179" lon="10.0255373"><ele>579.8571428571429</ele><time>2026-04-24T16:31:53.333Z</time></trkpt><trkpt lat="45.7896644" lon="10.0255991"><ele>580.0</ele><time>2026-04-24T16:31:55.334Z</time></trkpt><trkpt lat="45.7896653" lon="10.025744"><ele>580.5</ele><time>2026-04-24T16:31:57.334Z</time></trkpt><trkpt lat="45.7896275" lon="10.025889"><ele>581.0</ele><time>2026-04-24T16:31:59.334Z</time></trkpt><trkpt lat="45.7896145" lon="10.0259807"><ele>581.5</ele><time>2026-04-24T16:32:02.334Z</time></trkpt><trkpt lat="45.7896805" lon="10.0261073"><ele>582.0</ele><time>2026-04-24T16:32:06.334Z</time></trkpt><trkpt lat="45.7897288" lon="10.0261664"><ele>582.5</ele><time>2026-04-24T16:32:07.334Z</time></trkpt><trkpt lat="45.7897785" lon="10.0262358"><ele>583.0</ele><time>2026-04-24T16:32:08.334Z</time></trkpt><trkpt lat="45.7898342" lon="10.0263021"><ele>583.0</ele><time>2026-04-24T16:32:09.334Z</time></trkpt><trkpt lat="45.78989" lon="10.0263707"><ele>583.0</ele><time>2026-04-24T16:32:10.334Z</time></trkpt><trkpt lat="45.7899351" lon="10.0264628"><ele>583.0</ele><time>2026-04-24T16:32:11.334Z</time></trkpt><trkpt lat="45.7899653" lon="10.0265885"><ele>583.0</ele><time>2026-04-24T16:32:12.335Z</time></trkpt><trkpt lat="45.7899906" lon="10.0266911"><ele>583.0</ele><time>2026-04-24T16:32:13.332Z</time></trkpt><trkpt lat="45.7900123" lon="10.0267964"><ele>583.0</ele><time>2026-04-24T16:32:14.334Z</time></trkpt><trkpt lat="45.7900488" lon="10.0269039"><ele>582.8333333333334</ele><time>2026-04-24T16:32:15.333Z</time></trkpt><trkpt lat="45.7900723" lon="10.027011"><ele>582.6666666666667</ele><time>2026-04-24T16:32:16.334Z</time></trkpt><trkpt lat="45.790093" lon="10.0271301"><ele>582.5</ele><time>2026-04-24T16:32:17.334Z</time></trkpt><trkpt lat="45.7901017" lon="10.0272577"><ele>582.3333333333334</ele><time>2026-04-24T16:32:18.333Z</time></trkpt><trkpt lat="45.790108" lon="10.0273732"><ele>582.1666666666666</ele><time>2026-04-24T16:32:19.335Z</time></trkpt><trkpt lat="45.7901191" lon="10.0274759"><ele>582.0</ele><time>2026-04-24T16:32:20.334Z</time></trkpt><trkpt lat="45.7901202" lon="10.0275676"><ele>582.2857142857142</ele><time>2026-04-24T16:32:21.333Z</time></trkpt><trkpt lat="45.7901238" lon="10.0276658"><ele>582.5714285714286</ele><time>2026-04-24T16:32:22.333Z</time></trkpt><trkpt lat="45.790139" lon="10.0277737"><ele>582.8571428571429</ele><time>2026-04-24T16:32:23.333Z</time></trkpt><trkpt lat="45.7901511" lon="10.0278726"><ele>583.1428571428571</ele><time>2026-04-24T16:32:24.333Z</time></trkpt><trkpt lat="45.7901672" lon="10.0279687"><ele>583.4285714285714</ele><time>2026-04-24T16:32:25.333Z</time></trkpt><trkpt lat="45.7901781" lon="10.0280732"><ele>583.7142857142857</ele><time>2026-04-24T16:32:26.333Z</time></trkpt><trkpt lat="45.7902028" lon="10.0281665"><ele>584.0</ele><time>2026-04-24T16:32:27.334Z</time></trkpt><trkpt lat="45.7902175" lon="10.0282627"><ele>585.5714285714286</ele><time>2026-04-24T16:32:28.333Z</time></trkpt><trkpt lat="45.7902405" lon="10.028354"><ele>587.1428571428571</ele><time>2026-04-24T16:32:29.334Z</time></trkpt><trkpt lat="45.7903004" lon="10.0284123"><ele>588.7142857142858</ele><time>2026-04-24T16:32:30.332Z</time></trkpt><trkpt lat="45.7903723" lon="10.0284567"><ele>590.2857142857142</ele><time>2026-04-24T16:32:31.333Z</time></trkpt><trkpt lat="45.7904377" lon="10.0284973"><ele>591.8571428571429</ele><time>2026-04-24T16:32:32.334Z</time></trkpt><trkpt lat="45.790509" lon="10.0285246"><ele>593.4285714285714</ele><time>2026-04-24T16:32:33.333Z</time></trkpt><trkpt lat="45.7905776" lon="10.0285521"><ele>595.0</ele><time>2026-04-24T16:32:34.334Z</time></trkpt><trkpt lat="45.7906448" lon="10.0285858"><ele>595.0</ele><time>2026-04-24T16:32:35.334Z</time></trkpt><trkpt lat="45.7906948" lon="10.0286586"><ele>595.0</ele><time>2026-04-24T16:32:36.334Z</time></trkpt><trkpt lat="45.7907425" lon="10.0287247"><ele>595.0</ele><time>2026-04-24T16:32:37.333Z</time></trkpt><trkpt lat="45.7907813" lon="10.0288026"><ele>595.0</ele><time>2026-04-24T16:32:38.333Z</time></trkpt><trkpt lat="45.7908267" lon="10.0288825"><ele>595.0</ele><time>2026-04-24T16:32:39.335Z</time></trkpt><trkpt lat="45.7908746" lon="10.0289542"><ele>595.0</ele><time>2026-04-24T16:32:40.333Z</time></trkpt><trkpt lat="45.7909199" lon="10.0290265"><ele>595.0</ele><time>2026-04-24T16:32:41.334Z</time></trkpt><trkpt lat="45.7909643" lon="10.0291026"><ele>596.5</ele><time>2026-04-24T16:32:42.333Z</time></trkpt><trkpt lat="45.7910256" lon="10.0291598"><ele>598.0</ele><time>2026-04-24T16:32:43.334Z</time></trkpt><trkpt lat="45.7911498" lon="10.0291965"><ele>599.5</ele><time>2026-04-24T16:32:45.334Z</time></trkpt><trkpt lat="45.7912109" lon="10.029228"><ele>601.0</ele><time>2026-04-24T16:32:46.333Z</time></trkpt><trkpt lat="45.7912772" lon="10.0292708"><ele>602.5</ele><time>2026-04-24T16:32:47.334Z</time></trkpt><trkpt lat="45.7913316" lon="10.0293315"><ele>604.0</ele><time>2026-04-24T16:32:48.334Z</time></trkpt><trkpt lat="45.7914353" lon="10.0294476"><ele>604.0</ele><time>2026-04-24T16:32:50.333Z</time></trkpt><trkpt lat="45.7914955" lon="10.0295075"><ele>604.0</ele><time>2026-04-24T16:32:51.334Z</time></trkpt><trkpt lat="45.7915643" lon="10.0295543"><ele>604.0</ele><time>2026-04-24T16:32:52.334Z</time></trkpt><trkpt lat="45.7916338" lon="10.0295897"><ele>604.0</ele><time>2026-04-24T16:32:53.334Z</time></trkpt><trkpt lat="45.7917103" lon="10.0296049"><ele>604.0</ele><time>2026-04-24T16:32:54.333Z</time></trkpt><trkpt lat="45.7917924" lon="10.0296127"><ele>604.0</ele><time>2026-04-24T16:32:55.334Z</time></trkpt><trkpt lat="45.7918663" lon="10.0295806"><ele>604.5</ele><time>2026-04-24T16:32:56.332Z</time></trkpt><trkpt lat="45.7919415" lon="10.0295718"><ele>605.0</ele><time>2026-04-24T16:32:57.332Z</time></trkpt><trkpt lat="45.7920152" lon="10.0295476"><ele>605.5</ele><time>2026-04-24T16:32:58.334Z</time></trkpt><trkpt lat="45.7920905" lon="10.0295244"><ele>606.0</ele><time>2026-04-24T16:32:59.334Z</time></trkpt><trkpt lat="45.7921572" lon="10.0294901"><ele>606.5</ele><time>2026-04-24T16:33:00.333Z</time></trkpt><trkpt lat="45.7922702" lon="10.0294261"><ele>607.0</ele><time>2026-04-24T16:33:02.332Z</time></trkpt><trkpt lat="45.7923336" lon="10.0294132"><ele>607.0</ele><time>2026-04-24T16:33:03.335Z</time></trkpt><trkpt lat="45.7924133" lon="10.0293394"><ele>607.0</ele><time>2026-04-24T16:33:05.334Z</time></trkpt><trkpt lat="45.7924993" lon="10.0292725"><ele>607.0</ele><time>2026-04-24T16:33:07.332Z</time></trkpt><trkpt lat="45.7926036" lon="10.0292162"><ele>607.0</ele><time>2026-04-24T16:33:09.334Z</time></trkpt><trkpt lat="45.7926496" lon="10.0291492"><ele>607.0</ele><time>2026-04-24T16:33:10.332Z</time></trkpt><trkpt lat="45.7926957" lon="10.0290868"><ele>607.0</ele><time>2026-04-24T16:33:11.334Z</time></trkpt><trkpt lat="45.7927409" lon="10.0290191"><ele>609.0</ele><time>2026-04-24T16:33:12.333Z</time></trkpt><trkpt lat="45.7927872" lon="10.0289558"><ele>611.0</ele><time>2026-04-24T16:33:13.332Z</time></trkpt><trkpt lat="45.7928278" lon="10.0288664"><ele>613.0</ele><time>2026-04-24T16:33:14.333Z</time></trkpt><trkpt lat="45.7928606" lon="10.028767"><ele>615.0</ele><time>2026-04-24T16:33:15.333Z</time></trkpt><trkpt lat="45.7928853" lon="10.0286836"><ele>617.0</ele><time>2026-04-24T16:33:16.334Z</time></trkpt><trkpt lat="45.7929192" lon="10.0286042"><ele>619.0</ele><time>2026-04-24T16:33:17.334Z</time></trkpt><trkpt lat="45.7929991" lon="10.0284643"><ele>619.0</ele><time>2026-04-24T16:33:19.332Z</time></trkpt><trkpt lat="45.7930357" lon="10.0283767"><ele>619.0</ele><time>2026-04-24T16:33:20.334Z</time></trkpt><trkpt lat="45.7930629" lon="10.0282882"><ele>619.0</ele><time>2026-04-24T16:33:21.334Z</time></trkpt><trkpt lat="45.7930979" lon="10.0281987"><ele>619.0</ele><time>2026-04-24T16:33:22.333Z</time></trkpt><trkpt lat="45.7931927" lon="10.0280831"><ele>619.0</ele><time>2026-04-24T16:33:24.334Z</time></trkpt><trkpt lat="45.7932474" lon="10.0280269"><ele>619.0</ele><time>2026-04-24T16:33:25.335Z</time></trkpt><trkpt lat="45.7933329" lon="10.0279583"><ele>621.0</ele><time>2026-04-24T16:33:27.333Z</time></trkpt><trkpt lat="45.793426" lon="10.027888"><ele>623.0</ele><time>2026-04-24T16:33:29.332Z</time></trkpt><trkpt lat="45.7935015" lon="10.0278678"><ele>625.0</ele><time>2026-04-24T16:33:31.333Z</time></trkpt><trkpt lat="45.7935973" lon="10.0278652"><ele>627.0</ele><time>2026-04-24T16:33:33.333Z</time></trkpt><trkpt lat="45.7936898" lon="10.0278347"><ele>629.0</ele><time>2026-04-24T16:33:35.333Z</time></trkpt><trkpt lat="45.7937735" lon="10.027801"><ele>632.8</ele><time>2026-04-24T16:33:37.334Z</time></trkpt><trkpt lat="45.7938693" lon="10.0278091"><ele>636.5999999999999</ele><time>2026-04-24T16:33:39.334Z</time></trkpt><trkpt lat="45.793942" lon="10.0278313"><ele>640.4</ele><time>2026-04-24T16:33:41.334Z</time></trkpt><trkpt lat="45.7940122" lon="10.0279073"><ele>644.1999999999999</ele><time>2026-04-24T16:33:43.333Z</time></trkpt><trkpt lat="45.7941209" lon="10.0279629"><ele>648.0</ele><time>2026-04-24T16:33:45.334Z</time></trkpt><trkpt lat="45.794203" lon="10.0280128"><ele>648.0</ele><time>2026-04-24T16:33:47.332Z</time></trkpt><trkpt lat="45.794301" lon="10.0281151"><ele>648.0</ele><time>2026-04-24T16:33:49.334Z</time></trkpt><trkpt lat="45.7943487" lon="10.0281852"><ele>648.0</ele><time>2026-04-24T16:33:50.333Z</time></trkpt><trkpt lat="45.7944273" lon="10.0282911"><ele>648.0</ele><time>2026-04-24T16:33:52.332Z</time></trkpt><trkpt lat="45.7945011" lon="10.0284039"><ele>648.0</ele><time>2026-04-24T16:33:54.333Z</time></trkpt><trkpt lat="45.7945779" lon="10.028508"><ele>651.8</ele><time>2026-04-24T16:33:56.333Z</time></trkpt><trkpt lat="45.7946624" lon="10.0286144"><ele>655.5999999999999</ele><time>2026-04-24T16:33:58.334Z</time></trkpt><trkpt lat="45.7947378" lon="10.0287203"><ele>659.4000000000001</ele><time>2026-04-24T16:34:00.332Z</time></trkpt><trkpt lat="45.7948183" lon="10.0288185"><ele>663.2</ele><time>2026-04-24T16:34:02.334Z</time></trkpt><trkpt lat="45.7948846" lon="10.0288933"><ele>667.0</ele><time>2026-04-24T16:34:04.333Z</time></trkpt><trkpt lat="45.7949541" lon="10.0289814"><ele>667.0</ele><time>2026-04-24T16:34:06.334Z</time></trkpt><trkpt lat="45.7950076" lon="10.0290736"><ele>667.0</ele><time>2026-04-24T16:34:08.334Z</time></trkpt><trkpt lat="45.7950106" lon="10.0292034"><ele>667.0</ele><time>2026-04-24T16:34:10.333Z</time></trkpt><trkpt lat="45.7950247" lon="10.0293458"><ele>667.0</ele><time>2026-04-24T16:34:12.334Z</time></trkpt><trkpt lat="45.7950542" lon="10.0294788"><ele>667.0</ele><time>2026-04-24T16:34:14.333Z</time></trkpt><trkpt lat="45.79509" lon="10.0295551"><ele>667.0</ele><time>2026-04-24T16:34:16.332Z</time></trkpt><trkpt lat="45.7951419" lon="10.0296129"><ele>666.1428571428572</ele><time>2026-04-24T16:34:18.332Z</time></trkpt><trkpt lat="45.7951902" lon="10.029688"><ele>665.2857142857143</ele><time>2026-04-24T16:34:20.335Z</time></trkpt><trkpt lat="45.7952576" lon="10.0297451"><ele>664.4285714285714</ele><time>2026-04-24T16:34:22.334Z</time></trkpt><trkpt lat="45.7953323" lon="10.0298052"><ele>663.5714285714287</ele><time>2026-04-24T16:34:24.334Z</time></trkpt><trkpt lat="45.7953891" lon="10.0298475"><ele>662.7142857142858</ele><time>2026-04-24T16:34:26.333Z</time></trkpt><trkpt lat="45.7954636" lon="10.0298914"><ele>661.8571428571429</ele><time>2026-04-24T16:34:29.334Z</time></trkpt><trkpt lat="45.7955179" lon="10.0299466"><ele>661.0</ele><time>2026-04-24T16:34:31.333Z</time></trkpt><trkpt lat="45.7955692" lon="10.0300327"><ele>661.0</ele><time>2026-04-24T16:34:32.333Z</time></trkpt><trkpt lat="45.7956329" lon="10.0301953"><ele>661.0</ele><time>2026-04-24T16:34:34.332Z</time></trkpt><trkpt lat="45.7956752" lon="10.0303082"><ele>661.0</ele><time>2026-04-24T16:34:35.333Z</time></trkpt><trkpt lat="45.7957171" lon="10.0304196"><ele>661.0</ele><time>2026-04-24T16:34:36.333Z</time></trkpt><trkpt lat="45.7957428" lon="10.0305154"><ele>661.0</ele><time>2026-04-24T16:34:37.334Z</time></trkpt><trkpt lat="45.7957693" lon="10.0306289"><ele>659.1999999999999</ele><time>2026-04-24T16:34:38.333Z</time></trkpt><trkpt lat="45.7957692" lon="10.0308188"><ele>657.4</ele><time>2026-04-24T16:34:40.333Z</time></trkpt><trkpt lat="45.7957679" lon="10.0309152"><ele>655.6</ele><time>2026-04-24T16:34:41.334Z</time></trkpt><trkpt lat="45.7957149" lon="10.0310563"><ele>653.8</ele><time>2026-04-24T16:34:43.334Z</time></trkpt><trkpt lat="45.7956854" lon="10.0311536"><ele>652.0</ele><time>2026-04-24T16:34:44.332Z</time></trkpt><trkpt lat="45.7956632" lon="10.0312638"><ele>652.0</ele><time>2026-04-24T16:34:45.333Z</time></trkpt><trkpt lat="45.79562" lon="10.0313692"><ele>652.0</ele><time>2026-04-24T16:34:46.334Z</time></trkpt><trkpt lat="45.795591" lon="10.0314726"><ele>652.0</ele><time>2026-04-24T16:34:47.333Z</time></trkpt><trkpt lat="45.7955703" lon="10.0316125"><ele>652.0</ele><time>2026-04-24T16:34:49.333Z</time></trkpt><trkpt lat="45.7956396" lon="10.0317735"><ele>652.0</ele><time>2026-04-24T16:34:51.335Z</time></trkpt><trkpt lat="45.7956581" lon="10.0318615"><ele>653.4000000000001</ele><time>2026-04-24T16:34:52.332Z</time></trkpt><trkpt lat="45.795596" lon="10.0320243"><ele>654.8000000000001</ele><time>2026-04-24T16:34:54.332Z</time></trkpt><trkpt lat="45.7955741" lon="10.0321431"><ele>656.2</ele><time>2026-04-24T16:34:56.333Z</time></trkpt><trkpt lat="45.7956311" lon="10.0320498"><ele>657.6</ele><time>2026-04-24T16:34:59.333Z</time></trkpt><trkpt lat="45.7956846" lon="10.0319604"><ele>659.0</ele><time>2026-04-24T16:35:00.333Z</time></trkpt><trkpt lat="45.7957823" lon="10.0318573"><ele>659.0</ele><time>2026-04-24T16:35:01.333Z</time></trkpt><trkpt lat="45.7958742" lon="10.0317644"><ele>659.0</ele><time>2026-04-24T16:35:02.333Z</time></trkpt><trkpt lat="45.7959699" lon="10.0317086"><ele>659.0</ele><time>2026-04-24T16:35:03.333Z</time></trkpt><trkpt lat="45.7960326" lon="10.0316657"><ele>659.0</ele><time>2026-04-24T16:35:04.333Z</time></trkpt><trkpt lat="45.7961861" lon="10.0317157"><ele>659.0</ele><time>2026-04-24T16:35:06.332Z</time></trkpt><trkpt lat="45.7962672" lon="10.0317455"><ele>660.6666666666666</ele><time>2026-04-24T16:35:07.333Z</time></trkpt><trkpt lat="45.7963346" lon="10.0317532"><ele>662.3333333333333</ele><time>2026-04-24T16:35:08.333Z</time></trkpt><trkpt lat="45.7964345" lon="10.0316922"><ele>664.0</ele><time>2026-04-24T16:35:10.333Z</time></trkpt><trkpt lat="45.7965" lon="10.0316351"><ele>665.6666666666666</ele><time>2026-04-24T16:35:11.333Z</time></trkpt><trkpt lat="45.7965797" lon="10.0315796"><ele>667.3333333333334</ele><time>2026-04-24T16:35:12.333Z</time></trkpt><trkpt lat="45.7966657" lon="10.0314906"><ele>669.0</ele><time>2026-04-24T16:35:13.333Z</time></trkpt><trkpt lat="45.7967482" lon="10.0314198"><ele>669.0</ele><time>2026-04-24T16:35:14.334Z</time></trkpt><trkpt lat="45.7968315" lon="10.0313523"><ele>669.0</ele><time>2026-04-24T16:35:15.334Z</time></trkpt><trkpt lat="45.7969298" lon="10.0312766"><ele>669.0</ele><time>2026-04-24T16:35:16.333Z</time></trkpt><trkpt lat="45.7970217" lon="10.0312096"><ele>669.0</ele><time>2026-04-24T16:35:17.333Z</time></trkpt><trkpt lat="45.797108" lon="10.0311355"><ele>669.0</ele><time>2026-04-24T16:35:18.334Z</time></trkpt><trkpt lat="45.7971688" lon="10.0310859"><ele>670.0</ele><time>2026-04-24T16:35:19.334Z</time></trkpt><trkpt lat="45.7972174" lon="10.0310059"><ele>671.0</ele><time>2026-04-24T16:35:20.334Z</time></trkpt><trkpt lat="45.7972751" lon="10.0309633"><ele>672.0</ele><time>2026-04-24T16:35:22.333Z</time></trkpt><trkpt lat="45.7973224" lon="10.0310387"><ele>673.0</ele><time>2026-04-24T16:35:23.334Z</time></trkpt><trkpt lat="45.7973746" lon="10.0311883"><ele>674.0</ele><time>2026-04-24T16:35:25.335Z</time></trkpt><trkpt lat="45.797474" lon="10.0312876"><ele>675.0</ele><time>2026-04-24T16:35:27.332Z</time></trkpt><trkpt lat="45.797559" lon="10.0313157"><ele>675.0</ele><time>2026-04-24T16:35:28.334Z</time></trkpt><trkpt lat="45.7976477" lon="10.0313466"><ele>675.0</ele><time>2026-04-24T16:35:29.332Z</time></trkpt><trkpt lat="45.7977221" lon="10.031394"><ele>675.0</ele><time>2026-04-24T16:35:30.333Z</time></trkpt><trkpt lat="45.7978255" lon="10.0314695"><ele>675.0</ele><time>2026-04-24T16:35:32.333Z</time></trkpt><trkpt lat="45.7978537" lon="10.0316275"><ele>675.0</ele><time>2026-04-24T16:35:34.334Z</time></trkpt><trkpt lat="45.7978283" lon="10.0317148"><ele>678.2</ele><time>2026-04-24T16:35:35.333Z</time></trkpt><trkpt lat="45.7977634" lon="10.0318142"><ele>681.4</ele><time>2026-04-24T16:35:36.333Z</time></trkpt><trkpt lat="45.7977213" lon="10.0319331"><ele>684.5999999999999</ele><time>2026-04-24T16:35:37.335Z</time></trkpt><trkpt lat="45.7977024" lon="10.0320298"><ele>687.8</ele><time>2026-04-24T16:35:38.334Z</time></trkpt><trkpt lat="45.7976934" lon="10.0321345"><ele>691.0</ele><time>2026-04-24T16:35:39.335Z</time></trkpt><trkpt lat="45.797656" lon="10.0323229"><ele>691.0</ele><time>2026-04-24T16:35:41.334Z</time></trkpt><trkpt lat="45.7976012" lon="10.0324208"><ele>691.0</ele><time>2026-04-24T16:35:42.334Z</time></trkpt><trkpt lat="45.7975445" lon="10.0325163"><ele>691.0</ele><time>2026-04-24T16:35:43.334Z</time></trkpt><trkpt lat="45.7974861" lon="10.0326278"><ele>691.0</ele><time>2026-04-24T16:35:44.332Z</time></trkpt><trkpt lat="45.7974282" lon="10.0327524"><ele>691.0</ele><time>2026-04-24T16:35:45.334Z</time></trkpt><trkpt lat="45.7973521" lon="10.0329291"><ele>693.4</ele><time>2026-04-24T16:35:47.333Z</time></trkpt><trkpt lat="45.7973343" lon="10.0330874"><ele>695.8</ele><time>2026-04-24T16:35:48.334Z</time></trkpt><trkpt lat="45.7973204" lon="10.0332236"><ele>698.1999999999999</ele><time>2026-04-24T16:35:49.332Z</time></trkpt><trkpt lat="45.7973134" lon="10.0333736"><ele>700.5999999999999</ele><time>2026-04-24T16:35:50.334Z</time></trkpt><trkpt lat="45.7972852" lon="10.0334783"><ele>703.0</ele><time>2026-04-24T16:35:51.333Z</time></trkpt><trkpt lat="45.797297" lon="10.0336485"><ele>705.8</ele><time>2026-04-24T16:35:53.332Z</time></trkpt><trkpt lat="45.7972963" lon="10.0338118"><ele>708.5999999999999</ele><time>2026-04-24T16:35:55.334Z</time></trkpt><trkpt lat="45.7972559" lon="10.0339043"><ele>711.4000000000001</ele><time>2026-04-24T16:35:56.334Z</time></trkpt><trkpt lat="45.7971961" lon="10.034008"><ele>714.2</ele><time>2026-04-24T16:35:57.334Z</time></trkpt><trkpt lat="45.7971351" lon="10.0340945"><ele>717.0</ele><time>2026-04-24T16:35:58.334Z</time></trkpt><trkpt lat="45.7970773" lon="10.0342158"><ele>713.6</ele><time>2026-04-24T16:35:59.333Z</time></trkpt><trkpt lat="45.7970226" lon="10.0343251"><ele>710.2</ele><time>2026-04-24T16:36:00.333Z</time></trkpt><trkpt lat="45.7969647" lon="10.0344347"><ele>706.8</ele><time>2026-04-24T16:36:01.332Z</time></trkpt><trkpt lat="45.7968969" lon="10.0345538"><ele>703.4</ele><time>2026-04-24T16:36:02.334Z</time></trkpt><trkpt lat="45.7968612" lon="10.0346672"><ele>700.0</ele><time>2026-04-24T16:36:03.333Z</time></trkpt><trkpt lat="45.7968324" lon="10.0347827"><ele>700.0</ele><time>2026-04-24T16:36:04.334Z</time></trkpt><trkpt lat="45.7967845" lon="10.0348736"><ele>700.0</ele><time>2026-04-24T16:36:05.332Z</time></trkpt><trkpt lat="45.7967516" lon="10.0349531"><ele>700.0</ele><time>2026-04-24T16:36:06.334Z</time></trkpt><trkpt lat="45.7967148" lon="10.0350328"><ele>700.0</ele><time>2026-04-24T16:36:07.334Z</time></trkpt><trkpt lat="45.7966929" lon="10.0351222"><ele>700.0</ele><time>2026-04-24T16:36:08.333Z</time></trkpt><trkpt lat="45.7966798" lon="10.035286"><ele>700.0</ele><time>2026-04-24T16:36:10.334Z</time></trkpt><trkpt lat="45.7967033" lon="10.0353767"><ele>702.4</ele><time>2026-04-24T16:36:11.334Z</time></trkpt><trkpt lat="45.7967414" lon="10.0354679"><ele>704.8</ele><time>2026-04-24T16:36:12.334Z</time></trkpt><trkpt lat="45.796747" lon="10.035584"><ele>707.2</ele><time>2026-04-24T16:36:14.333Z</time></trkpt><trkpt lat="45.7967651" lon="10.0357403"><ele>709.6</ele><time>2026-04-24T16:36:16.334Z</time></trkpt><trkpt lat="45.7967644" lon="10.0359221"><ele>712.0</ele><time>2026-04-24T16:36:18.335Z</time></trkpt><trkpt lat="45.79675" lon="10.0360166"><ele>712.6666666666667</ele><time>2026-04-24T16:36:19.334Z</time></trkpt><trkpt lat="45.7967323" lon="10.0361715"><ele>713.3333333333334</ele><time>2026-04-24T16:36:21.334Z</time></trkpt><trkpt lat="45.7967443" lon="10.036261"><ele>714.0</ele><time>2026-04-24T16:36:22.333Z</time></trkpt><trkpt lat="45.7967962" lon="10.0363897"><ele>714.6666666666666</ele><time>2026-04-24T16:36:24.333Z</time></trkpt><trkpt lat="45.7968558" lon="10.0364377"><ele>715.3333333333333</ele><time>2026-04-24T16:36:25.333Z</time></trkpt><trkpt lat="45.7969358" lon="10.0364802"><ele>716.0</ele><time>2026-04-24T16:36:26.332Z</time></trkpt><trkpt lat="45.7970215" lon="10.0365303"><ele>721.1666666666666</ele><time>2026-04-24T16:36:27.334Z</time></trkpt><trkpt lat="45.7970908" lon="10.0365711"><ele>726.3333333333333</ele><time>2026-04-24T16:36:28.332Z</time></trkpt><trkpt lat="45.7971495" lon="10.0366373"><ele>731.5</ele><time>2026-04-24T16:36:29.333Z</time></trkpt><trkpt lat="45.7971953" lon="10.0367015"><ele>736.6666666666666</ele><time>2026-04-24T16:36:30.334Z</time></trkpt><trkpt lat="45.7972039" lon="10.0369038"><ele>741.8333333333334</ele><time>2026-04-24T16:36:32.334Z</time></trkpt><trkpt lat="45.7972249" lon="10.0369971"><ele>747.0</ele><time>2026-04-24T16:36:33.333Z</time></trkpt><trkpt lat="45.7972515" lon="10.0371711"><ele>747.0</ele><time>2026-04-24T16:36:35.333Z</time></trkpt><trkpt lat="45.7972742" lon="10.0373206"><ele>747.0</ele><time>2026-04-24T16:36:37.333Z</time></trkpt><trkpt lat="45.7973099" lon="10.037456"><ele>747.0</ele><time>2026-04-24T16:36:39.333Z</time></trkpt><trkpt lat="45.7973647" lon="10.0375427"><ele>747.0</ele><time>2026-04-24T16:36:41.334Z</time></trkpt><trkpt lat="45.7974639" lon="10.0375748"><ele>747.0</ele><time>2026-04-24T16:36:43.333Z</time></trkpt><trkpt lat="45.7975861" lon="10.03764"><ele>745.2</ele><time>2026-04-24T16:36:45.333Z</time></trkpt><trkpt lat="45.7976506" lon="10.0376659"><ele>743.4000000000001</ele><time>2026-04-24T16:36:46.335Z</time></trkpt><trkpt lat="45.7977415" lon="10.0377252"><ele>741.5999999999999</ele><time>2026-04-24T16:36:48.335Z</time></trkpt><trkpt lat="45.7978043" lon="10.0378211"><ele>739.8</ele><time>2026-04-24T16:36:50.332Z</time></trkpt><trkpt lat="45.7978599" lon="10.0379682"><ele>738.0</ele><time>2026-04-24T16:36:52.334Z</time></trkpt><trkpt lat="45.7979466" lon="10.0380888"><ele>738.0</ele><time>2026-04-24T16:36:54.333Z</time></trkpt><trkpt lat="45.7980165" lon="10.0381337"><ele>738.0</ele><time>2026-04-24T16:36:55.333Z</time></trkpt><trkpt lat="45.7981052" lon="10.0381705"><ele>738.0</ele><time>2026-04-24T16:36:56.334Z</time></trkpt><trkpt lat="45.7982243" lon="10.0382145"><ele>738.0</ele><time>2026-04-24T16:36:57.334Z</time></trkpt><trkpt lat="45.7983419" lon="10.0382358"><ele>738.0</ele><time>2026-04-24T16:36:58.333Z</time></trkpt><trkpt lat="45.7984439" lon="10.038254"><ele>735.0</ele><time>2026-04-24T16:36:59.333Z</time></trkpt><trkpt lat="45.7985283" lon="10.0382714"><ele>732.0</ele><time>2026-04-24T16:37:00.334Z</time></trkpt><trkpt lat="45.7985949" lon="10.038305"><ele>729.0</ele><time>2026-04-24T16:37:01.333Z</time></trkpt><trkpt lat="45.7986586" lon="10.0383136"><ele>726.0</ele><time>2026-04-24T16:37:02.332Z</time></trkpt><trkpt lat="45.7987437" lon="10.0382899"><ele>723.0</ele><time>2026-04-24T16:37:03.334Z</time></trkpt><trkpt lat="45.7988236" lon="10.0382561"><ele>720.0</ele><time>2026-04-24T16:37:04.333Z</time></trkpt><trkpt lat="45.7988996" lon="10.038224"><ele>720.0</ele><time>2026-04-24T16:37:05.334Z</time></trkpt><trkpt lat="45.7989584" lon="10.0381894"><ele>720.0</ele><time>2026-04-24T16:37:06.333Z</time></trkpt><trkpt lat="45.7990325" lon="10.0381045"><ele>720.0</ele><time>2026-04-24T16:37:08.333Z</time></trkpt><trkpt lat="45.7990841" lon="10.0379866"><ele>720.0</ele><time>2026-04-24T16:37:10.333Z</time></trkpt><trkpt lat="45.7991342" lon="10.0378741"><ele>720.0</ele><time>2026-04-24T16:37:12.333Z</time></trkpt><trkpt lat="45.7991856" lon="10.0377629"><ele>720.0</ele><time>2026-04-24T16:37:14.333Z</time></trkpt><trkpt lat="45.7992684" lon="10.0378494"><ele>720.0</ele><time>2026-04-24T16:37:16.334Z</time></trkpt><trkpt lat="45.7992646" lon="10.0379404"><ele>720.0</ele><time>2026-04-24T16:37:17.333Z</time></trkpt><trkpt lat="45.7992473" lon="10.038046"><ele>720.0</ele><time>2026-04-24T16:37:18.333Z</time></trkpt><trkpt lat="45.7992471" lon="10.0381384"><ele>720.0</ele><time>2026-04-24T16:37:19.334Z</time></trkpt><trkpt lat="45.799273" lon="10.0382432"><ele>720.0</ele><time>2026-04-24T16:37:21.332Z</time></trkpt><trkpt lat="45.7992785" lon="10.0383709"><ele>720.0</ele><time>2026-04-24T16:37:24.333Z</time></trkpt><trkpt lat="45.7992954" lon="10.0384678"><ele>720.0</ele><time>2026-04-24T16:37:27.333Z</time></trkpt><trkpt lat="45.7992772" lon="10.0385821"><ele>717.2</ele><time>2026-04-24T16:37:29.335Z</time></trkpt><trkpt lat="45.7992402" lon="10.0387012"><ele>714.4</ele><time>2026-04-24T16:37:31.334Z</time></trkpt><trkpt lat="45.7992164" lon="10.0387898"><ele>711.5999999999999</ele><time>2026-04-24T16:37:32.333Z</time></trkpt><trkpt lat="45.7991234" lon="10.0389108"><ele>708.8</ele><time>2026-04-24T16:37:34.333Z</time></trkpt><trkpt lat="45.7990367" lon="10.0390244"><ele>706.0</ele><time>2026-04-24T16:37:36.334Z</time></trkpt><trkpt lat="45.7989509" lon="10.0391057"><ele>703.4285714285714</ele><time>2026-04-24T16:37:38.334Z</time></trkpt><trkpt lat="45.7988884" lon="10.039136"><ele>700.8571428571429</ele><time>2026-04-24T16:37:39.332Z</time></trkpt><trkpt lat="45.7988244" lon="10.0391524"><ele>698.2857142857143</ele><time>2026-04-24T16:37:40.333Z</time></trkpt><trkpt lat="45.7987602" lon="10.0391761"><ele>695.7142857142858</ele><time>2026-04-24T16:37:41.333Z</time></trkpt><trkpt lat="45.7986995" lon="10.039219"><ele>693.1428571428571</ele><time>2026-04-24T16:37:42.334Z</time></trkpt><trkpt lat="45.7986349" lon="10.039271"><ele>690.5714285714287</ele><time>2026-04-24T16:37:43.333Z</time></trkpt><trkpt lat="45.7985751" lon="10.0393403"><ele>688.0</ele><time>2026-04-24T16:37:44.333Z</time></trkpt><trkpt lat="45.7985312" lon="10.0394194"><ele>689.3333333333334</ele><time>2026-04-24T16:37:45.334Z</time></trkpt><trkpt lat="45.7984806" lon="10.0395013"><ele>690.6666666666667</ele><time>2026-04-24T16:37:46.333Z</time></trkpt><trkpt lat="45.7984429" lon="10.0396059"><ele>692.0</ele><time>2026-04-24T16:37:47.333Z</time></trkpt><trkpt lat="45.7984022" lon="10.0397092"><ele>693.3333333333334</ele><time>2026-04-24T16:37:48.333Z</time></trkpt><trkpt lat="45.7983535" lon="10.0398037"><ele>694.6666666666666</ele><time>2026-04-24T16:37:49.333Z</time></trkpt><trkpt lat="45.7983099" lon="10.0398859"><ele>696.0</ele><time>2026-04-24T16:37:50.332Z</time></trkpt><trkpt lat="45.7982879" lon="10.0399853"><ele>692.5</ele><time>2026-04-24T16:37:51.332Z</time></trkpt><trkpt lat="45.798245" lon="10.0400674"><ele>689.0</ele><time>2026-04-24T16:37:52.333Z</time></trkpt><trkpt lat="45.7981787" lon="10.0401889"><ele>685.5</ele><time>2026-04-24T16:37:54.334Z</time></trkpt><trkpt lat="45.7981005" lon="10.040292"><ele>682.0</ele><time>2026-04-24T16:37:56.332Z</time></trkpt><trkpt lat="45.7980349" lon="10.040329"><ele>678.5</ele><time>2026-04-24T16:37:57.333Z</time></trkpt><trkpt lat="45.7979786" lon="10.0403815"><ele>675.0</ele><time>2026-04-24T16:37:58.334Z</time></trkpt><trkpt lat="45.7978611" lon="10.040406"><ele>675.0</ele><time>2026-04-24T16:38:00.333Z</time></trkpt><trkpt lat="45.797786" lon="10.0403979"><ele>675.0</ele><time>2026-04-24T16:38:01.334Z</time></trkpt><trkpt lat="45.7977199" lon="10.0403863"><ele>675.0</ele><time>2026-04-24T16:38:02.334Z</time></trkpt><trkpt lat="45.7976432" lon="10.0403495"><ele>675.0</ele><time>2026-04-24T16:38:03.333Z</time></trkpt><trkpt lat="45.7975484" lon="10.0403026"><ele>675.0</ele><time>2026-04-24T16:38:04.334Z</time></trkpt><trkpt lat="45.7974616" lon="10.0402769"><ele>675.0</ele><time>2026-04-24T16:38:05.333Z</time></trkpt><trkpt lat="45.797372" lon="10.0402467"><ele>674.0</ele><time>2026-04-24T16:38:06.333Z</time></trkpt><trkpt lat="45.797281" lon="10.0402339"><ele>673.0</ele><time>2026-04-24T16:38:07.333Z</time></trkpt><trkpt lat="45.7971853" lon="10.0402246"><ele>672.0</ele><time>2026-04-24T16:38:08.332Z</time></trkpt><trkpt lat="45.7971216" lon="10.0401494"><ele>671.0</ele><time>2026-04-24T16:38:09.333Z</time></trkpt><trkpt lat="45.7970758" lon="10.0400718"><ele>670.0</ele><time>2026-04-24T16:38:10.332Z</time></trkpt><trkpt lat="45.7970325" lon="10.0399829"><ele>669.0</ele><time>2026-04-24T16:38:11.334Z</time></trkpt><trkpt lat="45.7969638" lon="10.0398834"><ele>666.0</ele><time>2026-04-24T16:38:13.332Z</time></trkpt><trkpt lat="45.7968835" lon="10.0398242"><ele>663.0</ele><time>2026-04-24T16:38:15.333Z</time></trkpt><trkpt lat="45.7967824" lon="10.0397024"><ele>660.0</ele><time>2026-04-24T16:38:17.333Z</time></trkpt><trkpt lat="45.7967403" lon="10.0395337"><ele>657.0</ele><time>2026-04-24T16:38:19.332Z</time></trkpt><trkpt lat="45.7966654" lon="10.03939"><ele>657.0</ele><time>2026-04-24T16:38:21.333Z</time></trkpt><trkpt lat="45.7966188" lon="10.0392839"><ele>657.0</ele><time>2026-04-24T16:38:22.334Z</time></trkpt><trkpt lat="45.7965737" lon="10.0391936"><ele>657.0</ele><time>2026-04-24T16:38:23.333Z</time></trkpt><trkpt lat="45.7965334" lon="10.0391074"><ele>657.0</ele><time>2026-04-24T16:38:24.334Z</time></trkpt><trkpt lat="45.7964425" lon="10.0390203"><ele>657.0</ele><time>2026-04-24T16:38:26.333Z</time></trkpt><trkpt lat="45.7963938" lon="10.0388651"><ele>654.1666666666666</ele><time>2026-04-24T16:38:27.332Z</time></trkpt><trkpt lat="45.7963318" lon="10.0387887"><ele>651.3333333333334</ele><time>2026-04-24T16:38:28.334Z</time></trkpt><trkpt lat="45.7962648" lon="10.0386837"><ele>648.5</ele><time>2026-04-24T16:38:30.335Z</time></trkpt><trkpt lat="45.7962032" lon="10.0386428"><ele>645.6666666666667</ele><time>2026-04-24T16:38:31.333Z</time></trkpt><trkpt lat="45.7961031" lon="10.0385617"><ele>642.8333333333334</ele><time>2026-04-24T16:38:33.333Z</time></trkpt><trkpt lat="45.7960411" lon="10.0385226"><ele>640.0</ele><time>2026-04-24T16:38:34.333Z</time></trkpt><trkpt lat="45.795989" lon="10.0384504"><ele>640.0</ele><time>2026-04-24T16:38:35.333Z</time></trkpt><trkpt lat="45.7959433" lon="10.0383398"><ele>640.0</ele><time>2026-04-24T16:38:36.333Z</time></trkpt><trkpt lat="45.7958738" lon="10.0382454"><ele>640.0</ele><time>2026-04-24T16:38:37.333Z</time></trkpt><trkpt lat="45.79582" lon="10.0381214"><ele>640.0</ele><time>2026-04-24T16:38:38.333Z</time></trkpt><trkpt lat="45.7957635" lon="10.0379855"><ele>640.0</ele><time>2026-04-24T16:38:39.334Z</time></trkpt><trkpt lat="45.7956979" lon="10.0378728"><ele>642.5</ele><time>2026-04-24T16:38:40.334Z</time></trkpt><trkpt lat="45.7956422" lon="10.0377774"><ele>645.0</ele><time>2026-04-24T16:38:41.333Z</time></trkpt><trkpt lat="45.7955771" lon="10.037737"><ele>647.5</ele><time>2026-04-24T16:38:42.334Z</time></trkpt><trkpt lat="45.795503" lon="10.0376503"><ele>650.0</ele><time>2026-04-24T16:38:44.334Z</time></trkpt><trkpt lat="45.7954567" lon="10.0375611"><ele>652.5</ele><time>2026-04-24T16:38:46.333Z</time></trkpt><trkpt lat="45.7953957" lon="10.0375097"><ele>655.0</ele><time>2026-04-24T16:38:49.333Z</time></trkpt><trkpt lat="45.7953076" lon="10.0375075"><ele>655.0</ele><time>2026-04-24T16:38:53.334Z</time></trkpt><trkpt lat="45.7952207" lon="10.0374876"><ele>655.0</ele><time>2026-04-24T16:38:57.333Z</time></trkpt><trkpt lat="45.7951524" lon="10.0374689"><ele>655.0</ele><time>2026-04-24T16:38:59.333Z</time></trkpt><trkpt lat="45.7950797" lon="10.0374553"><ele>655.0</ele><time>2026-04-24T16:39:01.333Z</time></trkpt><trkpt lat="45.7949982" lon="10.0374528"><ele>655.0</ele><time>2026-04-24T16:39:03.334Z</time></trkpt><trkpt lat="45.7949244" lon="10.0374033"><ele>655.0</ele><time>2026-04-24T16:39:05.333Z</time></trkpt><trkpt lat="45.7948809" lon="10.0372953"><ele>651.0</ele><time>2026-04-24T16:39:07.333Z</time></trkpt><trkpt lat="45.7948869" lon="10.0371922"><ele>647.0</ele><time>2026-04-24T16:39:09.333Z</time></trkpt><trkpt lat="45.7949487" lon="10.0371036"><ele>643.0</ele><time>2026-04-24T16:39:11.333Z</time></trkpt><trkpt lat="45.795015" lon="10.0370803"><ele>639.0</ele><time>2026-04-24T16:39:13.333Z</time></trkpt><trkpt lat="45.7950595" lon="10.0369984"><ele>635.0</ele><time>2026-04-24T16:39:16.333Z</time></trkpt><trkpt lat="45.7950372" lon="10.0368664"><ele>631.0</ele><time>2026-04-24T16:39:19.333Z</time></trkpt><trkpt lat="45.7949914" lon="10.0367634"><ele>631.0</ele><time>2026-04-24T16:39:22.334Z</time></trkpt><trkpt lat="45.794939" lon="10.0366792"><ele>631.0</ele><time>2026-04-24T16:39:25.333Z</time></trkpt><trkpt lat="45.7948779" lon="10.0366169"><ele>631.0</ele><time>2026-04-24T16:39:27.333Z</time></trkpt><trkpt lat="45.7948154" lon="10.0365542"><ele>631.0</ele><time>2026-04-24T16:39:29.333Z</time></trkpt><trkpt lat="45.794753" lon="10.0365154"><ele>631.0</ele><time>2026-04-24T16:39:30.333Z</time></trkpt><trkpt lat="45.7946903" lon="10.0364649"><ele>631.0</ele><time>2026-04-24T16:39:32.333Z</time></trkpt><trkpt lat="45.7946082" lon="10.0364163"><ele>633.0</ele><time>2026-04-24T16:39:34.332Z</time></trkpt><trkpt lat="45.7945236" lon="10.0363597"><ele>635.0</ele><time>2026-04-24T16:39:36.333Z</time></trkpt><trkpt lat="45.7944777" lon="10.0362774"><ele>637.0</ele><time>2026-04-24T16:39:38.333Z</time></trkpt><trkpt lat="45.7944246" lon="10.0361615"><ele>639.0</ele><time>2026-04-24T16:39:40.334Z</time></trkpt><trkpt lat="45.7943559" lon="10.0360601"><ele>641.0</ele><time>2026-04-24T16:39:42.333Z</time></trkpt><trkpt lat="45.7942984" lon="10.0359693"><ele>643.0</ele><time>2026-04-24T16:39:44.334Z</time></trkpt><trkpt lat="45.7942558" lon="10.0358428"><ele>638.5</ele><time>2026-04-24T16:39:46.332Z</time></trkpt><trkpt lat="45.7941786" lon="10.0357097"><ele>634.0</ele><time>2026-04-24T16:39:48.333Z</time></trkpt><trkpt lat="45.7941048" lon="10.035583"><ele>629.5</ele><time>2026-04-24T16:39:50.334Z</time></trkpt><trkpt lat="45.7940156" lon="10.0354733"><ele>625.0</ele><time>2026-04-24T16:39:52.333Z</time></trkpt><trkpt lat="45.7939459" lon="10.0353764"><ele>625.0</ele><time>2026-04-24T16:39:54.334Z</time></trkpt><trkpt lat="45.7938825" lon="10.0352188"><ele>625.0</ele><time>2026-04-24T16:39:56.334Z</time></trkpt><trkpt lat="45.7937966" lon="10.0350885"><ele>625.0</ele><time>2026-04-24T16:39:58.332Z</time></trkpt><trkpt lat="45.7937272" lon="10.0349425"><ele>625.0</ele><time>2026-04-24T16:40:00.333Z</time></trkpt><trkpt lat="45.7936226" lon="10.0348725"><ele>625.4</ele><time>2026-04-24T16:40:02.333Z</time></trkpt><trkpt lat="45.7935664" lon="10.0348143"><ele>625.8</ele><time>2026-04-24T16:40:03.333Z</time></trkpt><trkpt lat="45.7935098" lon="10.0347601"><ele>626.2</ele><time>2026-04-24T16:40:04.333Z</time></trkpt><trkpt lat="45.7934184" lon="10.0346522"><ele>626.6</ele><time>2026-04-24T16:40:06.334Z</time></trkpt><trkpt lat="45.7933654" lon="10.0345192"><ele>627.0</ele><time>2026-04-24T16:40:08.334Z</time></trkpt><trkpt lat="45.7932983" lon="10.0344319"><ele>625.3333333333334</ele><time>2026-04-24T16:40:10.334Z</time></trkpt><trkpt lat="45.7932224" lon="10.0343475"><ele>623.6666666666666</ele><time>2026-04-24T16:40:12.335Z</time></trkpt><trkpt lat="45.7931482" lon="10.0342756"><ele>622.0</ele><time>2026-04-24T16:40:14.333Z</time></trkpt><trkpt lat="45.7930667" lon="10.0342326"><ele>620.3333333333333</ele><time>2026-04-24T16:40:16.333Z</time></trkpt><trkpt lat="45.7929906" lon="10.0341877"><ele>618.6666666666666</ele><time>2026-04-24T16:41:03.334Z</time></trkpt><trkpt lat="45.7929255" lon="10.0341781"><ele>617.0</ele><time>2026-04-24T16:41:05.333Z</time></trkpt><trkpt lat="45.7928489" lon="10.0341809"><ele>617.0</ele><time>2026-04-24T16:41:07.333Z</time></trkpt><trkpt lat="45.7927454" lon="10.0341675"><ele>617.0</ele><time>2026-04-24T16:41:09.333Z</time></trkpt><trkpt lat="45.792656" lon="10.0341631"><ele>617.0</ele><time>2026-04-24T16:41:11.332Z</time></trkpt><trkpt lat="45.7925805" lon="10.0341534"><ele>617.0</ele><time>2026-04-24T16:41:13.333Z</time></trkpt><trkpt lat="45.7924871" lon="10.0341896"><ele>617.0</ele><time>2026-04-24T16:41:16.333Z</time></trkpt><trkpt lat="45.7924328" lon="10.0342945"><ele>616.0</ele><time>2026-04-24T16:41:19.334Z</time></trkpt><trkpt lat="45.7923777" lon="10.0343756"><ele>615.0</ele><time>2026-04-24T16:41:21.333Z</time></trkpt><trkpt lat="45.7923744" lon="10.0345114"><ele>614.0</ele><time>2026-04-24T16:41:24.333Z</time></trkpt><trkpt lat="45.7923642" lon="10.0346518"><ele>613.0</ele><time>2026-04-24T16:41:26.333Z</time></trkpt><trkpt lat="45.7923208" lon="10.0347363"><ele>612.0</ele><time>2026-04-24T16:41:28.334Z</time></trkpt><trkpt lat="45.7922353" lon="10.0347902"><ele>611.0</ele><time>2026-04-24T16:41:30.333Z</time></trkpt><trkpt lat="45.7921487" lon="10.0348351"><ele>611.0</ele><time>2026-04-24T16:41:32.333Z</time></trkpt><trkpt lat="45.7920482" lon="10.0348363"><ele>611.0</ele><time>2026-04-24T16:41:33.333Z</time></trkpt><trkpt lat="45.7919725" lon="10.0348296"><ele>611.0</ele><time>2026-04-24T16:41:34.333Z</time></trkpt><trkpt lat="45.7919034" lon="10.0348027"><ele>611.0</ele><time>2026-04-24T16:41:35.333Z</time></trkpt><trkpt lat="45.7918056" lon="10.0347452"><ele>611.0</ele><time>2026-04-24T16:41:37.333Z</time></trkpt><trkpt lat="45.7917356" lon="10.0347263"><ele>611.0</ele><time>2026-04-24T16:47:26.332Z</time></trkpt><trkpt lat="45.7916707" lon="10.0347178"><ele>612.0</ele><time>2026-04-24T16:51:06.333Z</time></trkpt><trkpt lat="45.7915656" lon="10.0346805"><ele>613.0</ele><time>2026-04-24T16:51:08.333Z</time></trkpt><trkpt lat="45.7914648" lon="10.0346154"><ele>614.0</ele><time>2026-04-24T16:51:10.333Z</time></trkpt><trkpt lat="45.7913938" lon="10.0345751"><ele>615.0</ele><time>2026-04-24T16:51:12.333Z</time></trkpt><trkpt lat="45.7913153" lon="10.0345167"><ele>616.0</ele><time>2026-04-24T16:51:14.333Z</time></trkpt><trkpt lat="45.7912472" lon="10.0344786"><ele>616.0</ele><time>2026-04-24T16:51:16.333Z</time></trkpt><trkpt lat="45.7911847" lon="10.0344438"><ele>616.0</ele><time>2026-04-24T16:51:18.332Z</time></trkpt><trkpt lat="45.7911056" lon="10.0344577"><ele>616.0</ele><time>2026-04-24T16:51:21.334Z</time></trkpt><trkpt lat="45.7911053" lon="10.0345885"><ele>616.0</ele><time>2026-04-24T16:51:24.332Z</time></trkpt><trkpt lat="45.7911876" lon="10.0346661"><ele>616.0</ele><time>2026-04-24T16:51:27.333Z</time></trkpt><trkpt lat="45.7912665" lon="10.034671"><ele>616.0</ele><time>2026-04-24T16:51:29.334Z</time></trkpt><trkpt lat="45.7913552" lon="10.0346578"><ele>616.0</ele><time>2026-04-24T16:51:31.333Z</time></trkpt><trkpt lat="45.7914457" lon="10.0346661"><ele>616.0</ele><time>2026-04-24T16:51:33.332Z</time></trkpt><trkpt lat="45.7915105" lon="10.0347161"><ele>616.0</ele><time>2026-04-24T16:51:36.333Z</time></trkpt><trkpt lat="45.7915583" lon="10.0347759"><ele>616.0</ele><time>2026-04-24T16:51:38.333Z</time></trkpt><trkpt lat="45.7916265" lon="10.0347998"><ele>616.0</ele><time>2026-04-24T16:51:40.332Z</time></trkpt><trkpt lat="45.7916938" lon="10.0347725"><ele>616.0</ele><time>2026-04-24T16:51:42.332Z</time></trkpt><trkpt lat="45.7917748" lon="10.0347255"><ele>615.1666666666667</ele><time>2026-04-24T16:51:45.332Z</time></trkpt><trkpt lat="45.7918524" lon="10.0347581"><ele>614.3333333333334</ele><time>2026-04-24T16:51:47.334Z</time></trkpt><trkpt lat="45.7919288" lon="10.0347952"><ele>613.5</ele><time>2026-04-24T16:51:49.332Z</time></trkpt><trkpt lat="45.7920214" lon="10.0348106"><ele>612.6666666666666</ele><time>2026-04-24T16:51:51.333Z</time></trkpt><trkpt lat="45.7921101" lon="10.0348127"><ele>611.8333333333333</ele><time>2026-04-24T16:51:53.334Z</time></trkpt><trkpt lat="45.7921946" lon="10.0348202"><ele>611.0</ele><time>2026-04-24T16:51:56.333Z</time></trkpt><trkpt lat="45.7922742" lon="10.0348146"><ele>611.0</ele><time>2026-04-24T16:51:59.332Z</time></trkpt><trkpt lat="45.7923079" lon="10.0347224"><ele>611.0</ele><time>2026-04-24T16:52:02.333Z</time></trkpt><trkpt lat="45.7923425" lon="10.0345913"><ele>611.0</ele><time>2026-04-24T16:52:05.333Z</time></trkpt><trkpt lat="45.7923582" lon="10.0344944"><ele>611.0</ele><time>2026-04-24T16:52:07.333Z</time></trkpt><trkpt lat="45.7923936" lon="10.034394"><ele>611.0</ele><time>2026-04-24T16:52:09.333Z</time></trkpt><trkpt lat="45.7924304" lon="10.0343199"><ele>611.0</ele><time>2026-04-24T16:52:11.334Z</time></trkpt><trkpt lat="45.7925124" lon="10.0343049"><ele>611.0</ele><time>2026-04-24T16:52:14.333Z</time></trkpt><trkpt lat="45.7925906" lon="10.0343858"><ele>611.0</ele><time>2026-04-24T16:52:16.333Z</time></trkpt><trkpt lat="45.792633" lon="10.0344811"><ele>611.0</ele><time>2026-04-24T16:52:17.333Z</time></trkpt><trkpt lat="45.7926748" lon="10.0345864"><ele>611.0</ele><time>2026-04-24T16:52:18.333Z</time></trkpt><trkpt lat="45.7926949" lon="10.0346989"><ele>611.0</ele><time>2026-04-24T16:52:19.331Z</time></trkpt><trkpt lat="45.7927183" lon="10.0348035"><ele>611.0</ele><time>2026-04-24T16:52:20.334Z</time></trkpt><trkpt lat="45.7927433" lon="10.0349186"><ele>611.6666666666666</ele><time>2026-04-24T16:52:21.333Z</time></trkpt><trkpt lat="45.7927655" lon="10.0350319"><ele>612.3333333333333</ele><time>2026-04-24T16:52:22.333Z</time></trkpt><trkpt lat="45.7927842" lon="10.0351457"><ele>613.0</ele><time>2026-04-24T16:52:23.333Z</time></trkpt><trkpt lat="45.792811" lon="10.0352609"><ele>613.6666666666666</ele><time>2026-04-24T16:52:24.334Z</time></trkpt><trkpt lat="45.792842" lon="10.0353538"><ele>614.3333333333334</ele><time>2026-04-24T16:52:25.333Z</time></trkpt><trkpt lat="45.792894" lon="10.0354213"><ele>615.0</ele><time>2026-04-24T16:52:26.333Z</time></trkpt><trkpt lat="45.7930121" lon="10.0355552"><ele>615.0</ele><time>2026-04-24T16:52:28.333Z</time></trkpt><trkpt lat="45.7930589" lon="10.035653"><ele>615.0</ele><time>2026-04-24T16:52:29.333Z</time></trkpt><trkpt lat="45.7930796" lon="10.0357776"><ele>615.0</ele><time>2026-04-24T16:52:30.334Z</time></trkpt><trkpt lat="45.7930885" lon="10.0359058"><ele>615.0</ele><time>2026-04-24T16:52:31.333Z</time></trkpt><trkpt lat="45.7930758" lon="10.0360648"><ele>615.0</ele><time>2026-04-24T16:52:32.333Z</time></trkpt><trkpt lat="45.7930779" lon="10.0362026"><ele>614.0</ele><time>2026-04-24T16:52:33.332Z</time></trkpt><trkpt lat="45.79309" lon="10.0363661"><ele>613.0</ele><time>2026-04-24T16:52:34.333Z</time></trkpt><trkpt lat="45.7931554" lon="10.0365244"><ele>612.0</ele><time>2026-04-24T16:52:35.333Z</time></trkpt><trkpt lat="45.7932063" lon="10.0366639"><ele>611.0</ele><time>2026-04-24T16:52:36.333Z</time></trkpt><trkpt lat="45.7932765" lon="10.0368146"><ele>610.5</ele><time>2026-04-24T16:52:37.333Z</time></trkpt><trkpt lat="45.7933381" lon="10.0369392"><ele>610.0</ele><time>2026-04-24T16:52:38.333Z</time></trkpt><trkpt lat="45.7934061" lon="10.037078"><ele>609.5</ele><time>2026-04-24T16:52:39.332Z</time></trkpt><trkpt lat="45.793493" lon="10.0372207"><ele>609.0</ele><time>2026-04-24T16:52:40.333Z</time></trkpt><trkpt lat="45.7935559" lon="10.0373567"><ele>609.75</ele><time>2026-04-24T16:52:41.333Z</time></trkpt><trkpt lat="45.7936265" lon="10.0374952"><ele>610.5</ele><time>2026-04-24T16:52:42.333Z</time></trkpt><trkpt lat="45.7936801" lon="10.0376363"><ele>611.25</ele><time>2026-04-24T16:52:43.332Z</time></trkpt><trkpt lat="45.793737" lon="10.037778"><ele>612.0</ele><time>2026-04-24T16:52:44.333Z</time></trkpt><trkpt lat="45.7937982" lon="10.0379303"><ele>612.0</ele><time>2026-04-24T16:52:45.333Z</time></trkpt><trkpt lat="45.7938508" lon="10.0380822"><ele>612.0</ele><time>2026-04-24T16:52:46.333Z</time></trkpt><trkpt lat="45.7939034" lon="10.0382287"><ele>612.0</ele><time>2026-04-24T16:52:47.333Z</time></trkpt><trkpt lat="45.7939531" lon="10.0383715"><ele>612.0</ele><time>2026-04-24T16:52:48.333Z</time></trkpt><trkpt lat="45.793998" lon="10.0385148"><ele>611.4</ele><time>2026-04-24T16:52:49.333Z</time></trkpt><trkpt lat="45.7940397" lon="10.0386615"><ele>610.8000000000001</ele><time>2026-04-24T16:52:50.332Z</time></trkpt><trkpt lat="45.7940871" lon="10.0388038"><ele>610.2</ele><time>2026-04-24T16:52:51.333Z</time></trkpt><trkpt lat="45.7941371" lon="10.0389326"><ele>609.6</ele><time>2026-04-24T16:52:52.333Z</time></trkpt><trkpt lat="45.7941976" lon="10.039044"><ele>609.0</ele><time>2026-04-24T16:52:53.334Z</time></trkpt><trkpt lat="45.7942551" lon="10.0391575"><ele>609.4</ele><time>2026-04-24T16:52:54.333Z</time></trkpt><trkpt lat="45.794317" lon="10.0392932"><ele>609.8</ele><time>2026-04-24T16:52:55.333Z</time></trkpt><trkpt lat="45.7943692" lon="10.0394198"><ele>610.2</ele><time>2026-04-24T16:52:56.333Z</time></trkpt><trkpt lat="45.7944143" lon="10.0395655"><ele>610.6</ele><time>2026-04-24T16:52:57.332Z</time></trkpt><trkpt lat="45.7944538" lon="10.039716"><ele>611.0</ele><time>2026-04-24T16:52:58.334Z</time></trkpt><trkpt lat="45.7944865" lon="10.0398763"><ele>610.0</ele><time>2026-04-24T16:52:59.333Z</time></trkpt><trkpt lat="45.7945298" lon="10.0400218"><ele>609.0</ele><time>2026-04-24T16:53:00.333Z</time></trkpt><trkpt lat="45.7945701" lon="10.040164"><ele>608.0</ele><time>2026-04-24T16:53:01.334Z</time></trkpt><trkpt lat="45.794613" lon="10.0403025"><ele>607.0</ele><time>2026-04-24T16:53:02.332Z</time></trkpt><trkpt lat="45.7946687" lon="10.0404619"><ele>606.0</ele><time>2026-04-24T16:53:03.333Z</time></trkpt><trkpt lat="45.7947165" lon="10.0405903"><ele>606.0</ele><time>2026-04-24T16:53:04.333Z</time></trkpt><trkpt lat="45.7947683" lon="10.0407222"><ele>606.0</ele><time>2026-04-24T16:53:05.332Z</time></trkpt><trkpt lat="45.7948426" lon="10.0408676"><ele>606.0</ele><time>2026-04-24T16:53:06.332Z</time></trkpt><trkpt lat="45.7949155" lon="10.0409942"><ele>606.0</ele><time>2026-04-24T16:53:07.333Z</time></trkpt><trkpt lat="45.7949888" lon="10.0411179"><ele>604.5</ele><time>2026-04-24T16:53:08.332Z</time></trkpt><trkpt lat="45.7950582" lon="10.0412506"><ele>603.0</ele><time>2026-04-24T16:53:09.332Z</time></trkpt><trkpt lat="45.795135" lon="10.0413841"><ele>601.5</ele><time>2026-04-24T16:53:10.333Z</time></trkpt><trkpt lat="45.7952155" lon="10.0415158"><ele>600.0</ele><time>2026-04-24T16:53:11.333Z</time></trkpt><trkpt lat="45.7952951" lon="10.0416392"><ele>600.0</ele><time>2026-04-24T16:53:12.333Z</time></trkpt><trkpt lat="45.7953848" lon="10.04176"><ele>600.0</ele><time>2026-04-24T16:53:13.334Z</time></trkpt><trkpt lat="45.7954698" lon="10.0418826"><ele>600.0</ele><time>2026-04-24T16:53:14.332Z</time></trkpt><trkpt lat="45.7955395" lon="10.0420001"><ele>600.0</ele><time>2026-04-24T16:53:15.333Z</time></trkpt><trkpt lat="45.7956232" lon="10.0421259"><ele>600.0</ele><time>2026-04-24T16:53:16.333Z</time></trkpt><trkpt lat="45.795716" lon="10.0422443"><ele>600.0</ele><time>2026-04-24T16:53:17.334Z</time></trkpt><trkpt lat="45.7958057" lon="10.0423642"><ele>600.0</ele><time>2026-04-24T16:53:18.333Z</time></trkpt><trkpt lat="45.7958914" lon="10.0424995"><ele>600.0</ele><time>2026-04-24T16:53:19.333Z</time></trkpt><trkpt lat="45.7959622" lon="10.0426406"><ele>600.4</ele><time>2026-04-24T16:53:20.332Z</time></trkpt><trkpt lat="45.7960256" lon="10.04278"><ele>600.8</ele><time>2026-04-24T16:53:21.334Z</time></trkpt><trkpt lat="45.7960808" lon="10.0429153"><ele>601.2</ele><time>2026-04-24T16:53:22.333Z</time></trkpt><trkpt lat="45.7961301" lon="10.0430278"><ele>601.6</ele><time>2026-04-24T16:53:23.332Z</time></trkpt><trkpt lat="45.796184" lon="10.0431246"><ele>602.0</ele><time>2026-04-24T16:53:24.332Z</time></trkpt><trkpt lat="45.7962542" lon="10.0431806"><ele>602.0</ele><time>2026-04-24T16:53:25.334Z</time></trkpt><trkpt lat="45.7963314" lon="10.0431962"><ele>602.0</ele><time>2026-04-24T16:53:26.333Z</time></trkpt><trkpt lat="45.7964011" lon="10.0432279"><ele>602.0</ele><time>2026-04-24T16:53:27.332Z</time></trkpt><trkpt lat="45.7964614" lon="10.0432654"><ele>602.0</ele><time>2026-04-24T16:53:28.333Z</time></trkpt><trkpt lat="45.7965248" lon="10.0432955"><ele>602.0</ele><time>2026-04-24T16:53:29.333Z</time></trkpt><trkpt lat="45.7965906" lon="10.043324"><ele>602.0</ele><time>2026-04-24T16:53:30.333Z</time></trkpt><trkpt lat="45.7966518" lon="10.0433461"><ele>602.0</ele><time>2026-04-24T16:53:31.333Z</time></trkpt><trkpt lat="45.796724" lon="10.0433389"><ele>601.8333333333333</ele><time>2026-04-24T16:53:32.333Z</time></trkpt><trkpt lat="45.7968021" lon="10.0433268"><ele>601.6666666666666</ele><time>2026-04-24T16:53:33.334Z</time></trkpt><trkpt lat="45.7968834" lon="10.0433236"><ele>601.5</ele><time>2026-04-24T16:53:34.333Z</time></trkpt><trkpt lat="45.7969481" lon="10.0433256"><ele>601.3333333333334</ele><time>2026-04-24T16:53:35.333Z</time></trkpt><trkpt lat="45.7970609" lon="10.0433188"><ele>601.1666666666667</ele><time>2026-04-24T16:53:37.333Z</time></trkpt><trkpt lat="45.7971339" lon="10.0433497"><ele>601.0</ele><time>2026-04-24T16:53:39.331Z</time></trkpt><trkpt lat="45.7971555" lon="10.043256"><ele>601.0</ele><time>2026-04-24T16:53:42.333Z</time></trkpt><trkpt lat="45.7970373" lon="10.0432924"><ele>601.0</ele><time>2026-04-24T16:53:45.333Z</time></trkpt><trkpt lat="45.7969524" lon="10.0433141"><ele>601.0</ele><time>2026-04-24T16:53:46.333Z</time></trkpt><trkpt lat="45.7968722" lon="10.0433247"><ele>601.0</ele><time>2026-04-24T16:53:47.333Z</time></trkpt><trkpt lat="45.7967754" lon="10.0433287"><ele>601.0</ele><time>2026-04-24T16:53:48.333Z</time></trkpt><trkpt lat="45.7966882" lon="10.0433314"><ele>601.1666666666667</ele><time>2026-04-24T16:53:49.332Z</time></trkpt><trkpt lat="45.7966089" lon="10.0433222"><ele>601.3333333333334</ele><time>2026-04-24T16:53:50.333Z</time></trkpt><trkpt lat="45.7965386" lon="10.04329"><ele>601.5</ele><time>2026-04-24T16:53:51.332Z</time></trkpt><trkpt lat="45.7964623" lon="10.0432485"><ele>601.6666666666666</ele><time>2026-04-24T16:53:52.333Z</time></trkpt><trkpt lat="45.7963962" lon="10.0432101"><ele>601.8333333333333</ele><time>2026-04-24T16:53:53.334Z</time></trkpt><trkpt lat="45.7962867" lon="10.0431575"><ele>602.0</ele><time>2026-04-24T16:53:55.332Z</time></trkpt><trkpt lat="45.7962246" lon="10.0430929"><ele>602.0</ele><time>2026-04-24T16:53:56.332Z</time></trkpt><trkpt lat="45.7961742" lon="10.0429916"><ele>602.0</ele><time>2026-04-24T16:53:57.333Z</time></trkpt><trkpt lat="45.7961183" lon="10.0428893"><ele>602.0</ele><time>2026-04-24T16:53:58.333Z</time></trkpt><trkpt lat="45.7960607" lon="10.0427631"><ele>602.0</ele><time>2026-04-24T16:53:59.332Z</time></trkpt><trkpt lat="45.7959981" lon="10.0426341"><ele>602.0</ele><time>2026-04-24T16:54:00.333Z</time></trkpt><trkpt lat="45.7959191" lon="10.0424882"><ele>601.5</ele><time>2026-04-24T16:54:01.333Z</time></trkpt><trkpt lat="45.7958296" lon="10.0423684"><ele>601.0</ele><time>2026-04-24T16:54:02.332Z</time></trkpt><trkpt lat="45.7957322" lon="10.042253"><ele>600.5</ele><time>2026-04-24T16:54:03.333Z</time></trkpt><trkpt lat="45.7956406" lon="10.0421344"><ele>600.0</ele><time>2026-04-24T16:54:04.332Z</time></trkpt><trkpt lat="45.7955624" lon="10.0420123"><ele>600.0</ele><time>2026-04-24T16:54:05.334Z</time></trkpt><trkpt lat="45.7954775" lon="10.0418762"><ele>600.0</ele><time>2026-04-24T16:54:06.333Z</time></trkpt><trkpt lat="45.7953895" lon="10.0417517"><ele>600.0</ele><time>2026-04-24T16:54:07.333Z</time></trkpt><trkpt lat="45.7953082" lon="10.0416128"><ele>600.0</ele><time>2026-04-24T16:54:08.334Z</time></trkpt><trkpt lat="45.7952212" lon="10.0414807"><ele>599.5</ele><time>2026-04-24T16:54:09.332Z</time></trkpt><trkpt lat="45.7951391" lon="10.0413419"><ele>599.0</ele><time>2026-04-24T16:54:10.333Z</time></trkpt><trkpt lat="45.795058" lon="10.0412063"><ele>598.5</ele><time>2026-04-24T16:54:11.333Z</time></trkpt><trkpt lat="45.7949866" lon="10.0410748"><ele>598.0</ele><time>2026-04-24T16:54:12.332Z</time></trkpt><trkpt lat="45.7949203" lon="10.0409296"><ele>598.0</ele><time>2026-04-24T16:54:13.334Z</time></trkpt><trkpt lat="45.7948616" lon="10.0408098"><ele>598.0</ele><time>2026-04-24T16:54:14.333Z</time></trkpt><trkpt lat="45.7948011" lon="10.0406839"><ele>598.0</ele><time>2026-04-24T16:54:15.333Z</time></trkpt><trkpt lat="45.7947446" lon="10.0405504"><ele>598.0</ele><time>2026-04-24T16:54:16.334Z</time></trkpt><trkpt lat="45.7946929" lon="10.0404178"><ele>598.0</ele><time>2026-04-24T16:54:17.333Z</time></trkpt><trkpt lat="45.7946443" lon="10.040283"><ele>599.6</ele><time>2026-04-24T16:54:18.333Z</time></trkpt><trkpt lat="45.7946082" lon="10.0401744"><ele>601.1999999999999</ele><time>2026-04-24T16:54:19.332Z</time></trkpt><trkpt lat="45.7945702" lon="10.0400514"><ele>602.8</ele><time>2026-04-24T16:54:20.333Z</time></trkpt><trkpt lat="45.7945383" lon="10.0399186"><ele>604.4</ele><time>2026-04-24T16:54:21.332Z</time></trkpt><trkpt lat="45.7944978" lon="10.0398031"><ele>606.0</ele><time>2026-04-24T16:54:22.333Z</time></trkpt><trkpt lat="45.794459" lon="10.0396818"><ele>605.25</ele><time>2026-04-24T16:54:23.333Z</time></trkpt><trkpt lat="45.7944218" lon="10.0395385"><ele>604.5</ele><time>2026-04-24T16:54:24.332Z</time></trkpt><trkpt lat="45.7943711" lon="10.0393527"><ele>603.75</ele><time>2026-04-24T16:54:25.333Z</time></trkpt><trkpt lat="45.7943171" lon="10.0392297"><ele>603.0</ele><time>2026-04-24T16:54:26.332Z</time></trkpt><trkpt lat="45.7942505" lon="10.0391012"><ele>604.5</ele><time>2026-04-24T16:54:27.332Z</time></trkpt><trkpt lat="45.794182" lon="10.0389727"><ele>606.0</ele><time>2026-04-24T16:54:28.334Z</time></trkpt><trkpt lat="45.7941334" lon="10.0388109"><ele>607.5</ele><time>2026-04-24T16:54:29.333Z</time></trkpt><trkpt lat="45.7940818" lon="10.0386513"><ele>609.0</ele><time>2026-04-24T16:54:30.333Z</time></trkpt><trkpt lat="45.7940293" lon="10.0384899"><ele>609.0</ele><time>2026-04-24T16:54:31.334Z</time></trkpt><trkpt lat="45.7939808" lon="10.0383224"><ele>609.0</ele><time>2026-04-24T16:54:32.333Z</time></trkpt><trkpt lat="45.7939282" lon="10.0381715"><ele>609.0</ele><time>2026-04-24T16:54:33.333Z</time></trkpt><trkpt lat="45.7938736" lon="10.03803"><ele>609.0</ele><time>2026-04-24T16:54:34.332Z</time></trkpt><trkpt lat="45.7938132" lon="10.0378915"><ele>609.6</ele><time>2026-04-24T16:54:35.333Z</time></trkpt><trkpt lat="45.7937611" lon="10.037765"><ele>610.2</ele><time>2026-04-24T16:54:36.332Z</time></trkpt><trkpt lat="45.7937168" lon="10.0376455"><ele>610.8000000000001</ele><time>2026-04-24T16:54:37.333Z</time></trkpt><trkpt lat="45.7936731" lon="10.037535"><ele>611.4</ele><time>2026-04-24T16:54:38.331Z</time></trkpt><trkpt lat="45.7936298" lon="10.0374266"><ele>612.0</ele><time>2026-04-24T16:54:39.333Z</time></trkpt><trkpt lat="45.7935808" lon="10.0373275"><ele>612.1666666666666</ele><time>2026-04-24T16:54:40.333Z</time></trkpt><trkpt lat="45.7935251" lon="10.0372352"><ele>612.3333333333334</ele><time>2026-04-24T16:54:41.332Z</time></trkpt><trkpt lat="45.793465" lon="10.0371468"><ele>612.5</ele><time>2026-04-24T16:54:42.334Z</time></trkpt><trkpt lat="45.7934084" lon="10.037047"><ele>612.6666666666667</ele><time>2026-04-24T16:54:43.333Z</time></trkpt><trkpt lat="45.7933473" lon="10.0369493"><ele>612.8333333333334</ele><time>2026-04-24T16:54:44.332Z</time></trkpt><trkpt lat="45.7932872" lon="10.0368482"><ele>613.0</ele><time>2026-04-24T16:54:45.333Z</time></trkpt><trkpt lat="45.7932463" lon="10.0367312"><ele>612.6666666666667</ele><time>2026-04-24T16:54:46.333Z</time></trkpt><trkpt lat="45.7932016" lon="10.0366158"><ele>612.3333333333334</ele><time>2026-04-24T16:54:47.333Z</time></trkpt><trkpt lat="45.7931645" lon="10.036507"><ele>612.0</ele><time>2026-04-24T16:54:48.333Z</time></trkpt><trkpt lat="45.793141" lon="10.0364199"><ele>611.6666666666666</ele><time>2026-04-24T16:54:49.333Z</time></trkpt><trkpt lat="45.7931599" lon="10.036526"><ele>611.3333333333333</ele><time>2026-04-24T16:54:58.333Z</time></trkpt><trkpt lat="45.7931978" lon="10.0366023"><ele>611.0</ele><time>2026-04-24T16:54:59.333Z</time></trkpt><trkpt lat="45.7932402" lon="10.036708"><ele>610.6</ele><time>2026-04-24T16:55:00.333Z</time></trkpt><trkpt lat="45.7932816" lon="10.0368147"><ele>610.2</ele><time>2026-04-24T16:55:01.333Z</time></trkpt><trkpt lat="45.7933296" lon="10.0369194"><ele>609.8</ele><time>2026-04-24T16:55:02.333Z</time></trkpt><trkpt lat="45.7933871" lon="10.0370195"><ele>609.4</ele><time>2026-04-24T16:55:03.332Z</time></trkpt><trkpt lat="45.7934472" lon="10.0371193"><ele>609.0</ele><time>2026-04-24T16:55:04.333Z</time></trkpt><trkpt lat="45.7935089" lon="10.0372509"><ele>609.6</ele><time>2026-04-24T16:55:05.333Z</time></trkpt><trkpt lat="45.7935659" lon="10.0373691"><ele>610.2</ele><time>2026-04-24T16:55:06.332Z</time></trkpt><trkpt lat="45.7936189" lon="10.0374837"><ele>610.8000000000001</ele><time>2026-04-24T16:55:07.332Z</time></trkpt><trkpt lat="45.7936674" lon="10.0376"><ele>611.4</ele><time>2026-04-24T16:55:08.333Z</time></trkpt><trkpt lat="45.7937129" lon="10.0377284"><ele>612.0</ele><time>2026-04-24T16:55:09.332Z</time></trkpt><trkpt lat="45.7937672" lon="10.0378562"><ele>612.0</ele><time>2026-04-24T16:55:10.333Z</time></trkpt><trkpt lat="45.7938172" lon="10.0379876"><ele>612.0</ele><time>2026-04-24T16:55:11.332Z</time></trkpt><trkpt lat="45.7938711" lon="10.0381217"><ele>612.0</ele><time>2026-04-24T16:55:12.333Z</time></trkpt><trkpt lat="45.7939247" lon="10.0382648"><ele>612.0</ele><time>2026-04-24T16:55:13.333Z</time></trkpt><trkpt lat="45.7939707" lon="10.0384157"><ele>612.0</ele><time>2026-04-24T16:55:14.331Z</time></trkpt><trkpt lat="45.7940165" lon="10.0385655"><ele>611.25</ele><time>2026-04-24T16:55:15.333Z</time></trkpt><trkpt lat="45.7940617" lon="10.0387304"><ele>610.5</ele><time>2026-04-24T16:55:16.334Z</time></trkpt><trkpt lat="45.7941212" lon="10.0388814"><ele>609.75</ele><time>2026-04-24T16:55:17.333Z</time></trkpt><trkpt lat="45.7941881" lon="10.0390172"><ele>609.0</ele><time>2026-04-24T16:55:18.333Z</time></trkpt><trkpt lat="45.7942566" lon="10.0391376"><ele>609.4</ele><time>2026-04-24T16:55:19.332Z</time></trkpt><trkpt lat="45.7943199" lon="10.0392498"><ele>609.8</ele><time>2026-04-24T16:55:20.332Z</time></trkpt><trkpt lat="45.7943669" lon="10.0393676"><ele>610.2</ele><time>2026-04-24T16:55:21.332Z</time></trkpt><trkpt lat="45.7944162" lon="10.0394923"><ele>610.6</ele><time>2026-04-24T16:55:22.333Z</time></trkpt><trkpt lat="45.7944443" lon="10.0396074"><ele>611.0</ele><time>2026-04-24T16:55:23.332Z</time></trkpt><trkpt lat="45.7944791" lon="10.0397211"><ele>611.0</ele><time>2026-04-24T16:55:24.333Z</time></trkpt><trkpt lat="45.7945139" lon="10.0398203"><ele>611.0</ele><time>2026-04-24T16:55:25.332Z</time></trkpt><trkpt lat="45.7945587" lon="10.0398883"><ele>611.0</ele><time>2026-04-24T16:55:26.333Z</time></trkpt><trkpt lat="45.7946667" lon="10.03998"><ele>611.0</ele><time>2026-04-24T16:55:28.332Z</time></trkpt><trkpt lat="45.7947236" lon="10.0400454"><ele>611.0</ele><time>2026-04-24T16:55:29.333Z</time></trkpt><trkpt lat="45.7947859" lon="10.0400973"><ele>611.0</ele><time>2026-04-24T16:55:30.333Z</time></trkpt><trkpt lat="45.7948661" lon="10.0401657"><ele>611.0</ele><time>2026-04-24T16:55:32.333Z</time></trkpt><trkpt lat="45.7949353" lon="10.0401543"><ele>611.0</ele><time>2026-04-24T16:55:36.333Z</time></trkpt><trkpt lat="45.7949976" lon="10.0400655"><ele>611.0</ele><time>2026-04-24T16:55:39.332Z</time></trkpt><trkpt lat="45.7950552" lon="10.0399582"><ele>611.0</ele><time>2026-04-24T16:55:41.333Z</time></trkpt><trkpt lat="45.7951051" lon="10.0398605"><ele>611.0</ele><time>2026-04-24T16:55:43.333Z</time></trkpt><trkpt lat="45.7951601" lon="10.0397669"><ele>611.0</ele><time>2026-04-24T16:55:45.332Z</time></trkpt><trkpt lat="45.7952345" lon="10.0396866"><ele>614.0</ele><time>2026-04-24T16:55:47.333Z</time></trkpt><trkpt lat="45.7952842" lon="10.0396285"><ele>617.0</ele><time>2026-04-24T16:55:49.333Z</time></trkpt><trkpt lat="45.7953481" lon="10.0395442"><ele>620.0</ele><time>2026-04-24T16:55:52.333Z</time></trkpt><trkpt lat="45.7954164" lon="10.0394807"><ele>623.0</ele><time>2026-04-24T16:55:54.333Z</time></trkpt><trkpt lat="45.7954786" lon="10.0394471"><ele>626.0</ele><time>2026-04-24T16:55:57.333Z</time></trkpt><trkpt lat="45.7954289" lon="10.0395214"><ele>629.0</ele><time>2026-04-24T16:56:07.333Z</time></trkpt><trkpt lat="45.7953429" lon="10.0396105"><ele>629.0</ele><time>2026-04-24T16:56:09.333Z</time></trkpt><trkpt lat="45.7952515" lon="10.0397013"><ele>629.0</ele><time>2026-04-24T16:56:11.333Z</time></trkpt><trkpt lat="45.7951948" lon="10.0397437"><ele>629.0</ele><time>2026-04-24T16:56:12.333Z</time></trkpt><trkpt lat="45.7951268" lon="10.0398493"><ele>629.0</ele><time>2026-04-24T16:56:14.332Z</time></trkpt><trkpt lat="45.7950592" lon="10.0399881"><ele>629.0</ele><time>2026-04-24T16:56:16.333Z</time></trkpt><trkpt lat="45.7949637" lon="10.0400914"><ele>626.0</ele><time>2026-04-24T16:56:18.333Z</time></trkpt><trkpt lat="45.7948666" lon="10.0401261"><ele>623.0</ele><time>2026-04-24T16:56:20.334Z</time></trkpt><trkpt lat="45.7947725" lon="10.040091"><ele>620.0</ele><time>2026-04-24T16:56:22.333Z</time></trkpt><trkpt lat="45.7946751" lon="10.0400379"><ele>617.0</ele><time>2026-04-24T16:56:24.332Z</time></trkpt><trkpt lat="45.7946036" lon="10.0399879"><ele>614.0</ele><time>2026-04-24T16:56:26.333Z</time></trkpt><trkpt lat="45.7945511" lon="10.0399379"><ele>611.0</ele><time>2026-04-24T16:56:28.334Z</time></trkpt><trkpt lat="45.7944964" lon="10.0398139"><ele>611.0</ele><time>2026-04-24T16:56:30.332Z</time></trkpt><trkpt lat="45.7944646" lon="10.039667"><ele>611.0</ele><time>2026-04-24T16:56:32.333Z</time></trkpt><trkpt lat="45.7944279" lon="10.0395457"><ele>611.0</ele><time>2026-04-24T16:56:33.333Z</time></trkpt><trkpt lat="45.7943904" lon="10.0394157"><ele>611.0</ele><time>2026-04-24T16:56:34.332Z</time></trkpt><trkpt lat="45.7943237" lon="10.0392618"><ele>611.0</ele><time>2026-04-24T16:56:35.333Z</time></trkpt><trkpt lat="45.7942601" lon="10.0391249"><ele>610.5</ele><time>2026-04-24T16:56:36.332Z</time></trkpt><trkpt lat="45.7941881" lon="10.038998"><ele>610.0</ele><time>2026-04-24T16:56:37.331Z</time></trkpt><trkpt lat="45.794117" lon="10.038876"><ele>609.5</ele><time>2026-04-24T16:56:38.333Z</time></trkpt><trkpt lat="45.794068" lon="10.0387302"><ele>609.0</ele><time>2026-04-24T16:56:39.333Z</time></trkpt><trkpt lat="45.7940282" lon="10.0385786"><ele>609.0</ele><time>2026-04-24T16:56:40.332Z</time></trkpt><trkpt lat="45.7939916" lon="10.0384282"><ele>609.0</ele><time>2026-04-24T16:56:41.333Z</time></trkpt><trkpt lat="45.7939494" lon="10.0382818"><ele>609.0</ele><time>2026-04-24T16:56:42.333Z</time></trkpt><trkpt lat="45.7938978" lon="10.0381535"><ele>609.0</ele><time>2026-04-24T16:56:43.332Z</time></trkpt><trkpt lat="45.7938479" lon="10.0380219"><ele>609.0</ele><time>2026-04-24T16:56:44.333Z</time></trkpt><trkpt lat="45.7937986" lon="10.0378873"><ele>609.75</ele><time>2026-04-24T16:56:45.333Z</time></trkpt><trkpt lat="45.7937463" lon="10.0377567"><ele>610.5</ele><time>2026-04-24T16:56:46.334Z</time></trkpt><trkpt lat="45.7936938" lon="10.0376199"><ele>611.25</ele><time>2026-04-24T16:56:47.332Z</time></trkpt><trkpt lat="45.793638" lon="10.0374613"><ele>612.0</ele><time>2026-04-24T16:56:48.332Z</time></trkpt><trkpt lat="45.7935661" lon="10.0373154"><ele>611.25</ele><time>2026-04-24T16:56:49.333Z</time></trkpt><trkpt lat="45.7934896" lon="10.0371746"><ele>610.5</ele><time>2026-04-24T16:56:50.333Z</time></trkpt><trkpt lat="45.7934083" lon="10.03704"><ele>609.75</ele><time>2026-04-24T16:56:51.333Z</time></trkpt><trkpt lat="45.7933294" lon="10.0369054"><ele>609.0</ele><time>2026-04-24T16:56:52.332Z</time></trkpt><trkpt lat="45.7932546" lon="10.0367648"><ele>609.5</ele><time>2026-04-24T16:56:53.334Z</time></trkpt><trkpt lat="45.7931945" lon="10.0366179"><ele>610.0</ele><time>2026-04-24T16:56:54.332Z</time></trkpt><trkpt lat="45.7931468" lon="10.0364681"><ele>610.5</ele><time>2026-04-24T16:56:55.333Z</time></trkpt><trkpt lat="45.7931093" lon="10.0363064"><ele>611.0</ele><time>2026-04-24T16:56:56.332Z</time></trkpt><trkpt lat="45.7930947" lon="10.0361514"><ele>611.0</ele><time>2026-04-24T16:56:57.333Z</time></trkpt><trkpt lat="45.7930964" lon="10.0359944"><ele>611.0</ele><time>2026-04-24T16:56:58.332Z</time></trkpt><trkpt lat="45.7931053" lon="10.0358445"><ele>611.0</ele><time>2026-04-24T16:56:59.333Z</time></trkpt><trkpt lat="45.7931004" lon="10.0357361"><ele>611.0</ele><time>2026-04-24T16:57:00.333Z</time></trkpt><trkpt lat="45.7930711" lon="10.0356231"><ele>611.0</ele><time>2026-04-24T16:57:01.333Z</time></trkpt><trkpt lat="45.7930199" lon="10.0355146"><ele>611.8</ele><time>2026-04-24T16:57:02.333Z</time></trkpt><trkpt lat="45.7929458" lon="10.0354321"><ele>612.6</ele><time>2026-04-24T16:57:03.332Z</time></trkpt><trkpt lat="45.7928825" lon="10.0353604"><ele>613.4</ele><time>2026-04-24T16:57:04.334Z</time></trkpt><trkpt lat="45.7928343" lon="10.0352565"><ele>614.2</ele><time>2026-04-24T16:57:05.333Z</time></trkpt><trkpt lat="45.7928182" lon="10.0351044"><ele>615.0</ele><time>2026-04-24T16:57:06.333Z</time></trkpt><trkpt lat="45.7927983" lon="10.0349587"><ele>615.4</ele><time>2026-04-24T16:57:07.333Z</time></trkpt><trkpt lat="45.7927711" lon="10.0348088"><ele>615.8</ele><time>2026-04-24T16:57:08.333Z</time></trkpt><trkpt lat="45.7927412" lon="10.0346515"><ele>616.2</ele><time>2026-04-24T16:57:09.333Z</time></trkpt><trkpt lat="45.7927091" lon="10.0345061"><ele>616.6</ele><time>2026-04-24T16:57:10.333Z</time></trkpt><trkpt lat="45.792636" lon="10.0343767"><ele>617.0</ele><time>2026-04-24T16:57:11.333Z</time></trkpt><trkpt lat="45.7925594" lon="10.0342611"><ele>615.75</ele><time>2026-04-24T16:57:12.333Z</time></trkpt><trkpt lat="45.7924706" lon="10.0341318"><ele>614.5</ele><time>2026-04-24T16:57:13.333Z</time></trkpt><trkpt lat="45.7923948" lon="10.0339937"><ele>613.25</ele><time>2026-04-24T16:57:14.333Z</time></trkpt><trkpt lat="45.792314" lon="10.0338587"><ele>612.0</ele><time>2026-04-24T16:57:15.332Z</time></trkpt><trkpt lat="45.7922457" lon="10.0336942"><ele>612.0</ele><time>2026-04-24T16:57:16.333Z</time></trkpt><trkpt lat="45.7921737" lon="10.033535"><ele>612.0</ele><time>2026-04-24T16:57:17.332Z</time></trkpt><trkpt lat="45.7920986" lon="10.0333885"><ele>612.0</ele><time>2026-04-24T16:57:18.331Z</time></trkpt><trkpt lat="45.7920134" lon="10.0332483"><ele>612.0</ele><time>2026-04-24T16:57:19.333Z</time></trkpt><trkpt lat="45.7919196" lon="10.0330671"><ele>610.25</ele><time>2026-04-24T16:57:20.334Z</time></trkpt><trkpt lat="45.791832" lon="10.0329063"><ele>608.5</ele><time>2026-04-24T16:57:21.333Z</time></trkpt><trkpt lat="45.7917331" lon="10.0327496"><ele>606.75</ele><time>2026-04-24T16:57:22.332Z</time></trkpt><trkpt lat="45.7916172" lon="10.0326264"><ele>605.0</ele><time>2026-04-24T16:57:23.333Z</time></trkpt><trkpt lat="45.7915027" lon="10.0325248"><ele>604.25</ele><time>2026-04-24T16:57:24.333Z</time></trkpt><trkpt lat="45.7913862" lon="10.0324232"><ele>603.5</ele><time>2026-04-24T16:57:25.333Z</time></trkpt><trkpt lat="45.7912866" lon="10.0322928"><ele>602.75</ele><time>2026-04-24T16:57:26.332Z</time></trkpt><trkpt lat="45.7912052" lon="10.0321441"><ele>602.0</ele><time>2026-04-24T16:57:27.333Z</time></trkpt><trkpt lat="45.7911447" lon="10.0319704"><ele>602.0</ele><time>2026-04-24T16:57:28.333Z</time></trkpt><trkpt lat="45.7911079" lon="10.0317928"><ele>602.0</ele><time>2026-04-24T16:57:29.332Z</time></trkpt><trkpt lat="45.7910994" lon="10.0316134"><ele>602.0</ele><time>2026-04-24T16:57:30.333Z</time></trkpt><trkpt lat="45.7911262" lon="10.0314387"><ele>602.0</ele><time>2026-04-24T16:57:31.332Z</time></trkpt><trkpt lat="45.791169" lon="10.0312631"><ele>601.75</ele><time>2026-04-24T16:57:32.333Z</time></trkpt><trkpt lat="45.7911964" lon="10.0310729"><ele>601.5</ele><time>2026-04-24T16:57:33.333Z</time></trkpt><trkpt lat="45.7912127" lon="10.0308762"><ele>601.25</ele><time>2026-04-24T16:57:34.332Z</time></trkpt><trkpt lat="45.7912085" lon="10.0306708"><ele>601.0</ele><time>2026-04-24T16:57:35.334Z</time></trkpt><trkpt lat="45.7911971" lon="10.0304711"><ele>601.0</ele><time>2026-04-24T16:57:36.333Z</time></trkpt><trkpt lat="45.7911787" lon="10.0302833"><ele>601.0</ele><time>2026-04-24T16:57:37.333Z</time></trkpt><trkpt lat="45.7911597" lon="10.0301023"><ele>601.0</ele><time>2026-04-24T16:57:38.332Z</time></trkpt><trkpt lat="45.7911406" lon="10.0299235"><ele>601.0</ele><time>2026-04-24T16:57:39.333Z</time></trkpt><trkpt lat="45.7911227" lon="10.0297515"><ele>601.6</ele><time>2026-04-24T16:57:40.334Z</time></trkpt><trkpt lat="45.7911062" lon="10.0295835"><ele>602.2</ele><time>2026-04-24T16:57:41.332Z</time></trkpt><trkpt lat="45.7911006" lon="10.0294307"><ele>602.8</ele><time>2026-04-24T16:57:42.333Z</time></trkpt><trkpt lat="45.7910931" lon="10.0292817"><ele>603.4</ele><time>2026-04-24T16:57:43.333Z</time></trkpt><trkpt lat="45.7910264" lon="10.0291627"><ele>604.0</ele><time>2026-04-24T16:57:44.332Z</time></trkpt><trkpt lat="45.7909727" lon="10.0290543"><ele>602.2</ele><time>2026-04-24T16:57:45.332Z</time></trkpt><trkpt lat="45.7909009" lon="10.0289458"><ele>600.4</ele><time>2026-04-24T16:57:46.333Z</time></trkpt><trkpt lat="45.7908277" lon="10.0288329"><ele>598.6</ele><time>2026-04-24T16:57:47.333Z</time></trkpt><trkpt lat="45.7907631" lon="10.0287055"><ele>596.8</ele><time>2026-04-24T16:57:48.333Z</time></trkpt><trkpt lat="45.790691" lon="10.0285975"><ele>595.0</ele><time>2026-04-24T16:57:49.333Z</time></trkpt><trkpt lat="45.7906029" lon="10.0285267"><ele>595.0</ele><time>2026-04-24T16:57:50.333Z</time></trkpt><trkpt lat="45.7904757" lon="10.0284961"><ele>595.0</ele><time>2026-04-24T16:57:51.333Z</time></trkpt><trkpt lat="45.7903836" lon="10.0284247"><ele>595.0</ele><time>2026-04-24T16:57:52.332Z</time></trkpt><trkpt lat="45.7903026" lon="10.0283337"><ele>595.0</ele><time>2026-04-24T16:57:53.336Z</time></trkpt><trkpt lat="45.7902383" lon="10.0282265"><ele>595.0</ele><time>2026-04-24T16:57:54.333Z</time></trkpt><trkpt lat="45.7901966" lon="10.0280969"><ele>592.8</ele><time>2026-04-24T16:57:55.333Z</time></trkpt><trkpt lat="45.7901725" lon="10.0279621"><ele>590.6</ele><time>2026-04-24T16:57:56.335Z</time></trkpt><trkpt lat="45.790149" lon="10.0278233"><ele>588.4</ele><time>2026-04-24T16:57:57.332Z</time></trkpt><trkpt lat="45.7901374" lon="10.0276674"><ele>586.2</ele><time>2026-04-24T16:57:58.333Z</time></trkpt><trkpt lat="45.7901284" lon="10.027518"><ele>584.0</ele><time>2026-04-24T16:57:59.334Z</time></trkpt><trkpt lat="45.7901388" lon="10.0273727"><ele>583.5</ele><time>2026-04-24T16:58:00.333Z</time></trkpt><trkpt lat="45.7901233" lon="10.0272016"><ele>583.0</ele><time>2026-04-24T16:58:01.334Z</time></trkpt><trkpt lat="45.7901176" lon="10.0270355"><ele>582.5</ele><time>2026-04-24T16:58:02.332Z</time></trkpt><trkpt lat="45.7901105" lon="10.0268735"><ele>582.0</ele><time>2026-04-24T16:58:03.332Z</time></trkpt><trkpt lat="45.7900526" lon="10.0267481"><ele>582.2</ele><time>2026-04-24T16:58:04.333Z</time></trkpt><trkpt lat="45.7900131" lon="10.0266161"><ele>582.4000000000001</ele><time>2026-04-24T16:58:05.332Z</time></trkpt><trkpt lat="45.7899778" lon="10.0265294"><ele>582.5999999999999</ele><time>2026-04-24T16:58:06.332Z</time></trkpt><trkpt lat="45.7899053" lon="10.0264141"><ele>582.8</ele><time>2026-04-24T16:58:07.332Z</time></trkpt><trkpt lat="45.7898374" lon="10.0263211"><ele>583.0</ele><time>2026-04-24T16:58:08.332Z</time></trkpt><trkpt lat="45.7897654" lon="10.0262326"><ele>583.0</ele><time>2026-04-24T16:58:09.333Z</time></trkpt><trkpt lat="45.7896959" lon="10.0261523"><ele>583.0</ele><time>2026-04-24T16:58:10.333Z</time></trkpt><trkpt lat="45.7896248" lon="10.0260728"><ele>583.0</ele><time>2026-04-24T16:58:11.332Z</time></trkpt><trkpt lat="45.789559" lon="10.0260028"><ele>583.0</ele><time>2026-04-24T16:58:12.333Z</time></trkpt><trkpt lat="45.7894962" lon="10.0259405"><ele>583.0</ele><time>2026-04-24T16:58:13.333Z</time></trkpt><trkpt lat="45.7894598" lon="10.0258387"><ele>583.0</ele><time>2026-04-24T16:58:14.333Z</time></trkpt><trkpt lat="45.7894306" lon="10.0257435"><ele>582.5</ele><time>2026-04-24T16:58:15.332Z</time></trkpt><trkpt lat="45.7894239" lon="10.0256455"><ele>582.0</ele><time>2026-04-24T16:58:16.333Z</time></trkpt><trkpt lat="45.7894188" lon="10.0255453"><ele>581.5</ele><time>2026-04-24T16:58:17.333Z</time></trkpt><trkpt lat="45.7893883" lon="10.0254065"><ele>581.0</ele><time>2026-04-24T16:58:19.332Z</time></trkpt><trkpt lat="45.7893137" lon="10.0253793"><ele>580.5</ele><time>2026-04-24T16:58:21.333Z</time></trkpt><trkpt lat="45.7892288" lon="10.0254263"><ele>580.0</ele><time>2026-04-24T16:58:23.333Z</time></trkpt><trkpt lat="45.7891672" lon="10.0254611"><ele>579.2</ele><time>2026-04-24T16:58:24.332Z</time></trkpt><trkpt lat="45.7890502" lon="10.0255604"><ele>578.4</ele><time>2026-04-24T16:58:26.333Z</time></trkpt><trkpt lat="45.7889709" lon="10.0256346"><ele>577.6</ele><time>2026-04-24T16:58:27.332Z</time></trkpt><trkpt lat="45.7889058" lon="10.0257111"><ele>576.8</ele><time>2026-04-24T16:58:28.331Z</time></trkpt><trkpt lat="45.7888567" lon="10.0257948"><ele>576.0</ele><time>2026-04-24T16:58:29.332Z</time></trkpt><trkpt lat="45.7888131" lon="10.0258946"><ele>576.0</ele><time>2026-04-24T16:58:30.332Z</time></trkpt><trkpt lat="45.7887814" lon="10.026021"><ele>576.0</ele><time>2026-04-24T16:58:31.332Z</time></trkpt><trkpt lat="45.7887556" lon="10.0261339"><ele>576.0</ele><time>2026-04-24T16:58:32.333Z</time></trkpt><trkpt lat="45.7887626" lon="10.0262814"><ele>576.0</ele><time>2026-04-24T16:58:33.332Z</time></trkpt><trkpt lat="45.7887562" lon="10.0264153"><ele>576.0</ele><time>2026-04-24T16:58:34.333Z</time></trkpt><trkpt lat="45.7887472" lon="10.0265509"><ele>574.8</ele><time>2026-04-24T16:58:35.332Z</time></trkpt><trkpt lat="45.7887327" lon="10.0266808"><ele>573.6</ele><time>2026-04-24T16:58:36.332Z</time></trkpt><trkpt lat="45.7887215" lon="10.0268135"><ele>572.4</ele><time>2026-04-24T16:58:37.332Z</time></trkpt><trkpt lat="45.7887119" lon="10.0269427"><ele>571.2</ele><time>2026-04-24T16:58:38.332Z</time></trkpt><trkpt lat="45.788704" lon="10.0270937"><ele>570.0</ele><time>2026-04-24T16:58:39.333Z</time></trkpt><trkpt lat="45.7886774" lon="10.0272372"><ele>570.0</ele><time>2026-04-24T16:58:40.334Z</time></trkpt><trkpt lat="45.7886429" lon="10.0273654"><ele>570.0</ele><time>2026-04-24T16:58:41.333Z</time></trkpt><trkpt lat="45.7886043" lon="10.0274998"><ele>570.0</ele><time>2026-04-24T16:58:42.334Z</time></trkpt><trkpt lat="45.7885695" lon="10.0276281"><ele>570.0</ele><time>2026-04-24T16:58:43.333Z</time></trkpt><trkpt lat="45.7885331" lon="10.0277577"><ele>570.0</ele><time>2026-04-24T16:58:44.332Z</time></trkpt><trkpt lat="45.788491" lon="10.0278786"><ele>566.0</ele><time>2026-04-24T16:58:45.332Z</time></trkpt><trkpt lat="45.7884523" lon="10.0280072"><ele>562.0</ele><time>2026-04-24T16:58:46.332Z</time></trkpt><trkpt lat="45.7884112" lon="10.0281322"><ele>558.0</ele><time>2026-04-24T16:58:47.333Z</time></trkpt><trkpt lat="45.7883736" lon="10.0282498"><ele>554.0</ele><time>2026-04-24T16:58:48.331Z</time></trkpt><trkpt lat="45.7883351" lon="10.0283681"><ele>550.0</ele><time>2026-04-24T16:58:49.333Z</time></trkpt><trkpt lat="45.7883033" lon="10.0284852"><ele>549.6666666666667</ele><time>2026-04-24T16:58:50.332Z</time></trkpt><trkpt lat="45.7882701" lon="10.0286049"><ele>549.3333333333334</ele><time>2026-04-24T16:58:51.333Z</time></trkpt><trkpt lat="45.78823" lon="10.0287205"><ele>549.0</ele><time>2026-04-24T16:58:52.332Z</time></trkpt><trkpt lat="45.7881942" lon="10.028833"><ele>548.6666666666666</ele><time>2026-04-24T16:58:53.333Z</time></trkpt><trkpt lat="45.7881237" lon="10.0288921"><ele>548.3333333333333</ele><time>2026-04-24T16:58:54.333Z</time></trkpt><trkpt lat="45.7880526" lon="10.0289111"><ele>548.0</ele><time>2026-04-24T16:58:55.334Z</time></trkpt><trkpt lat="45.7879909" lon="10.0288746"><ele>548.0</ele><time>2026-04-24T16:58:56.333Z</time></trkpt><trkpt lat="45.7879374" lon="10.0288066"><ele>548.0</ele><time>2026-04-24T16:58:57.333Z</time></trkpt><trkpt lat="45.7878788" lon="10.0286921"><ele>548.0</ele><time>2026-04-24T16:58:58.333Z</time></trkpt><trkpt lat="45.7878187" lon="10.0285775"><ele>548.0</ele><time>2026-04-24T16:58:59.333Z</time></trkpt><trkpt lat="45.7877517" lon="10.0284532"><ele>548.0</ele><time>2026-04-24T16:59:00.334Z</time></trkpt><trkpt lat="45.7876784" lon="10.0283352"><ele>546.8</ele><time>2026-04-24T16:59:01.332Z</time></trkpt><trkpt lat="45.7875957" lon="10.0282257"><ele>545.5999999999999</ele><time>2026-04-24T16:59:02.333Z</time></trkpt><trkpt lat="45.7875137" lon="10.0281188"><ele>544.4000000000001</ele><time>2026-04-24T16:59:03.333Z</time></trkpt><trkpt lat="45.7874249" lon="10.0280172"><ele>543.2</ele><time>2026-04-24T16:59:04.332Z</time></trkpt><trkpt lat="45.7873409" lon="10.02792"><ele>542.0</ele><time>2026-04-24T16:59:05.333Z</time></trkpt><trkpt lat="45.7872553" lon="10.0278195"><ele>542.0</ele><time>2026-04-24T16:59:06.334Z</time></trkpt><trkpt lat="45.7871667" lon="10.027724"><ele>542.0</ele><time>2026-04-24T16:59:07.333Z</time></trkpt><trkpt lat="45.7870729" lon="10.0276249"><ele>542.0</ele><time>2026-04-24T16:59:08.332Z</time></trkpt><trkpt lat="45.7869805" lon="10.0275269"><ele>542.0</ele><time>2026-04-24T16:59:09.333Z</time></trkpt><trkpt lat="45.7868854" lon="10.027417"><ele>539.25</ele><time>2026-04-24T16:59:10.333Z</time></trkpt><trkpt lat="45.7867926" lon="10.0273106"><ele>536.5</ele><time>2026-04-24T16:59:11.333Z</time></trkpt><trkpt lat="45.786693" lon="10.0272214"><ele>533.75</ele><time>2026-04-24T16:59:12.332Z</time></trkpt><trkpt lat="45.7865875" lon="10.0271409"><ele>531.0</ele><time>2026-04-24T16:59:13.333Z</time></trkpt><trkpt lat="45.7864756" lon="10.0270819"><ele>531.0</ele><time>2026-04-24T16:59:14.332Z</time></trkpt><trkpt lat="45.7863602" lon="10.0270272"><ele>531.0</ele><time>2026-04-24T16:59:15.331Z</time></trkpt><trkpt lat="45.7862385" lon="10.0269957"><ele>531.0</ele><time>2026-04-24T16:59:16.333Z</time></trkpt><trkpt lat="45.7861179" lon="10.0269775"><ele>531.0</ele><time>2026-04-24T16:59:17.333Z</time></trkpt><trkpt lat="45.7859959" lon="10.0269614"><ele>526.5</ele><time>2026-04-24T16:59:18.333Z</time></trkpt><trkpt lat="45.7858747" lon="10.0269404"><ele>522.0</ele><time>2026-04-24T16:59:19.333Z</time></trkpt><trkpt lat="45.7857585" lon="10.0269171"><ele>517.5</ele><time>2026-04-24T16:59:20.332Z</time></trkpt><trkpt lat="45.7856502" lon="10.0268799"><ele>513.0</ele><time>2026-04-24T16:59:21.333Z</time></trkpt><trkpt lat="45.7855406" lon="10.0268323"><ele>513.0</ele><time>2026-04-24T16:59:22.332Z</time></trkpt><trkpt lat="45.785439" lon="10.0267676"><ele>513.0</ele><time>2026-04-24T16:59:23.333Z</time></trkpt><trkpt lat="45.7853477" lon="10.0266871"><ele>513.0</ele><time>2026-04-24T16:59:24.333Z</time></trkpt><trkpt lat="45.7852591" lon="10.0265912"><ele>513.0</ele><time>2026-04-24T16:59:25.333Z</time></trkpt><trkpt lat="45.7851851" lon="10.0264889"><ele>513.0</ele><time>2026-04-24T16:59:26.333Z</time></trkpt><trkpt lat="45.7851045" lon="10.026385"><ele>512.4</ele><time>2026-04-24T16:59:27.333Z</time></trkpt><trkpt lat="45.7850215" lon="10.0262845"><ele>511.79999999999995</ele><time>2026-04-24T16:59:28.332Z</time></trkpt><trkpt lat="45.7849423" lon="10.0261845"><ele>511.2</ele><time>2026-04-24T16:59:29.333Z</time></trkpt><trkpt lat="45.7848703" lon="10.0260802"><ele>510.6</ele><time>2026-04-24T16:59:30.334Z</time></trkpt><trkpt lat="45.7847966" lon="10.0259785"><ele>510.0</ele><time>2026-04-24T16:59:31.333Z</time></trkpt><trkpt lat="45.784723" lon="10.0258657"><ele>510.6</ele><time>2026-04-24T16:59:32.332Z</time></trkpt><trkpt lat="45.7846533" lon="10.0257575"><ele>511.2</ele><time>2026-04-24T16:59:33.331Z</time></trkpt><trkpt lat="45.784578" lon="10.0256463"><ele>511.79999999999995</ele><time>2026-04-24T16:59:34.334Z</time></trkpt><trkpt lat="45.7845053" lon="10.0255281"><ele>512.4</ele><time>2026-04-24T16:59:35.332Z</time></trkpt><trkpt lat="45.7844343" lon="10.0254084"><ele>513.0</ele><time>2026-04-24T16:59:36.332Z</time></trkpt><trkpt lat="45.784363" lon="10.0252898"><ele>511.4</ele><time>2026-04-24T16:59:37.333Z</time></trkpt><trkpt lat="45.7842937" lon="10.0251615"><ele>509.79999999999995</ele><time>2026-04-24T16:59:38.332Z</time></trkpt><trkpt lat="45.784231" lon="10.025035"><ele>508.2</ele><time>2026-04-24T16:59:39.333Z</time></trkpt><trkpt lat="45.7841844" lon="10.024904"><ele>506.6</ele><time>2026-04-24T16:59:40.333Z</time></trkpt><trkpt lat="45.7841426" lon="10.024761"><ele>505.0</ele><time>2026-04-24T16:59:41.333Z</time></trkpt><trkpt lat="45.7840975" lon="10.0246241"><ele>505.0</ele><time>2026-04-24T16:59:42.332Z</time></trkpt><trkpt lat="45.7840468" lon="10.024493"><ele>505.0</ele><time>2026-04-24T16:59:43.334Z</time></trkpt><trkpt lat="45.7839889" lon="10.0243662"><ele>505.0</ele><time>2026-04-24T16:59:44.332Z</time></trkpt><trkpt lat="45.7839356" lon="10.0242407"><ele>505.0</ele><time>2026-04-24T16:59:45.333Z</time></trkpt><trkpt lat="45.7838959" lon="10.0241055"><ele>505.0</ele><time>2026-04-24T16:59:46.333Z</time></trkpt><trkpt lat="45.7838535" lon="10.0239698"><ele>505.6</ele><time>2026-04-24T16:59:47.333Z</time></trkpt><trkpt lat="45.7838096" lon="10.0238225"><ele>506.2</ele><time>2026-04-24T16:59:48.333Z</time></trkpt><trkpt lat="45.7837689" lon="10.0236744"><ele>506.79999999999995</ele><time>2026-04-24T16:59:49.332Z</time></trkpt><trkpt lat="45.7837334" lon="10.0235308"><ele>507.4</ele><time>2026-04-24T16:59:50.333Z</time></trkpt><trkpt lat="45.7836953" lon="10.0233871"><ele>508.0</ele><time>2026-04-24T16:59:51.333Z</time></trkpt><trkpt lat="45.7836571" lon="10.0232448"><ele>508.59999999999997</ele><time>2026-04-24T16:59:52.332Z</time></trkpt><trkpt lat="45.7836248" lon="10.0230927"><ele>509.19999999999993</ele><time>2026-04-24T16:59:53.332Z</time></trkpt><trkpt lat="45.7835899" lon="10.0229334"><ele>509.8</ele><time>2026-04-24T16:59:54.332Z</time></trkpt><trkpt lat="45.783561" lon="10.0227804"><ele>510.4</ele><time>2026-04-24T16:59:55.333Z</time></trkpt><trkpt lat="45.7835307" lon="10.0226323"><ele>511.0</ele><time>2026-04-24T16:59:56.333Z</time></trkpt><trkpt lat="45.7835121" lon="10.0224772"><ele>504.5</ele><time>2026-04-24T16:59:57.332Z</time></trkpt><trkpt lat="45.7834991" lon="10.0223186"><ele>498.0</ele><time>2026-04-24T16:59:58.334Z</time></trkpt><trkpt lat="45.7834836" lon="10.0221497"><ele>491.5</ele><time>2026-04-24T16:59:59.334Z</time></trkpt><trkpt lat="45.7834774" lon="10.0219946"><ele>485.0</ele><time>2026-04-24T17:00:00.333Z</time></trkpt><trkpt lat="45.7834759" lon="10.0218331"><ele>485.0</ele><time>2026-04-24T17:00:01.333Z</time></trkpt><trkpt lat="45.783483" lon="10.0216827"><ele>485.0</ele><time>2026-04-24T17:00:02.334Z</time></trkpt><trkpt lat="45.783491" lon="10.0215362"><ele>485.0</ele><time>2026-04-24T17:00:03.333Z</time></trkpt><trkpt lat="45.7834927" lon="10.0213784"><ele>485.0</ele><time>2026-04-24T17:00:04.333Z</time></trkpt><trkpt lat="45.7834873" lon="10.021223"><ele>485.0</ele><time>2026-04-24T17:00:05.332Z</time></trkpt><trkpt lat="45.783476" lon="10.02107"><ele>484.0</ele><time>2026-04-24T17:00:06.333Z</time></trkpt><trkpt lat="45.7834661" lon="10.0209221"><ele>483.0</ele><time>2026-04-24T17:00:07.333Z</time></trkpt><trkpt lat="45.7834419" lon="10.0207756"><ele>482.0</ele><time>2026-04-24T17:00:08.332Z</time></trkpt><trkpt lat="45.7834231" lon="10.0206337"><ele>481.0</ele><time>2026-04-24T17:00:09.333Z</time></trkpt><trkpt lat="45.7834005" lon="10.020499"><ele>480.0</ele><time>2026-04-24T17:00:10.332Z</time></trkpt><trkpt lat="45.7833798" lon="10.0203598"><ele>480.0</ele><time>2026-04-24T17:00:11.333Z</time></trkpt><trkpt lat="45.7833568" lon="10.0202228"><ele>480.0</ele><time>2026-04-24T17:00:12.333Z</time></trkpt><trkpt lat="45.7833499" lon="10.0201142"><ele>480.0</ele><time>2026-04-24T17:00:13.333Z</time></trkpt><trkpt lat="45.7833358" lon="10.0199906"><ele>480.0</ele><time>2026-04-24T17:00:14.333Z</time></trkpt><trkpt lat="45.7833257" lon="10.0198817"><ele>480.0</ele><time>2026-04-24T17:00:15.333Z</time></trkpt><trkpt lat="45.783312" lon="10.0197803"><ele>480.0</ele><time>2026-04-24T17:00:16.332Z</time></trkpt><trkpt lat="45.7832313" lon="10.0197188"><ele>480.0</ele><time>2026-04-24T17:00:18.332Z</time></trkpt><trkpt lat="45.7831406" lon="10.0197645"><ele>480.0</ele><time>2026-04-24T17:00:20.332Z</time></trkpt><trkpt lat="45.7831422" lon="10.0198847"><ele>480.0</ele><time>2026-04-24T17:00:21.333Z</time></trkpt><trkpt lat="45.7831401" lon="10.0199756"><ele>480.0</ele><time>2026-04-24T17:00:22.332Z</time></trkpt><trkpt lat="45.7831349" lon="10.0200842"><ele>480.0</ele><time>2026-04-24T17:00:23.331Z</time></trkpt><trkpt lat="45.7831188" lon="10.0202014"><ele>480.0</ele><time>2026-04-24T17:00:24.332Z</time></trkpt><trkpt lat="45.7830944" lon="10.0203199"><ele>480.0</ele><time>2026-04-24T17:00:25.333Z</time></trkpt><trkpt lat="45.7830574" lon="10.0204252"><ele>480.0</ele><time>2026-04-24T17:00:26.334Z</time></trkpt><trkpt lat="45.7830092" lon="10.0205188"><ele>480.0</ele><time>2026-04-24T17:00:27.333Z</time></trkpt><trkpt lat="45.7829464" lon="10.0206058"><ele>480.0</ele><time>2026-04-24T17:00:28.333Z</time></trkpt><trkpt lat="45.78289" lon="10.0206856"><ele>480.0</ele><time>2026-04-24T17:00:29.333Z</time></trkpt><trkpt lat="45.7828317" lon="10.020763"><ele>480.0</ele><time>2026-04-24T17:00:30.331Z</time></trkpt><trkpt lat="45.782767" lon="10.0208397"><ele>480.0</ele><time>2026-04-24T17:00:31.333Z</time></trkpt><trkpt lat="45.7827144" lon="10.0209286"><ele>480.0</ele><time>2026-04-24T17:00:32.333Z</time></trkpt><trkpt lat="45.7826594" lon="10.021013"><ele>480.0</ele><time>2026-04-24T17:00:33.332Z</time></trkpt><trkpt lat="45.7826293" lon="10.0210928"><ele>480.0</ele><time>2026-04-24T17:00:34.333Z</time></trkpt><trkpt lat="45.7825842" lon="10.0212102"><ele>480.0</ele><time>2026-04-24T17:00:36.333Z</time></trkpt><trkpt lat="45.7825013" lon="10.0211975"><ele>480.0</ele><time>2026-04-24T17:00:39.333Z</time></trkpt><trkpt lat="45.7824563" lon="10.0210629"><ele>475.4</ele><time>2026-04-24T17:00:41.333Z</time></trkpt><trkpt lat="45.7824343" lon="10.0209627"><ele>470.8</ele><time>2026-04-24T17:00:42.334Z</time></trkpt><trkpt lat="45.7823858" lon="10.0208158"><ele>466.20000000000005</ele><time>2026-04-24T17:00:44.334Z</time></trkpt><trkpt lat="45.7823269" lon="10.0206687"><ele>461.6</ele><time>2026-04-24T17:00:46.332Z</time></trkpt><trkpt lat="45.7822589" lon="10.0205286"><ele>457.0</ele><time>2026-04-24T17:00:48.333Z</time></trkpt><trkpt lat="45.7821949" lon="10.0204197"><ele>456.33333333333337</ele><time>2026-04-24T17:00:50.331Z</time></trkpt><trkpt lat="45.7821197" lon="10.0203409"><ele>455.6666666666667</ele><time>2026-04-24T17:00:52.333Z</time></trkpt><trkpt lat="45.7820396" lon="10.0202676"><ele>455.0</ele><time>2026-04-24T17:00:54.332Z</time></trkpt><trkpt lat="45.7819712" lon="10.0201932"><ele>454.33333333333337</ele><time>2026-04-24T17:00:56.332Z</time></trkpt><trkpt lat="45.7818928" lon="10.0201595"><ele>453.6666666666667</ele><time>2026-04-24T17:00:59.332Z</time></trkpt><trkpt lat="45.7818757" lon="10.0202575"><ele>453.0</ele><time>2026-04-24T17:01:02.333Z</time></trkpt><trkpt lat="45.7818119" lon="10.0203658"><ele>451.14285714285705</ele><time>2026-04-24T17:01:05.332Z</time></trkpt><trkpt lat="45.7817189" lon="10.0203895"><ele>449.2857142857143</ele><time>2026-04-24T17:01:09.333Z</time></trkpt><trkpt lat="45.7816717" lon="10.0203283"><ele>447.4285714285714</ele><time>2026-04-24T17:01:13.333Z</time></trkpt><trkpt lat="45.7816358" lon="10.0202419"><ele>445.57142857142856</ele><time>2026-04-24T17:01:17.333Z</time></trkpt><trkpt lat="45.7816393" lon="10.0201409"><ele>443.71428571428567</ele><time>2026-04-24T17:01:20.333Z</time></trkpt><trkpt lat="45.7816986" lon="10.0200792"><ele>441.85714285714283</ele><time>2026-04-24T17:01:23.332Z</time></trkpt><trkpt lat="45.7816836" lon="10.0199831"><ele>440.0</ele><time>2026-04-24T17:02:22.332Z</time></trkpt><trkpt lat="45.7816467" lon="10.0198902"><ele>439.2</ele><time>2026-04-24T17:04:15.333Z</time></trkpt><trkpt lat="45.78168" lon="10.0197058"><ele>438.4</ele><time>2026-04-24T17:04:17.333Z</time></trkpt><trkpt lat="45.7817086" lon="10.0195843"><ele>437.6</ele><time>2026-04-24T17:04:18.333Z</time></trkpt><trkpt lat="45.7817443" lon="10.019445"><ele>436.8</ele><time>2026-04-24T17:04:19.333Z</time></trkpt><trkpt lat="45.7817883" lon="10.0193055"><ele>436.0</ele><time>2026-04-24T17:04:20.332Z</time></trkpt><trkpt lat="45.781835" lon="10.0191573"><ele>437.25</ele><time>2026-04-24T17:04:21.332Z</time></trkpt><trkpt lat="45.7818884" lon="10.0190089"><ele>438.5</ele><time>2026-04-24T17:04:22.331Z</time></trkpt><trkpt lat="45.781944" lon="10.0188579"><ele>439.75</ele><time>2026-04-24T17:04:23.333Z</time></trkpt><trkpt lat="45.7820136" lon="10.0187002"><ele>441.0</ele><time>2026-04-24T17:04:24.333Z</time></trkpt><trkpt lat="45.7820741" lon="10.0185507"><ele>441.0</ele><time>2026-04-24T17:04:25.333Z</time></trkpt><trkpt lat="45.7821413" lon="10.018399"><ele>441.0</ele><time>2026-04-24T17:04:26.334Z</time></trkpt><trkpt lat="45.7822101" lon="10.018246"><ele>441.0</ele><time>2026-04-24T17:04:27.333Z</time></trkpt><trkpt lat="45.7822832" lon="10.018098"><ele>441.0</ele><time>2026-04-24T17:04:28.334Z</time></trkpt><trkpt lat="45.7823594" lon="10.0179475"><ele>439.75</ele><time>2026-04-24T17:04:29.332Z</time></trkpt><trkpt lat="45.7824584" lon="10.0178114"><ele>438.5</ele><time>2026-04-24T17:04:30.332Z</time></trkpt><trkpt lat="45.7825532" lon="10.0176694"><ele>437.25</ele><time>2026-04-24T17:04:31.332Z</time></trkpt><trkpt lat="45.7826538" lon="10.0175203"><ele>436.0</ele><time>2026-04-24T17:04:32.333Z</time></trkpt><trkpt lat="45.7827541" lon="10.0173774"><ele>436.0</ele><time>2026-04-24T17:04:33.333Z</time></trkpt><trkpt lat="45.7828527" lon="10.0172248"><ele>436.0</ele><time>2026-04-24T17:04:34.332Z</time></trkpt><trkpt lat="45.7829434" lon="10.0170598"><ele>436.0</ele><time>2026-04-24T17:04:35.333Z</time></trkpt><trkpt lat="45.7830299" lon="10.0168983"><ele>436.0</ele><time>2026-04-24T17:04:36.331Z</time></trkpt><trkpt lat="45.7831164" lon="10.0167288"><ele>433.5</ele><time>2026-04-24T17:04:37.332Z</time></trkpt><trkpt lat="45.7832028" lon="10.0165566"><ele>431.0</ele><time>2026-04-24T17:04:38.333Z</time></trkpt><trkpt lat="45.7832833" lon="10.0163828"><ele>428.5</ele><time>2026-04-24T17:04:39.333Z</time></trkpt><trkpt lat="45.7833544" lon="10.0162165"><ele>426.0</ele><time>2026-04-24T17:04:40.332Z</time></trkpt><trkpt lat="45.7834296" lon="10.0160192"><ele>426.0</ele><time>2026-04-24T17:04:41.332Z</time></trkpt><trkpt lat="45.783483" lon="10.0158284"><ele>426.0</ele><time>2026-04-24T17:04:42.333Z</time></trkpt><trkpt lat="45.7835283" lon="10.0156332"><ele>426.0</ele><time>2026-04-24T17:04:43.333Z</time></trkpt><trkpt lat="45.7835781" lon="10.0154427"><ele>426.0</ele><time>2026-04-24T17:04:44.333Z</time></trkpt><trkpt lat="45.7836294" lon="10.0152612"><ele>426.0</ele><time>2026-04-24T17:04:45.333Z</time></trkpt><trkpt lat="45.7836848" lon="10.0150815"><ele>426.0</ele><time>2026-04-24T17:04:46.332Z</time></trkpt><trkpt lat="45.7837455" lon="10.0149145"><ele>426.0</ele><time>2026-04-24T17:04:47.333Z</time></trkpt><trkpt lat="45.7837999" lon="10.0147493"><ele>426.0</ele><time>2026-04-24T17:04:48.332Z</time></trkpt><trkpt lat="45.7838699" lon="10.0146156"><ele>427.0</ele><time>2026-04-24T17:04:49.332Z</time></trkpt><trkpt lat="45.7839618" lon="10.0145323"><ele>428.0</ele><time>2026-04-24T17:04:50.332Z</time></trkpt><trkpt lat="45.7840666" lon="10.0145084"><ele>429.0</ele><time>2026-04-24T17:04:51.333Z</time></trkpt><trkpt lat="45.7841819" lon="10.0145235"><ele>430.0</ele><time>2026-04-24T17:04:52.332Z</time></trkpt><trkpt lat="45.7842945" lon="10.0145206"><ele>431.0</ele><time>2026-04-24T17:04:53.332Z</time></trkpt><trkpt lat="45.784402" lon="10.014473"><ele>431.0</ele><time>2026-04-24T17:04:54.332Z</time></trkpt><trkpt lat="45.7844902" lon="10.0143592"><ele>431.0</ele><time>2026-04-24T17:04:55.333Z</time></trkpt><trkpt lat="45.7845503" lon="10.0141956"><ele>431.0</ele><time>2026-04-24T17:04:56.332Z</time></trkpt><trkpt lat="45.7845977" lon="10.0140086"><ele>431.0</ele><time>2026-04-24T17:04:57.332Z</time></trkpt><trkpt lat="45.784643" lon="10.0138118"><ele>425.66666666666663</ele><time>2026-04-24T17:04:58.333Z</time></trkpt><trkpt lat="45.7846859" lon="10.0136086"><ele>420.33333333333337</ele><time>2026-04-24T17:04:59.333Z</time></trkpt><trkpt lat="45.7847365" lon="10.0134056"><ele>415.0</ele><time>2026-04-24T17:05:00.332Z</time></trkpt><trkpt lat="45.7847902" lon="10.0132026"><ele>411.0</ele><time>2026-04-24T17:05:01.332Z</time></trkpt><trkpt lat="45.7848629" lon="10.0130053"><ele>407.0</ele><time>2026-04-24T17:05:02.333Z</time></trkpt><trkpt lat="45.7849556" lon="10.0128397"><ele>403.0</ele><time>2026-04-24T17:05:03.332Z</time></trkpt><trkpt lat="45.7850739" lon="10.0126841"><ele>402.25</ele><time>2026-04-24T17:05:04.332Z</time></trkpt><trkpt lat="45.7851826" lon="10.0125402"><ele>401.5</ele><time>2026-04-24T17:05:05.333Z</time></trkpt><trkpt lat="45.7852795" lon="10.0123825"><ele>400.75</ele><time>2026-04-24T17:05:06.332Z</time></trkpt><trkpt lat="45.7853672" lon="10.0122322"><ele>400.0</ele><time>2026-04-24T17:05:07.333Z</time></trkpt><trkpt lat="45.7854494" lon="10.0120821"><ele>400.0</ele><time>2026-04-24T17:05:08.332Z</time></trkpt><trkpt lat="45.785528" lon="10.01192"><ele>400.0</ele><time>2026-04-24T17:05:09.331Z</time></trkpt><trkpt lat="45.7855974" lon="10.0117586"><ele>400.0</ele><time>2026-04-24T17:05:10.332Z</time></trkpt><trkpt lat="45.7856557" lon="10.0115982"><ele>400.0</ele><time>2026-04-24T17:05:11.331Z</time></trkpt><trkpt lat="45.7857177" lon="10.0114409"><ele>397.0</ele><time>2026-04-24T17:05:12.332Z</time></trkpt><trkpt lat="45.7857905" lon="10.0112879"><ele>394.0</ele><time>2026-04-24T17:05:13.333Z</time></trkpt><trkpt lat="45.7858774" lon="10.0111397"><ele>391.0</ele><time>2026-04-24T17:05:14.332Z</time></trkpt><trkpt lat="45.7859641" lon="10.0109893"><ele>388.0</ele><time>2026-04-24T17:05:15.333Z</time></trkpt><trkpt lat="45.7860497" lon="10.0108404"><ele>385.0</ele><time>2026-04-24T17:05:16.332Z</time></trkpt><trkpt lat="45.7861371" lon="10.0107085"><ele>382.0</ele><time>2026-04-24T17:05:17.331Z</time></trkpt><trkpt lat="45.78626" lon="10.0106415"><ele>379.0</ele><time>2026-04-24T17:05:18.333Z</time></trkpt><trkpt lat="45.7863819" lon="10.0106085"><ele>376.0</ele><time>2026-04-24T17:05:19.333Z</time></trkpt><trkpt lat="45.7865108" lon="10.0106008"><ele>376.0</ele><time>2026-04-24T17:05:20.333Z</time></trkpt><trkpt lat="45.7866407" lon="10.0106467"><ele>376.0</ele><time>2026-04-24T17:05:21.332Z</time></trkpt><trkpt lat="45.7867615" lon="10.0107419"><ele>376.0</ele><time>2026-04-24T17:05:22.333Z</time></trkpt><trkpt lat="45.7868717" lon="10.0108552"><ele>376.0</ele><time>2026-04-24T17:05:23.332Z</time></trkpt><trkpt lat="45.7869756" lon="10.0109679"><ele>374.25</ele><time>2026-04-24T17:05:24.333Z</time></trkpt><trkpt lat="45.7870931" lon="10.0110781"><ele>372.5</ele><time>2026-04-24T17:05:25.334Z</time></trkpt><trkpt lat="45.7872133" lon="10.0111812"><ele>370.75</ele><time>2026-04-24T17:05:26.333Z</time></trkpt><trkpt lat="45.7873386" lon="10.0112776"><ele>369.0</ele><time>2026-04-24T17:05:27.332Z</time></trkpt><trkpt lat="45.7874749" lon="10.0113592"><ele>369.0</ele><time>2026-04-24T17:05:28.332Z</time></trkpt><trkpt lat="45.7876018" lon="10.0114305"><ele>369.0</ele><time>2026-04-24T17:05:29.333Z</time></trkpt><trkpt lat="45.7877329" lon="10.0114862"><ele>369.0</ele><time>2026-04-24T17:05:30.332Z</time></trkpt><trkpt lat="45.7878623" lon="10.0115355"><ele>369.0</ele><time>2026-04-24T17:05:31.331Z</time></trkpt><trkpt lat="45.787984" lon="10.0116064"><ele>369.2</ele><time>2026-04-24T17:05:32.333Z</time></trkpt><trkpt lat="45.7880906" lon="10.0116847"><ele>369.4</ele><time>2026-04-24T17:05:33.333Z</time></trkpt><trkpt lat="45.7881975" lon="10.0117635"><ele>369.6</ele><time>2026-04-24T17:05:34.332Z</time></trkpt><trkpt lat="45.7883001" lon="10.0118158"><ele>369.8</ele><time>2026-04-24T17:05:35.333Z</time></trkpt><trkpt lat="45.7883945" lon="10.0118153"><ele>370.0</ele><time>2026-04-24T17:05:36.333Z</time></trkpt><trkpt lat="45.788468" lon="10.0117621"><ele>369.4</ele><time>2026-04-24T17:05:37.333Z</time></trkpt><trkpt lat="45.7885251" lon="10.011718"><ele>368.8</ele><time>2026-04-24T17:05:38.332Z</time></trkpt><trkpt lat="45.7885482" lon="10.0115615"><ele>368.20000000000005</ele><time>2026-04-24T17:05:40.333Z</time></trkpt><trkpt lat="45.7885235" lon="10.0113904"><ele>367.6</ele><time>2026-04-24T17:05:42.332Z</time></trkpt><trkpt lat="45.7884379" lon="10.011315"><ele>367.0</ele><time>2026-04-24T17:05:43.331Z</time></trkpt><trkpt lat="45.7883562" lon="10.0112425"><ele>365.75</ele><time>2026-04-24T17:05:44.332Z</time></trkpt><trkpt lat="45.7882725" lon="10.011148"><ele>364.5</ele><time>2026-04-24T17:05:45.333Z</time></trkpt><trkpt lat="45.7882053" lon="10.0110207"><ele>363.25</ele><time>2026-04-24T17:05:46.331Z</time></trkpt><trkpt lat="45.7881444" lon="10.0108664"><ele>362.0</ele><time>2026-04-24T17:05:47.331Z</time></trkpt><trkpt lat="45.7880935" lon="10.0107043"><ele>359.75</ele><time>2026-04-24T17:05:48.332Z</time></trkpt><trkpt lat="45.788044" lon="10.0105308"><ele>357.5</ele><time>2026-04-24T17:05:49.333Z</time></trkpt><trkpt lat="45.7879926" lon="10.0103508"><ele>355.25</ele><time>2026-04-24T17:05:50.333Z</time></trkpt><trkpt lat="45.7879384" lon="10.0101663"><ele>353.0</ele><time>2026-04-24T17:05:51.333Z</time></trkpt><trkpt lat="45.7878855" lon="10.0099826"><ele>352.75</ele><time>2026-04-24T17:05:52.333Z</time></trkpt><trkpt lat="45.7878315" lon="10.0097906"><ele>352.5</ele><time>2026-04-24T17:05:53.333Z</time></trkpt><trkpt lat="45.7877793" lon="10.0095962"><ele>352.25</ele><time>2026-04-24T17:05:54.332Z</time></trkpt><trkpt lat="45.7877225" lon="10.0093909"><ele>352.0</ele><time>2026-04-24T17:05:55.333Z</time></trkpt><trkpt lat="45.7876678" lon="10.0091899"><ele>351.75</ele><time>2026-04-24T17:05:56.332Z</time></trkpt><trkpt lat="45.7876131" lon="10.0089937"><ele>351.5</ele><time>2026-04-24T17:05:57.333Z</time></trkpt><trkpt lat="45.7875625" lon="10.0088133"><ele>351.25</ele><time>2026-04-24T17:05:58.333Z</time></trkpt><trkpt lat="45.7875266" lon="10.0086543"><ele>351.0</ele><time>2026-04-24T17:05:59.333Z</time></trkpt><trkpt lat="45.7874941" lon="10.0085252"><ele>351.0</ele><time>2026-04-24T17:06:00.333Z</time></trkpt><trkpt lat="45.787481" lon="10.0084012"><ele>351.0</ele><time>2026-04-24T17:06:01.332Z</time></trkpt><trkpt lat="45.7874678" lon="10.0082671"><ele>351.0</ele><time>2026-04-24T17:06:02.333Z</time></trkpt><trkpt lat="45.7874317" lon="10.0081199"><ele>351.0</ele><time>2026-04-24T17:06:03.332Z</time></trkpt><trkpt lat="45.7873805" lon="10.0079543"><ele>351.0</ele><time>2026-04-24T17:06:04.333Z</time></trkpt><trkpt lat="45.7873225" lon="10.0077509"><ele>350.3333333333333</ele><time>2026-04-24T17:06:05.333Z</time></trkpt><trkpt lat="45.7872569" lon="10.0075207"><ele>349.66666666666663</ele><time>2026-04-24T17:06:06.332Z</time></trkpt><trkpt lat="45.787183" lon="10.0072582"><ele>349.0</ele><time>2026-04-24T17:06:07.333Z</time></trkpt><trkpt lat="45.7871058" lon="10.0069885"><ele>348.0</ele><time>2026-04-24T17:06:08.332Z</time></trkpt><trkpt lat="45.7870294" lon="10.0067101"><ele>347.0</ele><time>2026-04-24T17:06:09.332Z</time></trkpt><trkpt lat="45.7869643" lon="10.0064486"><ele>346.0</ele><time>2026-04-24T17:06:10.333Z</time></trkpt><trkpt lat="45.7869139" lon="10.0061969"><ele>345.66666666666663</ele><time>2026-04-24T17:06:11.333Z</time></trkpt><trkpt lat="45.7868865" lon="10.0059474"><ele>345.3333333333333</ele><time>2026-04-24T17:06:12.333Z</time></trkpt><trkpt lat="45.7868648" lon="10.0056928"><ele>345.0</ele><time>2026-04-24T17:06:13.332Z</time></trkpt><trkpt lat="45.7868541" lon="10.0054896"><ele>345.0</ele><time>2026-04-24T17:06:14.333Z</time></trkpt><trkpt lat="45.7868461" lon="10.0053241"><ele>345.0</ele><time>2026-04-24T17:06:15.333Z</time></trkpt><trkpt lat="45.7868397" lon="10.0052144"><ele>345.0</ele><time>2026-04-24T17:06:16.333Z</time></trkpt><trkpt lat="45.7868377" lon="10.0051214"><ele>345.0</ele><time>2026-04-24T17:06:18.333Z</time></trkpt><trkpt lat="45.7868152" lon="10.0050027"><ele>345.0</ele><time>2026-04-24T17:06:26.332Z</time></trkpt><trkpt lat="45.786813" lon="10.0047975"><ele>345.0</ele><time>2026-04-24T17:06:28.333Z</time></trkpt><trkpt lat="45.7868381" lon="10.0046047"><ele>345.0</ele><time>2026-04-24T17:06:29.333Z</time></trkpt><trkpt lat="45.786849" lon="10.0044147"><ele>345.0</ele><time>2026-04-24T17:06:30.333Z</time></trkpt><trkpt lat="45.7868584" lon="10.0042118"><ele>345.0</ele><time>2026-04-24T17:06:31.333Z</time></trkpt><trkpt lat="45.7868653" lon="10.0040124"><ele>344.75</ele><time>2026-04-24T17:06:32.333Z</time></trkpt><trkpt lat="45.7868743" lon="10.0038209"><ele>344.5</ele><time>2026-04-24T17:06:33.332Z</time></trkpt><trkpt lat="45.786894" lon="10.0036393"><ele>344.25</ele><time>2026-04-24T17:06:34.333Z</time></trkpt><trkpt lat="45.7869526" lon="10.0034868"><ele>344.0</ele><time>2026-04-24T17:06:35.333Z</time></trkpt><trkpt lat="45.7870486" lon="10.0033506"><ele>343.6666666666667</ele><time>2026-04-24T17:06:36.332Z</time></trkpt><trkpt lat="45.7871564" lon="10.0032319"><ele>343.3333333333333</ele><time>2026-04-24T17:06:37.331Z</time></trkpt><trkpt lat="45.7873071" lon="10.0031418"><ele>343.0</ele><time>2026-04-24T17:06:38.332Z</time></trkpt><trkpt lat="45.787463" lon="10.0030582"><ele>343.0</ele><time>2026-04-24T17:06:39.332Z</time></trkpt><trkpt lat="45.787622" lon="10.002972"><ele>343.0</ele><time>2026-04-24T17:06:40.332Z</time></trkpt><trkpt lat="45.7877988" lon="10.0028714"><ele>343.0</ele><time>2026-04-24T17:06:41.333Z</time></trkpt><trkpt lat="45.7879838" lon="10.0027588"><ele>343.3333333333333</ele><time>2026-04-24T17:06:42.332Z</time></trkpt><trkpt lat="45.7881682" lon="10.0026427"><ele>343.6666666666667</ele><time>2026-04-24T17:06:43.332Z</time></trkpt><trkpt lat="45.7883684" lon="10.002518"><ele>344.0</ele><time>2026-04-24T17:06:44.332Z</time></trkpt><trkpt lat="45.7885512" lon="10.002399"><ele>345.6666666666667</ele><time>2026-04-24T17:06:45.333Z</time></trkpt><trkpt lat="45.7887219" lon="10.002301"><ele>347.3333333333333</ele><time>2026-04-24T17:06:46.332Z</time></trkpt><trkpt lat="45.7888962" lon="10.0022274"><ele>349.0</ele><time>2026-04-24T17:06:47.332Z</time></trkpt><trkpt lat="45.7890626" lon="10.0022007"><ele>349.0</ele><time>2026-04-24T17:06:48.334Z</time></trkpt><trkpt lat="45.789231" lon="10.0022244"><ele>349.0</ele><time>2026-04-24T17:06:49.333Z</time></trkpt><trkpt lat="45.7893959" lon="10.0022837"><ele>349.0</ele><time>2026-04-24T17:06:50.333Z</time></trkpt><trkpt lat="45.7895454" lon="10.0023848"><ele>349.66666666666663</ele><time>2026-04-24T17:06:51.333Z</time></trkpt><trkpt lat="45.7896941" lon="10.0024849"><ele>350.3333333333333</ele><time>2026-04-24T17:06:52.333Z</time></trkpt><trkpt lat="45.7898322" lon="10.0025726"><ele>351.0</ele><time>2026-04-24T17:06:53.333Z</time></trkpt><trkpt lat="45.7899642" lon="10.0026452"><ele>350.20000000000005</ele><time>2026-04-24T17:06:54.333Z</time></trkpt><trkpt lat="45.7900882" lon="10.0026556"><ele>349.40000000000003</ele><time>2026-04-24T17:06:55.331Z</time></trkpt><trkpt lat="45.7901955" lon="10.0026622"><ele>348.6</ele><time>2026-04-24T17:06:56.333Z</time></trkpt><trkpt lat="45.7902604" lon="10.0026482"><ele>347.8</ele><time>2026-04-24T17:06:57.333Z</time></trkpt><trkpt lat="45.790333" lon="10.002638"><ele>347.0</ele><time>2026-04-24T17:06:59.333Z</time></trkpt><trkpt lat="45.7904706" lon="10.002611"><ele>346.83333333333337</ele><time>2026-04-24T17:07:01.332Z</time></trkpt><trkpt lat="45.7905388" lon="10.0025831"><ele>346.6666666666667</ele><time>2026-04-24T17:07:02.333Z</time></trkpt><trkpt lat="45.7906277" lon="10.0025829"><ele>346.5</ele><time>2026-04-24T17:07:03.333Z</time></trkpt><trkpt lat="45.7906971" lon="10.00257"><ele>346.3333333333333</ele><time>2026-04-24T17:07:04.331Z</time></trkpt><trkpt lat="45.7907828" lon="10.0025657"><ele>346.16666666666663</ele><time>2026-04-24T17:07:05.332Z</time></trkpt><trkpt lat="45.790866" lon="10.0025787"><ele>346.0</ele><time>2026-04-24T17:07:06.333Z</time></trkpt><trkpt lat="45.7909617" lon="10.0026154"><ele>348.75</ele><time>2026-04-24T17:07:07.332Z</time></trkpt><trkpt lat="45.791068" lon="10.0026695"><ele>351.5</ele><time>2026-04-24T17:07:08.331Z</time></trkpt><trkpt lat="45.7911744" lon="10.0027463"><ele>354.25</ele><time>2026-04-24T17:07:09.333Z</time></trkpt><trkpt lat="45.7912864" lon="10.0028492"><ele>357.0</ele><time>2026-04-24T17:07:10.332Z</time></trkpt><trkpt lat="45.7913997" lon="10.0029688"><ele>357.0</ele><time>2026-04-24T17:07:11.334Z</time></trkpt><trkpt lat="45.7915118" lon="10.0030857"><ele>357.0</ele><time>2026-04-24T17:07:12.332Z</time></trkpt><trkpt lat="45.7916341" lon="10.0032253"><ele>357.0</ele><time>2026-04-24T17:07:13.334Z</time></trkpt><trkpt lat="45.7917601" lon="10.0033608"><ele>358.3333333333333</ele><time>2026-04-24T17:07:14.333Z</time></trkpt><trkpt lat="45.7919047" lon="10.0035056"><ele>359.66666666666663</ele><time>2026-04-24T17:07:15.333Z</time></trkpt><trkpt lat="45.7920661" lon="10.00367"><ele>361.0</ele><time>2026-04-24T17:07:16.332Z</time></trkpt><trkpt lat="45.7922391" lon="10.0038622"><ele>361.0</ele><time>2026-04-24T17:07:17.333Z</time></trkpt><trkpt lat="45.7924192" lon="10.0040757"><ele>361.0</ele><time>2026-04-24T17:07:18.333Z</time></trkpt><trkpt lat="45.7926095" lon="10.0042968"><ele>366.0</ele><time>2026-04-24T17:07:19.333Z</time></trkpt><trkpt lat="45.7928059" lon="10.004524"><ele>371.0</ele><time>2026-04-24T17:07:20.333Z</time></trkpt><trkpt lat="45.7930165" lon="10.0047622"><ele>371.0</ele><time>2026-04-24T17:07:21.333Z</time></trkpt><trkpt lat="45.7932167" lon="10.0049781"><ele>371.0</ele><time>2026-04-24T17:07:22.333Z</time></trkpt><trkpt lat="45.7934135" lon="10.0051935"><ele>370.0</ele><time>2026-04-24T17:07:23.332Z</time></trkpt><trkpt lat="45.7935633" lon="10.0054145"><ele>369.0</ele><time>2026-04-24T17:07:24.333Z</time></trkpt><trkpt lat="45.7936909" lon="10.0056449"><ele>368.0</ele><time>2026-04-24T17:07:25.333Z</time></trkpt><trkpt lat="45.7937917" lon="10.0058907"><ele>361.0</ele><time>2026-04-24T17:07:26.331Z</time></trkpt><trkpt lat="45.7938583" lon="10.0061339"><ele>354.0</ele><time>2026-04-24T17:07:27.332Z</time></trkpt><trkpt lat="45.7939055" lon="10.0063836"><ele>347.0</ele><time>2026-04-24T17:07:28.334Z</time></trkpt><trkpt lat="45.7939357" lon="10.0066088"><ele>346.5</ele><time>2026-04-24T17:07:29.332Z</time></trkpt><trkpt lat="45.7939539" lon="10.0068181"><ele>346.0</ele><time>2026-04-24T17:07:30.333Z</time></trkpt><trkpt lat="45.7939643" lon="10.0070223"><ele>345.5</ele><time>2026-04-24T17:07:31.333Z</time></trkpt><trkpt lat="45.7939771" lon="10.0072243"><ele>345.0</ele><time>2026-04-24T17:07:32.334Z</time></trkpt><trkpt lat="45.7939951" lon="10.0074247"><ele>345.5</ele><time>2026-04-24T17:07:33.332Z</time></trkpt><trkpt lat="45.794014" lon="10.0076386"><ele>346.0</ele><time>2026-04-24T17:07:34.333Z</time></trkpt><trkpt lat="45.7940273" lon="10.0078292"><ele>346.5</ele><time>2026-04-24T17:07:35.332Z</time></trkpt><trkpt lat="45.794052" lon="10.008022"><ele>347.0</ele><time>2026-04-24T17:07:36.331Z</time></trkpt><trkpt lat="45.7940855" lon="10.008211"><ele>347.0</ele><time>2026-04-24T17:07:37.331Z</time></trkpt><trkpt lat="45.7941333" lon="10.0083875"><ele>347.0</ele><time>2026-04-24T17:07:38.332Z</time></trkpt><trkpt lat="45.7941922" lon="10.0085459"><ele>347.0</ele><time>2026-04-24T17:07:39.333Z</time></trkpt><trkpt lat="45.7942573" lon="10.0086908"><ele>347.0</ele><time>2026-04-24T17:07:40.333Z</time></trkpt><trkpt lat="45.7943431" lon="10.008814"><ele>347.0</ele><time>2026-04-24T17:07:41.333Z</time></trkpt><trkpt lat="45.7944349" lon="10.008942"><ele>347.0</ele><time>2026-04-24T17:07:42.332Z</time></trkpt><trkpt lat="45.7945339" lon="10.0090562"><ele>347.0</ele><time>2026-04-24T17:07:43.333Z</time></trkpt><trkpt lat="45.794643" lon="10.0091541"><ele>347.0</ele><time>2026-04-24T17:07:44.333Z</time></trkpt><trkpt lat="45.7947591" lon="10.009258"><ele>347.0</ele><time>2026-04-24T17:07:45.332Z</time></trkpt><trkpt lat="45.7948668" lon="10.0093668"><ele>347.0</ele><time>2026-04-24T17:07:46.333Z</time></trkpt><trkpt lat="45.7949711" lon="10.0094629"><ele>347.0</ele><time>2026-04-24T17:07:47.334Z</time></trkpt><trkpt lat="45.7950938" lon="10.0095849"><ele>347.0</ele><time>2026-04-24T17:07:48.332Z</time></trkpt><trkpt lat="45.7952052" lon="10.0096852"><ele>347.0</ele><time>2026-04-24T17:07:49.332Z</time></trkpt><trkpt lat="45.7953263" lon="10.0098045"><ele>347.0</ele><time>2026-04-24T17:07:50.332Z</time></trkpt><trkpt lat="45.7954487" lon="10.0099218"><ele>347.0</ele><time>2026-04-24T17:07:51.334Z</time></trkpt><trkpt lat="45.7955596" lon="10.0100371"><ele>347.0</ele><time>2026-04-24T17:07:52.332Z</time></trkpt><trkpt lat="45.7956801" lon="10.0101596"><ele>348.0</ele><time>2026-04-24T17:07:53.332Z</time></trkpt><trkpt lat="45.7957966" lon="10.0102953"><ele>349.0</ele><time>2026-04-24T17:07:54.333Z</time></trkpt><trkpt lat="45.7959136" lon="10.0104192"><ele>350.0</ele><time>2026-04-24T17:07:55.334Z</time></trkpt><trkpt lat="45.7960394" lon="10.0105646"><ele>350.0</ele><time>2026-04-24T17:07:56.332Z</time></trkpt><trkpt lat="45.7961646" lon="10.0107017"><ele>350.0</ele><time>2026-04-24T17:07:57.333Z</time></trkpt><trkpt lat="45.7962882" lon="10.0108558"><ele>350.0</ele><time>2026-04-24T17:07:58.332Z</time></trkpt><trkpt lat="45.7964128" lon="10.0110089"><ele>350.0</ele><time>2026-04-24T17:07:59.333Z</time></trkpt><trkpt lat="45.7965401" lon="10.0111692"><ele>350.0</ele><time>2026-04-24T17:08:00.333Z</time></trkpt><trkpt lat="45.7966673" lon="10.0113303"><ele>350.0</ele><time>2026-04-24T17:08:01.333Z</time></trkpt><trkpt lat="45.7967937" lon="10.0114849"><ele>349.6666666666667</ele><time>2026-04-24T17:08:02.333Z</time></trkpt><trkpt lat="45.7969197" lon="10.011648"><ele>349.3333333333333</ele><time>2026-04-24T17:08:03.333Z</time></trkpt><trkpt lat="45.7970459" lon="10.0118146"><ele>349.0</ele><time>2026-04-24T17:08:04.333Z</time></trkpt><trkpt lat="45.7971743" lon="10.0119816"><ele>349.0</ele><time>2026-04-24T17:08:05.332Z</time></trkpt><trkpt lat="45.7973068" lon="10.0121428"><ele>349.0</ele><time>2026-04-24T17:08:06.332Z</time></trkpt><trkpt lat="45.7974304" lon="10.0123023"><ele>349.0</ele><time>2026-04-24T17:08:07.333Z</time></trkpt><trkpt lat="45.7975531" lon="10.0124698"><ele>349.3333333333333</ele><time>2026-04-24T17:08:08.333Z</time></trkpt><trkpt lat="45.7976744" lon="10.012621"><ele>349.6666666666667</ele><time>2026-04-24T17:08:09.333Z</time></trkpt><trkpt lat="45.7977917" lon="10.01277"><ele>350.0</ele><time>2026-04-24T17:08:10.333Z</time></trkpt><trkpt lat="45.7978978" lon="10.012936"><ele>350.0</ele><time>2026-04-24T17:08:11.332Z</time></trkpt><trkpt lat="45.7979923" lon="10.013114"><ele>350.0</ele><time>2026-04-24T17:08:12.333Z</time></trkpt><trkpt lat="45.7980801" lon="10.0132919"><ele>350.0</ele><time>2026-04-24T17:08:13.333Z</time></trkpt><trkpt lat="45.7981612" lon="10.0134752"><ele>348.5</ele><time>2026-04-24T17:08:14.331Z</time></trkpt><trkpt lat="45.7982315" lon="10.0136637"><ele>347.0</ele><time>2026-04-24T17:08:15.334Z</time></trkpt><trkpt lat="45.7982941" lon="10.0138568"><ele>345.5</ele><time>2026-04-24T17:08:16.332Z</time></trkpt><trkpt lat="45.7983593" lon="10.0140442"><ele>344.0</ele><time>2026-04-24T17:08:17.334Z</time></trkpt><trkpt lat="45.7984254" lon="10.0142213"><ele>344.0</ele><time>2026-04-24T17:08:18.333Z</time></trkpt><trkpt lat="45.798485" lon="10.0144035"><ele>344.0</ele><time>2026-04-24T17:08:19.332Z</time></trkpt><trkpt lat="45.7985437" lon="10.0145806"><ele>344.0</ele><time>2026-04-24T17:08:20.332Z</time></trkpt><trkpt lat="45.7986082" lon="10.014759"><ele>344.0</ele><time>2026-04-24T17:08:21.333Z</time></trkpt><trkpt lat="45.7986745" lon="10.014929"><ele>343.75</ele><time>2026-04-24T17:08:22.333Z</time></trkpt><trkpt lat="45.7987395" lon="10.0151034"><ele>343.5</ele><time>2026-04-24T17:08:23.332Z</time></trkpt><trkpt lat="45.7988046" lon="10.0152797"><ele>343.25</ele><time>2026-04-24T17:08:24.334Z</time></trkpt><trkpt lat="45.7988662" lon="10.0154544"><ele>343.0</ele><time>2026-04-24T17:08:25.333Z</time></trkpt><trkpt lat="45.7989277" lon="10.0156361"><ele>343.0</ele><time>2026-04-24T17:08:26.332Z</time></trkpt><trkpt lat="45.7989883" lon="10.015818"><ele>343.0</ele><time>2026-04-24T17:08:27.332Z</time></trkpt><trkpt lat="45.7990523" lon="10.0159992"><ele>343.0</ele><time>2026-04-24T17:08:28.331Z</time></trkpt><trkpt lat="45.7991083" lon="10.0161647"><ele>343.0</ele><time>2026-04-24T17:08:29.332Z</time></trkpt><trkpt lat="45.7991619" lon="10.0163258"><ele>343.0</ele><time>2026-04-24T17:08:30.332Z</time></trkpt><trkpt lat="45.7992142" lon="10.016473"><ele>343.0</ele><time>2026-04-24T17:08:31.333Z</time></trkpt><trkpt lat="45.7992612" lon="10.0166105"><ele>343.0</ele><time>2026-04-24T17:08:32.333Z</time></trkpt><trkpt lat="45.7993078" lon="10.0167422"><ele>343.0</ele><time>2026-04-24T17:08:33.333Z</time></trkpt><trkpt lat="45.7993518" lon="10.0168634"><ele>343.0</ele><time>2026-04-24T17:08:34.333Z</time></trkpt><trkpt lat="45.7993952" lon="10.0169761"><ele>343.16666666666663</ele><time>2026-04-24T17:08:35.333Z</time></trkpt><trkpt lat="45.7994313" lon="10.0170801"><ele>343.3333333333333</ele><time>2026-04-24T17:08:36.332Z</time></trkpt><trkpt lat="45.7994632" lon="10.0171787"><ele>343.5</ele><time>2026-04-24T17:08:37.334Z</time></trkpt><trkpt lat="45.7995078" lon="10.0172659"><ele>343.6666666666667</ele><time>2026-04-24T17:08:38.331Z</time></trkpt><trkpt lat="45.7995675" lon="10.0173352"><ele>343.83333333333337</ele><time>2026-04-24T17:08:39.332Z</time></trkpt><trkpt lat="45.7996631" lon="10.0173486"><ele>344.0</ele><time>2026-04-24T17:08:40.334Z</time></trkpt><trkpt lat="45.7997566" lon="10.0173619"><ele>344.0</ele><time>2026-04-24T17:08:41.332Z</time></trkpt><trkpt lat="45.7998504" lon="10.0173601"><ele>344.0</ele><time>2026-04-24T17:08:42.333Z</time></trkpt><trkpt lat="45.7999366" lon="10.0173589"><ele>344.0</ele><time>2026-04-24T17:08:43.333Z</time></trkpt><trkpt lat="45.8000289" lon="10.0173561"><ele>344.0</ele><time>2026-04-24T17:08:44.333Z</time></trkpt><trkpt lat="45.8001108" lon="10.0173434"><ele>344.0</ele><time>2026-04-24T17:08:45.333Z</time></trkpt><trkpt lat="45.8001877" lon="10.017345"><ele>344.0</ele><time>2026-04-24T17:08:46.332Z</time></trkpt><trkpt lat="45.8002655" lon="10.0173365"><ele>344.1666666666667</ele><time>2026-04-24T17:08:47.333Z</time></trkpt><trkpt lat="45.8003419" lon="10.0173343"><ele>344.33333333333337</ele><time>2026-04-24T17:08:48.332Z</time></trkpt><trkpt lat="45.8004161" lon="10.0173311"><ele>344.5</ele><time>2026-04-24T17:08:49.333Z</time></trkpt><trkpt lat="45.8004852" lon="10.0173339"><ele>344.6666666666667</ele><time>2026-04-24T17:08:50.333Z</time></trkpt><trkpt lat="45.8005524" lon="10.0173416"><ele>344.8333333333333</ele><time>2026-04-24T17:08:51.332Z</time></trkpt><trkpt lat="45.8006352" lon="10.0174317"><ele>345.0</ele><time>2026-04-24T17:08:53.333Z</time></trkpt><trkpt lat="45.8006265" lon="10.0175731"><ele>344.6666666666667</ele><time>2026-04-24T17:08:54.332Z</time></trkpt><trkpt lat="45.8006105" lon="10.017715"><ele>344.3333333333333</ele><time>2026-04-24T17:08:55.333Z</time></trkpt><trkpt lat="45.8005748" lon="10.0178244"><ele>344.0</ele><time>2026-04-24T17:08:56.334Z</time></trkpt><trkpt lat="45.8005264" lon="10.0179253"><ele>343.66666666666663</ele><time>2026-04-24T17:08:57.333Z</time></trkpt><trkpt lat="45.8004378" lon="10.0180233"><ele>343.3333333333333</ele><time>2026-04-24T17:08:59.333Z</time></trkpt><trkpt lat="45.8004013" lon="10.0180975"><ele>343.0</ele><time>2026-04-24T17:09:02.332Z</time></trkpt><trkpt lat="45.8003559" lon="10.0181822"><ele>343.0</ele><time>2026-04-24T17:19:16.333Z</time></trkpt><trkpt lat="45.8002895" lon="10.0181452"><ele>343.0</ele><time>2026-04-24T17:22:22.332Z</time></trkpt><trkpt lat="45.8003157" lon="10.0179907"><ele>343.0</ele><time>2026-04-24T17:22:24.332Z</time></trkpt><trkpt lat="45.8003547" lon="10.017825"><ele>343.0</ele><time>2026-04-24T17:22:26.333Z</time></trkpt><trkpt lat="45.80036" lon="10.0177262"><ele>343.0</ele><time>2026-04-24T17:22:27.333Z</time></trkpt><trkpt lat="45.8003784" lon="10.0175567"><ele>343.16666666666663</ele><time>2026-04-24T17:22:29.333Z</time></trkpt><trkpt lat="45.8003573" lon="10.0174432"><ele>343.3333333333333</ele><time>2026-04-24T17:22:31.333Z</time></trkpt><trkpt lat="45.8002889" lon="10.0174048"><ele>343.5</ele><time>2026-04-24T17:22:33.332Z</time></trkpt><trkpt lat="45.8002151" lon="10.0173861"><ele>343.6666666666667</ele><time>2026-04-24T17:22:35.332Z</time></trkpt><trkpt lat="45.8001345" lon="10.0173524"><ele>343.83333333333337</ele><time>2026-04-24T17:22:37.334Z</time></trkpt><trkpt lat="45.8000511" lon="10.0173297"><ele>344.0</ele><time>2026-04-24T17:22:39.333Z</time></trkpt><trkpt lat="45.7999646" lon="10.0173319"><ele>344.0</ele><time>2026-04-24T17:22:41.333Z</time></trkpt><trkpt lat="45.7998751" lon="10.0173374"><ele>344.0</ele><time>2026-04-24T17:22:43.333Z</time></trkpt><trkpt lat="45.799785" lon="10.0173344"><ele>344.0</ele><time>2026-04-24T17:22:45.333Z</time></trkpt><trkpt lat="45.7996905" lon="10.0173297"><ele>344.0</ele><time>2026-04-24T17:22:47.333Z</time></trkpt><trkpt lat="45.7995847" lon="10.017292"><ele>344.0</ele><time>2026-04-24T17:22:49.333Z</time></trkpt><trkpt lat="45.7995003" lon="10.0171553"><ele>344.0</ele><time>2026-04-24T17:22:51.333Z</time></trkpt><trkpt lat="45.7994671" lon="10.0170521"><ele>344.0</ele><time>2026-04-24T17:22:52.333Z</time></trkpt><trkpt lat="45.79943" lon="10.016928"><ele>344.0</ele><time>2026-04-24T17:22:53.332Z</time></trkpt><trkpt lat="45.7993887" lon="10.0167915"><ele>344.0</ele><time>2026-04-24T17:22:54.333Z</time></trkpt><trkpt lat="45.7993414" lon="10.0166549"><ele>344.0</ele><time>2026-04-24T17:22:55.333Z</time></trkpt><trkpt lat="45.7992931" lon="10.0165189"><ele>343.79999999999995</ele><time>2026-04-24T17:22:56.333Z</time></trkpt><trkpt lat="45.7992477" lon="10.0163862"><ele>343.59999999999997</ele><time>2026-04-24T17:22:57.333Z</time></trkpt><trkpt lat="45.7992017" lon="10.0162524"><ele>343.4</ele><time>2026-04-24T17:22:58.333Z</time></trkpt><trkpt lat="45.7991523" lon="10.0161172"><ele>343.2</ele><time>2026-04-24T17:22:59.333Z</time></trkpt><trkpt lat="45.7991055" lon="10.0159788"><ele>343.0</ele><time>2026-04-24T17:23:00.333Z</time></trkpt><trkpt lat="45.7990563" lon="10.0158374"><ele>343.0</ele><time>2026-04-24T17:23:01.333Z</time></trkpt><trkpt lat="45.7990075" lon="10.0156965"><ele>343.0</ele><time>2026-04-24T17:23:02.333Z</time></trkpt><trkpt lat="45.7989581" lon="10.0155531"><ele>343.0</ele><time>2026-04-24T17:23:03.333Z</time></trkpt><trkpt lat="45.7989076" lon="10.0154081"><ele>343.0</ele><time>2026-04-24T17:23:04.333Z</time></trkpt><trkpt lat="45.798858" lon="10.0152623"><ele>343.0</ele><time>2026-04-24T17:23:05.333Z</time></trkpt><trkpt lat="45.7988076" lon="10.0151184"><ele>343.5</ele><time>2026-04-24T17:23:06.333Z</time></trkpt><trkpt lat="45.7987602" lon="10.0149742"><ele>344.0</ele><time>2026-04-24T17:23:07.333Z</time></trkpt><trkpt lat="45.7987092" lon="10.0148272"><ele>344.5</ele><time>2026-04-24T17:23:08.333Z</time></trkpt><trkpt lat="45.7986558" lon="10.0146737"><ele>345.0</ele><time>2026-04-24T17:23:09.332Z</time></trkpt><trkpt lat="45.7986014" lon="10.0145186"><ele>345.0</ele><time>2026-04-24T17:23:10.333Z</time></trkpt><trkpt lat="45.798546" lon="10.0143595"><ele>345.0</ele><time>2026-04-24T17:23:11.333Z</time></trkpt><trkpt lat="45.7984858" lon="10.0141831"><ele>345.0</ele><time>2026-04-24T17:23:12.333Z</time></trkpt><trkpt lat="45.7984256" lon="10.014006"><ele>345.0</ele><time>2026-04-24T17:23:13.333Z</time></trkpt><trkpt lat="45.7983624" lon="10.0138269"><ele>344.75</ele><time>2026-04-24T17:23:14.333Z</time></trkpt><trkpt lat="45.7983014" lon="10.0136513"><ele>344.5</ele><time>2026-04-24T17:23:15.332Z</time></trkpt><trkpt lat="45.7982376" lon="10.0134765"><ele>344.25</ele><time>2026-04-24T17:23:16.333Z</time></trkpt><trkpt lat="45.7981674" lon="10.0133085"><ele>344.0</ele><time>2026-04-24T17:23:17.332Z</time></trkpt><trkpt lat="45.7980909" lon="10.0131503"><ele>345.5</ele><time>2026-04-24T17:23:18.333Z</time></trkpt><trkpt lat="45.7980062" lon="10.0129953"><ele>347.0</ele><time>2026-04-24T17:23:19.332Z</time></trkpt><trkpt lat="45.7979187" lon="10.0128482"><ele>348.5</ele><time>2026-04-24T17:23:20.333Z</time></trkpt><trkpt lat="45.7978235" lon="10.0127084"><ele>350.0</ele><time>2026-04-24T17:23:21.332Z</time></trkpt><trkpt lat="45.7977256" lon="10.0125662"><ele>349.75</ele><time>2026-04-24T17:23:22.333Z</time></trkpt><trkpt lat="45.7976254" lon="10.0124297"><ele>349.5</ele><time>2026-04-24T17:23:23.333Z</time></trkpt><trkpt lat="45.7975225" lon="10.0122995"><ele>349.25</ele><time>2026-04-24T17:23:24.333Z</time></trkpt><trkpt lat="45.7974213" lon="10.0121696"><ele>349.0</ele><time>2026-04-24T17:23:25.333Z</time></trkpt><trkpt lat="45.7973161" lon="10.0120368"><ele>349.0</ele><time>2026-04-24T17:23:26.334Z</time></trkpt><trkpt lat="45.7972157" lon="10.0119078"><ele>349.0</ele><time>2026-04-24T17:23:27.333Z</time></trkpt><trkpt lat="45.7971192" lon="10.0117739"><ele>349.0</ele><time>2026-04-24T17:23:28.332Z</time></trkpt><trkpt lat="45.7970148" lon="10.0116448"><ele>349.0</ele><time>2026-04-24T17:23:29.333Z</time></trkpt><trkpt lat="45.7969145" lon="10.0115164"><ele>349.25</ele><time>2026-04-24T17:23:30.332Z</time></trkpt><trkpt lat="45.7968114" lon="10.0113887"><ele>349.5</ele><time>2026-04-24T17:23:31.333Z</time></trkpt><trkpt lat="45.796706" lon="10.0112607"><ele>349.75</ele><time>2026-04-24T17:23:32.333Z</time></trkpt><trkpt lat="45.796601" lon="10.0111219"><ele>350.0</ele><time>2026-04-24T17:23:33.333Z</time></trkpt><trkpt lat="45.796499" lon="10.0109908"><ele>350.0</ele><time>2026-04-24T17:23:34.331Z</time></trkpt><trkpt lat="45.796395" lon="10.0108633"><ele>350.0</ele><time>2026-04-24T17:23:35.333Z</time></trkpt><trkpt lat="45.7962864" lon="10.0107329"><ele>350.0</ele><time>2026-04-24T17:23:36.332Z</time></trkpt><trkpt lat="45.7961795" lon="10.0106149"><ele>350.0</ele><time>2026-04-24T17:23:37.332Z</time></trkpt><trkpt lat="45.7960768" lon="10.0104962"><ele>350.0</ele><time>2026-04-24T17:23:38.332Z</time></trkpt><trkpt lat="45.7959735" lon="10.0103765"><ele>350.0</ele><time>2026-04-24T17:23:39.333Z</time></trkpt><trkpt lat="45.7958646" lon="10.010261"><ele>350.0</ele><time>2026-04-24T17:23:40.332Z</time></trkpt><trkpt lat="45.7957531" lon="10.010147"><ele>350.0</ele><time>2026-04-24T17:23:41.333Z</time></trkpt><trkpt lat="45.7956397" lon="10.0100299"><ele>349.25</ele><time>2026-04-24T17:23:42.332Z</time></trkpt><trkpt lat="45.795526" lon="10.0099149"><ele>348.5</ele><time>2026-04-24T17:23:43.332Z</time></trkpt><trkpt lat="45.7954074" lon="10.0097964"><ele>347.75</ele><time>2026-04-24T17:23:44.332Z</time></trkpt><trkpt lat="45.7952912" lon="10.0096832"><ele>347.0</ele><time>2026-04-24T17:23:45.333Z</time></trkpt><trkpt lat="45.7951765" lon="10.0095684"><ele>347.0</ele><time>2026-04-24T17:23:46.333Z</time></trkpt><trkpt lat="45.7950597" lon="10.0094665"><ele>347.0</ele><time>2026-04-24T17:23:47.332Z</time></trkpt><trkpt lat="45.7949501" lon="10.0093627"><ele>347.0</ele><time>2026-04-24T17:23:48.334Z</time></trkpt><trkpt lat="45.7948423" lon="10.009259"><ele>347.0</ele><time>2026-04-24T17:23:49.332Z</time></trkpt><trkpt lat="45.7947337" lon="10.009154"><ele>347.0</ele><time>2026-04-24T17:23:50.333Z</time></trkpt><trkpt lat="45.7946271" lon="10.0090469"><ele>347.0</ele><time>2026-04-24T17:23:51.332Z</time></trkpt><trkpt lat="45.7945218" lon="10.008936"><ele>347.0</ele><time>2026-04-24T17:23:52.333Z</time></trkpt><trkpt lat="45.794423" lon="10.0088076"><ele>347.0</ele><time>2026-04-24T17:23:53.333Z</time></trkpt><trkpt lat="45.7943343" lon="10.0086751"><ele>347.0</ele><time>2026-04-24T17:23:54.333Z</time></trkpt><trkpt lat="45.7942582" lon="10.0085284"><ele>347.0</ele><time>2026-04-24T17:23:55.331Z</time></trkpt><trkpt lat="45.7941961" lon="10.008359"><ele>347.0</ele><time>2026-04-24T17:23:56.332Z</time></trkpt><trkpt lat="45.7941475" lon="10.0081827"><ele>347.0</ele><time>2026-04-24T17:23:57.333Z</time></trkpt><trkpt lat="45.7941119" lon="10.008008"><ele>347.0</ele><time>2026-04-24T17:23:58.332Z</time></trkpt><trkpt lat="45.7940946" lon="10.007826"><ele>347.0</ele><time>2026-04-24T17:23:59.332Z</time></trkpt><trkpt lat="45.7940684" lon="10.0076585"><ele>347.0</ele><time>2026-04-24T17:24:00.332Z</time></trkpt><trkpt lat="45.7940522" lon="10.0074768"><ele>347.0</ele><time>2026-04-24T17:24:01.333Z</time></trkpt><trkpt lat="45.7940389" lon="10.0072823"><ele>347.0</ele><time>2026-04-24T17:24:02.333Z</time></trkpt><trkpt lat="45.794025" lon="10.0071011"><ele>347.0</ele><time>2026-04-24T17:24:03.333Z</time></trkpt><trkpt lat="45.794016" lon="10.0069057"><ele>347.0</ele><time>2026-04-24T17:24:04.332Z</time></trkpt><trkpt lat="45.7940012" lon="10.0067209"><ele>347.0</ele><time>2026-04-24T17:24:05.332Z</time></trkpt><trkpt lat="45.7939824" lon="10.0065329"><ele>347.0</ele><time>2026-04-24T17:24:06.332Z</time></trkpt><trkpt lat="45.793958" lon="10.0063423"><ele>347.0</ele><time>2026-04-24T17:24:07.333Z</time></trkpt><trkpt lat="45.7939266" lon="10.0061588"><ele>347.0</ele><time>2026-04-24T17:24:08.332Z</time></trkpt><trkpt lat="45.7938821" lon="10.0059823"><ele>347.0</ele><time>2026-04-24T17:24:09.332Z</time></trkpt><trkpt lat="45.7938308" lon="10.0058091"><ele>352.25</ele><time>2026-04-24T17:24:10.333Z</time></trkpt><trkpt lat="45.7937664" lon="10.0056436"><ele>357.5</ele><time>2026-04-24T17:24:11.332Z</time></trkpt><trkpt lat="45.7936926" lon="10.0055007"><ele>362.75</ele><time>2026-04-24T17:24:12.333Z</time></trkpt><trkpt lat="45.7936074" lon="10.0053628"><ele>368.0</ele><time>2026-04-24T17:24:13.333Z</time></trkpt><trkpt lat="45.7935066" lon="10.0052254"><ele>369.0</ele><time>2026-04-24T17:24:14.332Z</time></trkpt><trkpt lat="45.793391" lon="10.0050944"><ele>370.0</ele><time>2026-04-24T17:24:15.333Z</time></trkpt><trkpt lat="45.7932743" lon="10.0049577"><ele>371.0</ele><time>2026-04-24T17:24:16.332Z</time></trkpt><trkpt lat="45.7931533" lon="10.0048237"><ele>371.0</ele><time>2026-04-24T17:24:17.333Z</time></trkpt><trkpt lat="45.793032" lon="10.0046885"><ele>371.0</ele><time>2026-04-24T17:24:18.333Z</time></trkpt><trkpt lat="45.7929124" lon="10.0045562"><ele>371.0</ele><time>2026-04-24T17:24:19.332Z</time></trkpt><trkpt lat="45.7927936" lon="10.0044263"><ele>371.0</ele><time>2026-04-24T17:24:20.332Z</time></trkpt><trkpt lat="45.7926731" lon="10.0042952"><ele>371.0</ele><time>2026-04-24T17:24:21.333Z</time></trkpt><trkpt lat="45.7925543" lon="10.0041634"><ele>371.0</ele><time>2026-04-24T17:24:22.333Z</time></trkpt><trkpt lat="45.7924351" lon="10.004031"><ele>367.6666666666667</ele><time>2026-04-24T17:24:23.331Z</time></trkpt><trkpt lat="45.7923174" lon="10.0039027"><ele>364.3333333333333</ele><time>2026-04-24T17:24:24.334Z</time></trkpt><trkpt lat="45.7921904" lon="10.0037698"><ele>361.0</ele><time>2026-04-24T17:24:25.331Z</time></trkpt><trkpt lat="45.7920757" lon="10.0036343"><ele>361.0</ele><time>2026-04-24T17:24:26.333Z</time></trkpt><trkpt lat="45.7919533" lon="10.0035081"><ele>361.0</ele><time>2026-04-24T17:24:27.333Z</time></trkpt><trkpt lat="45.7918385" lon="10.0033732"><ele>361.0</ele><time>2026-04-24T17:24:28.333Z</time></trkpt><trkpt lat="45.7917202" lon="10.0032478"><ele>361.0</ele><time>2026-04-24T17:24:29.332Z</time></trkpt><trkpt lat="45.7916016" lon="10.0031162"><ele>360.0</ele><time>2026-04-24T17:24:30.331Z</time></trkpt><trkpt lat="45.7914898" lon="10.0029843"><ele>359.0</ele><time>2026-04-24T17:24:31.332Z</time></trkpt><trkpt lat="45.7913859" lon="10.002867"><ele>358.0</ele><time>2026-04-24T17:24:32.333Z</time></trkpt><trkpt lat="45.7912921" lon="10.0027575"><ele>357.0</ele><time>2026-04-24T17:24:33.332Z</time></trkpt><trkpt lat="45.7911855" lon="10.0026652"><ele>357.0</ele><time>2026-04-24T17:24:34.332Z</time></trkpt><trkpt lat="45.7910896" lon="10.0025963"><ele>357.0</ele><time>2026-04-24T17:24:35.331Z</time></trkpt><trkpt lat="45.7909921" lon="10.0025386"><ele>357.0</ele><time>2026-04-24T17:24:36.332Z</time></trkpt><trkpt lat="45.7908975" lon="10.0025116"><ele>357.0</ele><time>2026-04-24T17:24:37.332Z</time></trkpt><trkpt lat="45.7908156" lon="10.0024768"><ele>357.0</ele><time>2026-04-24T17:24:38.333Z</time></trkpt><trkpt lat="45.7907378" lon="10.0024375"><ele>356.0</ele><time>2026-04-24T17:24:39.332Z</time></trkpt><trkpt lat="45.7906537" lon="10.0024021"><ele>355.0</ele><time>2026-04-24T17:24:40.333Z</time></trkpt><trkpt lat="45.7905728" lon="10.002355"><ele>354.0</ele><time>2026-04-24T17:24:41.332Z</time></trkpt><trkpt lat="45.7904929" lon="10.0022916"><ele>353.0</ele><time>2026-04-24T17:24:42.333Z</time></trkpt><trkpt lat="45.7904165" lon="10.0021839"><ele>352.0</ele><time>2026-04-24T17:24:43.333Z</time></trkpt><trkpt lat="45.7903387" lon="10.0020703"><ele>352.0</ele><time>2026-04-24T17:24:44.332Z</time></trkpt><trkpt lat="45.7902615" lon="10.0019594"><ele>352.0</ele><time>2026-04-24T17:24:45.333Z</time></trkpt><trkpt lat="45.7901826" lon="10.0018394"><ele>352.0</ele><time>2026-04-24T17:24:46.332Z</time></trkpt><trkpt lat="45.7900971" lon="10.0017268"><ele>352.0</ele><time>2026-04-24T17:24:47.332Z</time></trkpt><trkpt lat="45.7900099" lon="10.0016278"><ele>352.6</ele><time>2026-04-24T17:24:48.332Z</time></trkpt><trkpt lat="45.7899181" lon="10.0015378"><ele>353.20000000000005</ele><time>2026-04-24T17:24:49.334Z</time></trkpt><trkpt lat="45.7898194" lon="10.0014579"><ele>353.8</ele><time>2026-04-24T17:24:50.333Z</time></trkpt><trkpt lat="45.7897198" lon="10.0013909"><ele>354.4</ele><time>2026-04-24T17:24:51.334Z</time></trkpt><trkpt lat="45.7896202" lon="10.0013219"><ele>355.0</ele><time>2026-04-24T17:24:52.332Z</time></trkpt><trkpt lat="45.7895209" lon="10.0012365"><ele>355.0</ele><time>2026-04-24T17:24:53.332Z</time></trkpt><trkpt lat="45.7894321" lon="10.0011425"><ele>355.0</ele><time>2026-04-24T17:24:54.331Z</time></trkpt><trkpt lat="45.7893558" lon="10.0010414"><ele>355.0</ele><time>2026-04-24T17:24:55.333Z</time></trkpt><trkpt lat="45.7892781" lon="10.0009235"><ele>355.0</ele><time>2026-04-24T17:24:56.332Z</time></trkpt><trkpt lat="45.789208" lon="10.0008023"><ele>355.0</ele><time>2026-04-24T17:24:57.333Z</time></trkpt><trkpt lat="45.7891319" lon="10.0006769"><ele>355.0</ele><time>2026-04-24T17:24:58.332Z</time></trkpt><trkpt lat="45.7890534" lon="10.0005542"><ele>355.0</ele><time>2026-04-24T17:24:59.332Z</time></trkpt><trkpt lat="45.7889626" lon="10.0003978"><ele>355.0</ele><time>2026-04-24T17:25:00.332Z</time></trkpt><trkpt lat="45.7888739" lon="10.0002443"><ele>355.0</ele><time>2026-04-24T17:25:01.332Z</time></trkpt><trkpt lat="45.7887876" lon="10.0000922"><ele>355.0</ele><time>2026-04-24T17:25:02.334Z</time></trkpt><trkpt lat="45.7886984" lon="9.9999414"><ele>355.0</ele><time>2026-04-24T17:25:03.333Z</time></trkpt><trkpt lat="45.7886099" lon="9.9997932"><ele>355.0</ele><time>2026-04-24T17:25:04.332Z</time></trkpt><trkpt lat="45.7885223" lon="9.9996484"><ele>355.0</ele><time>2026-04-24T17:25:05.334Z</time></trkpt><trkpt lat="45.78843" lon="9.9995017"><ele>354.25</ele><time>2026-04-24T17:25:06.331Z</time></trkpt><trkpt lat="45.7883456" lon="9.9993513"><ele>353.5</ele><time>2026-04-24T17:25:07.333Z</time></trkpt><trkpt lat="45.7882602" lon="9.9992096"><ele>352.75</ele><time>2026-04-24T17:25:08.332Z</time></trkpt><trkpt lat="45.7881756" lon="9.9990587"><ele>352.0</ele><time>2026-04-24T17:25:09.333Z</time></trkpt><trkpt lat="45.7881067" lon="9.9989066"><ele>352.0</ele><time>2026-04-24T17:25:10.331Z</time></trkpt><trkpt lat="45.7880432" lon="9.9987433"><ele>352.0</ele><time>2026-04-24T17:25:11.333Z</time></trkpt><trkpt lat="45.7880004" lon="9.9985629"><ele>352.0</ele><time>2026-04-24T17:25:12.333Z</time></trkpt><trkpt lat="45.787977" lon="9.9983799"><ele>352.0</ele><time>2026-04-24T17:25:13.333Z</time></trkpt><trkpt lat="45.7879705" lon="9.9981831"><ele>351.75</ele><time>2026-04-24T17:25:14.332Z</time></trkpt><trkpt lat="45.7879774" lon="9.9979855"><ele>351.5</ele><time>2026-04-24T17:25:15.332Z</time></trkpt><trkpt lat="45.7879938" lon="9.9977829"><ele>351.25</ele><time>2026-04-24T17:25:16.331Z</time></trkpt><trkpt lat="45.7880065" lon="9.9975976"><ele>351.0</ele><time>2026-04-24T17:25:17.333Z</time></trkpt><trkpt lat="45.7880184" lon="9.9974096"><ele>350.5</ele><time>2026-04-24T17:25:18.333Z</time></trkpt><trkpt lat="45.7880349" lon="9.9972202"><ele>350.0</ele><time>2026-04-24T17:25:19.332Z</time></trkpt><trkpt lat="45.7880501" lon="9.9970222"><ele>349.5</ele><time>2026-04-24T17:25:20.332Z</time></trkpt><trkpt lat="45.7880726" lon="9.9968214"><ele>349.0</ele><time>2026-04-24T17:25:21.332Z</time></trkpt><trkpt lat="45.788088" lon="9.9966345"><ele>348.5</ele><time>2026-04-24T17:25:22.333Z</time></trkpt><trkpt lat="45.7881069" lon="9.9964322"><ele>348.0</ele><time>2026-04-24T17:25:23.333Z</time></trkpt><trkpt lat="45.7881241" lon="9.9962284"><ele>347.5</ele><time>2026-04-24T17:25:24.333Z</time></trkpt><trkpt lat="45.7881471" lon="9.9960122"><ele>347.0</ele><time>2026-04-24T17:25:25.332Z</time></trkpt><trkpt lat="45.7881662" lon="9.9957826"><ele>346.6666666666667</ele><time>2026-04-24T17:25:26.334Z</time></trkpt><trkpt lat="45.7881886" lon="9.9955518"><ele>346.3333333333333</ele><time>2026-04-24T17:25:27.334Z</time></trkpt><trkpt lat="45.7882187" lon="9.9953274"><ele>346.0</ele><time>2026-04-24T17:25:28.332Z</time></trkpt><trkpt lat="45.7882471" lon="9.995099"><ele>345.66666666666663</ele><time>2026-04-24T17:25:29.332Z</time></trkpt><trkpt lat="45.7882797" lon="9.9948722"><ele>345.3333333333333</ele><time>2026-04-24T17:25:30.333Z</time></trkpt><trkpt lat="45.7883188" lon="9.994647"><ele>345.0</ele><time>2026-04-24T17:25:31.333Z</time></trkpt><trkpt lat="45.7883568" lon="9.9944199"><ele>345.0</ele><time>2026-04-24T17:25:32.333Z</time></trkpt><trkpt lat="45.7883978" lon="9.9941922"><ele>345.0</ele><time>2026-04-24T17:25:33.333Z</time></trkpt><trkpt lat="45.7884377" lon="9.9939658"><ele>345.0</ele><time>2026-04-24T17:25:34.333Z</time></trkpt><trkpt lat="45.7884753" lon="9.9937421"><ele>345.6666666666667</ele><time>2026-04-24T17:25:35.332Z</time></trkpt><trkpt lat="45.7885138" lon="9.9935177"><ele>346.33333333333337</ele><time>2026-04-24T17:25:36.332Z</time></trkpt><trkpt lat="45.7885548" lon="9.9932927"><ele>347.0</ele><time>2026-04-24T17:25:37.333Z</time></trkpt><trkpt lat="45.7886062" lon="9.9930679"><ele>347.0</ele><time>2026-04-24T17:25:38.333Z</time></trkpt><trkpt lat="45.7886586" lon="9.9928491"><ele>347.0</ele><time>2026-04-24T17:25:39.333Z</time></trkpt><trkpt lat="45.7887182" lon="9.9926357"><ele>347.0</ele><time>2026-04-24T17:25:40.331Z</time></trkpt><trkpt lat="45.7887872" lon="9.9924254"><ele>346.33333333333337</ele><time>2026-04-24T17:25:41.332Z</time></trkpt><trkpt lat="45.7888634" lon="9.9922179"><ele>345.6666666666667</ele><time>2026-04-24T17:25:42.332Z</time></trkpt><trkpt lat="45.7889424" lon="9.9920119"><ele>345.0</ele><time>2026-04-24T17:25:43.333Z</time></trkpt><trkpt lat="45.7890275" lon="9.9918164"><ele>344.6666666666667</ele><time>2026-04-24T17:25:44.334Z</time></trkpt><trkpt lat="45.7891122" lon="9.9916131"><ele>344.33333333333337</ele><time>2026-04-24T17:25:45.332Z</time></trkpt><trkpt lat="45.7891879" lon="9.9914113"><ele>344.0</ele><time>2026-04-24T17:25:46.333Z</time></trkpt><trkpt lat="45.7892647" lon="9.9912072"><ele>344.0</ele><time>2026-04-24T17:25:47.332Z</time></trkpt><trkpt lat="45.7893421" lon="9.991003"><ele>344.0</ele><time>2026-04-24T17:25:48.333Z</time></trkpt><trkpt lat="45.7894265" lon="9.9908048"><ele>344.0</ele><time>2026-04-24T17:25:49.334Z</time></trkpt><trkpt lat="45.7895114" lon="9.9905998"><ele>344.0</ele><time>2026-04-24T17:25:50.332Z</time></trkpt><trkpt lat="45.7895929" lon="9.9904017"><ele>344.0</ele><time>2026-04-24T17:25:51.331Z</time></trkpt><trkpt lat="45.7896752" lon="9.9902047"><ele>344.0</ele><time>2026-04-24T17:25:52.333Z</time></trkpt><trkpt lat="45.7897579" lon="9.9900101"><ele>344.33333333333337</ele><time>2026-04-24T17:25:53.333Z</time></trkpt><trkpt lat="45.7898437" lon="9.9898027"><ele>344.6666666666667</ele><time>2026-04-24T17:25:54.333Z</time></trkpt><trkpt lat="45.7899313" lon="9.9895956"><ele>345.0</ele><time>2026-04-24T17:25:55.332Z</time></trkpt><trkpt lat="45.7900206" lon="9.9893996"><ele>345.0</ele><time>2026-04-24T17:25:56.333Z</time></trkpt><trkpt lat="45.7901078" lon="9.9892058"><ele>345.0</ele><time>2026-04-24T17:25:57.332Z</time></trkpt><trkpt lat="45.7901848" lon="9.9890014"><ele>345.0</ele><time>2026-04-24T17:25:58.333Z</time></trkpt><trkpt lat="45.7902525" lon="9.988787"><ele>346.0</ele><time>2026-04-24T17:25:59.334Z</time></trkpt><trkpt lat="45.7903087" lon="9.9885637"><ele>347.0</ele><time>2026-04-24T17:26:00.332Z</time></trkpt><trkpt lat="45.7903485" lon="9.9883398"><ele>348.0</ele><time>2026-04-24T17:26:01.332Z</time></trkpt><trkpt lat="45.7903657" lon="9.9881156"><ele>348.0</ele><time>2026-04-24T17:26:02.332Z</time></trkpt><trkpt lat="45.7903641" lon="9.9878949"><ele>348.0</ele><time>2026-04-24T17:26:03.332Z</time></trkpt><trkpt lat="45.790354" lon="9.9876713"><ele>348.0</ele><time>2026-04-24T17:26:04.333Z</time></trkpt><trkpt lat="45.7903333" lon="9.987451"><ele>348.3333333333333</ele><time>2026-04-24T17:26:05.332Z</time></trkpt><trkpt lat="45.7903052" lon="9.987234"><ele>348.66666666666663</ele><time>2026-04-24T17:26:06.334Z</time></trkpt><trkpt lat="45.7902755" lon="9.9870163"><ele>349.0</ele><time>2026-04-24T17:26:07.332Z</time></trkpt><trkpt lat="45.7902478" lon="9.9867977"><ele>349.5</ele><time>2026-04-24T17:26:08.333Z</time></trkpt><trkpt lat="45.7902238" lon="9.9865889"><ele>350.0</ele><time>2026-04-24T17:26:09.332Z</time></trkpt><trkpt lat="45.7902073" lon="9.9863859"><ele>350.5</ele><time>2026-04-24T17:26:10.332Z</time></trkpt><trkpt lat="45.7902028" lon="9.9862031"><ele>351.0</ele><time>2026-04-24T17:26:11.331Z</time></trkpt><trkpt lat="45.7902039" lon="9.9860675"><ele>351.0</ele><time>2026-04-24T17:26:12.333Z</time></trkpt><trkpt lat="45.79021" lon="9.9859369"><ele>351.0</ele><time>2026-04-24T17:26:14.334Z</time></trkpt><trkpt lat="45.7902194" lon="9.9858448"><ele>351.0</ele><time>2026-04-24T17:26:18.331Z</time></trkpt><trkpt lat="45.7902455" lon="9.9856824"><ele>351.0</ele><time>2026-04-24T17:26:20.333Z</time></trkpt><trkpt lat="45.7902644" lon="9.9855704"><ele>351.0</ele><time>2026-04-24T17:26:21.332Z</time></trkpt><trkpt lat="45.7902925" lon="9.9854371"><ele>351.75</ele><time>2026-04-24T17:26:22.332Z</time></trkpt><trkpt lat="45.79033" lon="9.9852949"><ele>352.5</ele><time>2026-04-24T17:26:23.332Z</time></trkpt><trkpt lat="45.7903676" lon="9.9851411"><ele>353.25</ele><time>2026-04-24T17:26:24.332Z</time></trkpt><trkpt lat="45.7904033" lon="9.9849817"><ele>354.0</ele><time>2026-04-24T17:26:25.333Z</time></trkpt><trkpt lat="45.7904304" lon="9.9848046"><ele>355.0</ele><time>2026-04-24T17:26:26.332Z</time></trkpt><trkpt lat="45.7904545" lon="9.9846155"><ele>356.0</ele><time>2026-04-24T17:26:27.332Z</time></trkpt><trkpt lat="45.7904631" lon="9.9844224"><ele>357.0</ele><time>2026-04-24T17:26:28.332Z</time></trkpt><trkpt lat="45.7904628" lon="9.9842237"><ele>358.0</ele><time>2026-04-24T17:26:29.334Z</time></trkpt><trkpt lat="45.7904586" lon="9.9840177"><ele>358.0</ele><time>2026-04-24T17:26:30.332Z</time></trkpt><trkpt lat="45.7904388" lon="9.9837995"><ele>358.0</ele><time>2026-04-24T17:26:31.333Z</time></trkpt><trkpt lat="45.7904094" lon="9.983565"><ele>358.0</ele><time>2026-04-24T17:26:32.333Z</time></trkpt><trkpt lat="45.7903776" lon="9.9833057"><ele>357.66666666666663</ele><time>2026-04-24T17:26:33.332Z</time></trkpt><trkpt lat="45.7903545" lon="9.9830085"><ele>357.3333333333333</ele><time>2026-04-24T17:26:34.333Z</time></trkpt><trkpt lat="45.7903375" lon="9.9827176"><ele>357.0</ele><time>2026-04-24T17:26:35.332Z</time></trkpt><trkpt lat="45.7903184" lon="9.9824363"><ele>357.0</ele><time>2026-04-24T17:26:36.333Z</time></trkpt><trkpt lat="45.7903043" lon="9.9821676"><ele>357.0</ele><time>2026-04-24T17:26:37.332Z</time></trkpt><trkpt lat="45.7902939" lon="9.9819336"><ele>357.0</ele><time>2026-04-24T17:26:38.332Z</time></trkpt><trkpt lat="45.7902955" lon="9.9817017"><ele>355.6666666666667</ele><time>2026-04-24T17:26:39.333Z</time></trkpt><trkpt lat="45.7903107" lon="9.9814817"><ele>354.33333333333337</ele><time>2026-04-24T17:26:40.331Z</time></trkpt><trkpt lat="45.790333" lon="9.981269"><ele>353.0</ele><time>2026-04-24T17:26:41.333Z</time></trkpt><trkpt lat="45.7903624" lon="9.9810632"><ele>353.0</ele><time>2026-04-24T17:26:42.331Z</time></trkpt><trkpt lat="45.7903942" lon="9.9808631"><ele>353.0</ele><time>2026-04-24T17:26:43.332Z</time></trkpt><trkpt lat="45.7904244" lon="9.9806618"><ele>353.0</ele><time>2026-04-24T17:26:44.333Z</time></trkpt><trkpt lat="45.7904513" lon="9.9804613"><ele>353.0</ele><time>2026-04-24T17:26:45.332Z</time></trkpt><trkpt lat="45.7904778" lon="9.9802657"><ele>352.75</ele><time>2026-04-24T17:26:46.332Z</time></trkpt><trkpt lat="45.7905002" lon="9.9800645"><ele>352.5</ele><time>2026-04-24T17:26:47.333Z</time></trkpt><trkpt lat="45.7905262" lon="9.9798657"><ele>352.25</ele><time>2026-04-24T17:26:48.332Z</time></trkpt><trkpt lat="45.790549" lon="9.9796769"><ele>352.0</ele><time>2026-04-24T17:26:49.333Z</time></trkpt><trkpt lat="45.7905661" lon="9.9794935"><ele>352.0</ele><time>2026-04-24T17:26:50.333Z</time></trkpt><trkpt lat="45.7905957" lon="9.9793203"><ele>352.0</ele><time>2026-04-24T17:26:51.332Z</time></trkpt><trkpt lat="45.7906238" lon="9.979153"><ele>352.0</ele><time>2026-04-24T17:26:52.333Z</time></trkpt><trkpt lat="45.7906606" lon="9.9789829"><ele>352.0</ele><time>2026-04-24T17:26:53.334Z</time></trkpt><trkpt lat="45.7906969" lon="9.9788135"><ele>351.6</ele><time>2026-04-24T17:26:54.333Z</time></trkpt><trkpt lat="45.7907226" lon="9.9786607"><ele>351.20000000000005</ele><time>2026-04-24T17:26:55.332Z</time></trkpt><trkpt lat="45.790751" lon="9.9785064"><ele>350.8</ele><time>2026-04-24T17:26:56.332Z</time></trkpt><trkpt lat="45.7907676" lon="9.9783574"><ele>350.4</ele><time>2026-04-24T17:26:57.332Z</time></trkpt><trkpt lat="45.7908005" lon="9.9781876"><ele>350.0</ele><time>2026-04-24T17:26:58.332Z</time></trkpt><trkpt lat="45.7908309" lon="9.9780101"><ele>350.0</ele><time>2026-04-24T17:26:59.332Z</time></trkpt><trkpt lat="45.7908644" lon="9.9778242"><ele>350.0</ele><time>2026-04-24T17:27:00.333Z</time></trkpt><trkpt lat="45.7908942" lon="9.9776511"><ele>350.0</ele><time>2026-04-24T17:27:01.334Z</time></trkpt><trkpt lat="45.7909181" lon="9.97749"><ele>350.0</ele><time>2026-04-24T17:27:02.333Z</time></trkpt><trkpt lat="45.7909396" lon="9.9773119"><ele>349.75</ele><time>2026-04-24T17:27:03.333Z</time></trkpt><trkpt lat="45.7909577" lon="9.9771358"><ele>349.5</ele><time>2026-04-24T17:27:04.333Z</time></trkpt><trkpt lat="45.7909672" lon="9.9769553"><ele>349.25</ele><time>2026-04-24T17:27:05.332Z</time></trkpt><trkpt lat="45.7909757" lon="9.9767838"><ele>349.0</ele><time>2026-04-24T17:27:06.333Z</time></trkpt><trkpt lat="45.7909567" lon="9.9766224"><ele>349.0</ele><time>2026-04-24T17:27:07.331Z</time></trkpt><trkpt lat="45.790932" lon="9.9764507"><ele>349.0</ele><time>2026-04-24T17:27:08.333Z</time></trkpt><trkpt lat="45.7909071" lon="9.9762858"><ele>349.0</ele><time>2026-04-24T17:27:09.332Z</time></trkpt><trkpt lat="45.7908958" lon="9.97612"><ele>349.0</ele><time>2026-04-24T17:27:10.331Z</time></trkpt><trkpt lat="45.7909003" lon="9.9759555"><ele>349.5</ele><time>2026-04-24T17:27:11.333Z</time></trkpt><trkpt lat="45.7909228" lon="9.9757936"><ele>350.0</ele><time>2026-04-24T17:27:12.332Z</time></trkpt><trkpt lat="45.7909687" lon="9.9756315"><ele>350.5</ele><time>2026-04-24T17:27:13.331Z</time></trkpt><trkpt lat="45.7910347" lon="9.9754842"><ele>351.0</ele><time>2026-04-24T17:27:14.333Z</time></trkpt><trkpt lat="45.7911017" lon="9.9753574"><ele>355.6</ele><time>2026-04-24T17:27:15.333Z</time></trkpt><trkpt lat="45.7911677" lon="9.9752321"><ele>360.20000000000005</ele><time>2026-04-24T17:27:16.332Z</time></trkpt><trkpt lat="45.7912366" lon="9.9751"><ele>364.79999999999995</ele><time>2026-04-24T17:27:17.332Z</time></trkpt><trkpt lat="45.7912993" lon="9.9749872"><ele>369.4</ele><time>2026-04-24T17:27:18.333Z</time></trkpt><trkpt lat="45.7913614" lon="9.9748836"><ele>374.0</ele><time>2026-04-24T17:27:19.332Z</time></trkpt><trkpt lat="45.7914198" lon="9.9747886"><ele>374.0</ele><time>2026-04-24T17:27:20.333Z</time></trkpt><trkpt lat="45.7914663" lon="9.9746683"><ele>374.0</ele><time>2026-04-24T17:27:21.331Z</time></trkpt><trkpt lat="45.7915132" lon="9.9745563"><ele>374.0</ele><time>2026-04-24T17:27:22.332Z</time></trkpt><trkpt lat="45.7915674" lon="9.9744486"><ele>374.0</ele><time>2026-04-24T17:27:23.333Z</time></trkpt><trkpt lat="45.7916225" lon="9.974351"><ele>374.0</ele><time>2026-04-24T17:27:24.333Z</time></trkpt><trkpt lat="45.7916755" lon="9.9742435"><ele>373.6666666666667</ele><time>2026-04-24T17:27:25.333Z</time></trkpt><trkpt lat="45.7917376" lon="9.9741533"><ele>373.33333333333337</ele><time>2026-04-24T17:27:26.332Z</time></trkpt><trkpt lat="45.7917754" lon="9.974047"><ele>373.0</ele><time>2026-04-24T17:27:27.333Z</time></trkpt><trkpt lat="45.7918106" lon="9.9739355"><ele>372.6666666666667</ele><time>2026-04-24T17:27:28.333Z</time></trkpt><trkpt lat="45.7918328" lon="9.9738174"><ele>372.3333333333333</ele><time>2026-04-24T17:27:29.333Z</time></trkpt><trkpt lat="45.7918597" lon="9.9737027"><ele>372.0</ele><time>2026-04-24T17:27:30.332Z</time></trkpt><trkpt lat="45.7919105" lon="9.9736209"><ele>374.6666666666667</ele><time>2026-04-24T17:27:31.332Z</time></trkpt><trkpt lat="45.7919719" lon="9.9735785"><ele>377.33333333333337</ele><time>2026-04-24T17:27:33.332Z</time></trkpt><trkpt lat="45.7920624" lon="9.9735127"><ele>380.0</ele><time>2026-04-24T17:27:35.333Z</time></trkpt><trkpt lat="45.7920729" lon="9.973374"><ele>382.6666666666667</ele><time>2026-04-24T17:27:36.333Z</time></trkpt><trkpt lat="45.7921073" lon="9.9732436"><ele>385.33333333333337</ele><time>2026-04-24T17:27:37.333Z</time></trkpt><trkpt lat="45.7921456" lon="9.9731389"><ele>388.0</ele><time>2026-04-24T17:27:38.331Z</time></trkpt><trkpt lat="45.7921995" lon="9.9730225"><ele>388.00000000000006</ele><time>2026-04-24T17:27:39.331Z</time></trkpt><trkpt lat="45.79225" lon="9.9729024"><ele>388.0</ele><time>2026-04-24T17:27:40.332Z</time></trkpt><trkpt lat="45.7922783" lon="9.9728127"><ele>388.0</ele><time>2026-04-24T17:27:41.333Z</time></trkpt><trkpt lat="45.7923136" lon="9.9727102"><ele>388.0</ele><time>2026-04-24T17:27:42.331Z</time></trkpt><trkpt lat="45.792352" lon="9.9726279"><ele>388.00000000000006</ele><time>2026-04-24T17:27:43.332Z</time></trkpt><trkpt lat="45.7924114" lon="9.9725069"><ele>388.0</ele><time>2026-04-24T17:27:45.334Z</time></trkpt><trkpt lat="45.792454" lon="9.9724344"><ele>387.50000000000006</ele><time>2026-04-24T17:27:48.332Z</time></trkpt><trkpt lat="45.7924021" lon="9.9723204"><ele>387.0</ele><time>2026-04-24T17:27:50.332Z</time></trkpt><trkpt lat="45.7923828" lon="9.9721709"><ele>386.5</ele><time>2026-04-24T17:27:52.333Z</time></trkpt><trkpt lat="45.7923842" lon="9.9720699"><ele>386.0</ele><time>2026-04-24T17:27:53.333Z</time></trkpt><trkpt lat="45.7923591" lon="9.9719718"><ele>385.50000000000006</ele><time>2026-04-24T17:27:54.332Z</time></trkpt><trkpt lat="45.7923479" lon="9.9718769"><ele>385.0</ele><time>2026-04-24T17:27:55.332Z</time></trkpt><trkpt lat="45.7923553" lon="9.9717035"><ele>383.8</ele><time>2026-04-24T17:27:57.333Z</time></trkpt><trkpt lat="45.7923638" lon="9.9715573"><ele>382.6</ele><time>2026-04-24T17:27:59.332Z</time></trkpt><trkpt lat="45.7923987" lon="9.9714104"><ele>381.4</ele><time>2026-04-24T17:28:01.333Z</time></trkpt><trkpt lat="45.792463" lon="9.971301"><ele>380.2</ele><time>2026-04-24T17:28:03.333Z</time></trkpt><trkpt lat="45.7925465" lon="9.9711871"><ele>379.0</ele><time>2026-04-24T17:28:05.332Z</time></trkpt><trkpt lat="45.7925844" lon="9.9710286"><ele>379.0</ele><time>2026-04-24T17:28:07.332Z</time></trkpt><trkpt lat="45.792572" lon="9.9709339"><ele>379.0</ele><time>2026-04-24T17:28:08.333Z</time></trkpt><trkpt lat="45.7925485" lon="9.9708418"><ele>379.0</ele><time>2026-04-24T17:28:09.332Z</time></trkpt><trkpt lat="45.7925272" lon="9.9707004"><ele>379.0</ele><time>2026-04-24T17:28:11.332Z</time></trkpt><trkpt lat="45.7924889" lon="9.9706165"><ele>379.0</ele><time>2026-04-24T17:28:12.332Z</time></trkpt><trkpt lat="45.7924706" lon="9.9705099"><ele>379.0</ele><time>2026-04-24T17:28:13.333Z</time></trkpt><trkpt lat="45.7924273" lon="9.9704002"><ele>379.0</ele><time>2026-04-24T17:28:14.332Z</time></trkpt><trkpt lat="45.7923933" lon="9.9703016"><ele>379.0</ele><time>2026-04-24T17:28:15.332Z</time></trkpt><trkpt lat="45.7923734" lon="9.9701926"><ele>379.0</ele><time>2026-04-24T17:28:16.332Z</time></trkpt><trkpt lat="45.7923318" lon="9.9700859"><ele>379.0</ele><time>2026-04-24T17:28:17.332Z</time></trkpt><trkpt lat="45.792293" lon="9.9699708"><ele>379.0</ele><time>2026-04-24T17:28:18.333Z</time></trkpt><trkpt lat="45.7922519" lon="9.96987"><ele>379.0</ele><time>2026-04-24T17:28:19.332Z</time></trkpt><trkpt lat="45.7922085" lon="9.9697718"><ele>379.0</ele><time>2026-04-24T17:28:20.334Z</time></trkpt><trkpt lat="45.7921572" lon="9.969694"><ele>379.0</ele><time>2026-04-24T17:28:21.333Z</time></trkpt><trkpt lat="45.7921053" lon="9.9696127"><ele>379.0</ele><time>2026-04-24T17:28:22.332Z</time></trkpt><trkpt lat="45.7920409" lon="9.9695398"><ele>379.0</ele><time>2026-04-24T17:28:23.332Z</time></trkpt><trkpt lat="45.7919877" lon="9.9694575"><ele>379.0</ele><time>2026-04-24T17:28:24.333Z</time></trkpt><trkpt lat="45.791937" lon="9.9693733"><ele>379.0</ele><time>2026-04-24T17:28:25.331Z</time></trkpt><trkpt lat="45.7918944" lon="9.9692901"><ele>379.0</ele><time>2026-04-24T17:28:26.333Z</time></trkpt><trkpt lat="45.7918538" lon="9.9692043"><ele>379.0</ele><time>2026-04-24T17:28:27.333Z</time></trkpt><trkpt lat="45.7918169" lon="9.9691042"><ele>379.0</ele><time>2026-04-24T17:28:28.333Z</time></trkpt><trkpt lat="45.7917793" lon="9.9690043"><ele>379.0</ele><time>2026-04-24T17:28:29.332Z</time></trkpt><trkpt lat="45.791744" lon="9.968911"><ele>379.0</ele><time>2026-04-24T17:28:30.331Z</time></trkpt><trkpt lat="45.791718" lon="9.968819"><ele>379.0</ele><time>2026-04-24T17:28:31.333Z</time></trkpt><trkpt lat="45.7916933" lon="9.9686641"><ele>365.0</ele><time>2026-04-24T17:28:33.332Z</time></trkpt><trkpt lat="45.7916875" lon="9.968538"><ele>365.0</ele><time>2026-04-24T17:28:35.332Z</time></trkpt><trkpt lat="45.7916865" lon="9.9684297"><ele>365.0</ele><time>2026-04-24T17:29:14.333Z</time></trkpt><trkpt lat="45.7916989" lon="9.9683091"><ele>366.0</ele><time>2026-04-24T17:29:16.332Z</time></trkpt></trkseg><trkseg><trkpt lat="45.7916555" lon="9.9683642"><ele>365.0</ele><time>2026-04-24T17:56:13.332Z</time></trkpt><trkpt lat="45.7916698" lon="9.9685443"><ele>365.0</ele><time>2026-04-24T17:56:20.332Z</time></trkpt><trkpt lat="45.7916763" lon="9.9686704"><ele>365.0</ele><time>2026-04-24T17:56:21.332Z</time></trkpt><trkpt lat="45.7916903" lon="9.9688121"><ele>365.0</ele><time>2026-04-24T17:56:22.332Z</time></trkpt><trkpt lat="45.7917309" lon="9.9689684"><ele>365.0</ele><time>2026-04-24T17:56:23.332Z</time></trkpt><trkpt lat="45.7918095" lon="9.9691589"><ele>369.6666666666667</ele><time>2026-04-24T17:56:24.332Z</time></trkpt><trkpt lat="45.7919321" lon="9.9693651"><ele>374.3333333333333</ele><time>2026-04-24T17:56:25.331Z</time></trkpt><trkpt lat="45.7920367" lon="9.9695423"><ele>379.0</ele><time>2026-04-24T17:56:26.332Z</time></trkpt><trkpt lat="45.7921464" lon="9.9697431"><ele>379.0</ele><time>2026-04-24T17:56:27.332Z</time></trkpt><trkpt lat="45.7922287" lon="9.9699185"><ele>379.0</ele><time>2026-04-24T17:56:28.331Z</time></trkpt><trkpt lat="45.7923091" lon="9.9701"><ele>379.0</ele><time>2026-04-24T17:56:29.333Z</time></trkpt><trkpt lat="45.79237" lon="9.9703167"><ele>379.0</ele><time>2026-04-24T17:56:30.332Z</time></trkpt><trkpt lat="45.7924185" lon="9.9704935"><ele>379.0</ele><time>2026-04-24T17:56:31.332Z</time></trkpt><trkpt lat="45.7924682" lon="9.9706688"><ele>379.0</ele><time>2026-04-24T17:56:32.333Z</time></trkpt><trkpt lat="45.7925091" lon="9.9708205"><ele>379.0</ele><time>2026-04-24T17:56:33.332Z</time></trkpt><trkpt lat="45.7925479" lon="9.9709367"><ele>379.0</ele><time>2026-04-24T17:56:34.332Z</time></trkpt><trkpt lat="45.7925633" lon="9.9710603"><ele>379.0</ele><time>2026-04-24T17:56:35.332Z</time></trkpt><trkpt lat="45.7925884" lon="9.9711534"><ele>379.0</ele><time>2026-04-24T17:56:36.333Z</time></trkpt><trkpt lat="45.7925382" lon="9.971252"><ele>379.0</ele><time>2026-04-24T17:56:37.332Z</time></trkpt><trkpt lat="45.7924529" lon="9.9713612"><ele>379.0</ele><time>2026-04-24T17:56:38.332Z</time></trkpt><trkpt lat="45.792398" lon="9.9715182"><ele>379.0</ele><time>2026-04-24T17:56:39.332Z</time></trkpt><trkpt lat="45.7923541" lon="9.9716374"><ele>379.0</ele><time>2026-04-24T17:56:40.331Z</time></trkpt><trkpt lat="45.7923312" lon="9.9718003"><ele>379.0</ele><time>2026-04-24T17:56:41.332Z</time></trkpt><trkpt lat="45.792334" lon="9.9720062"><ele>379.0</ele><time>2026-04-24T17:56:42.332Z</time></trkpt><trkpt lat="45.7923712" lon="9.9721562"><ele>380.2</ele><time>2026-04-24T17:56:43.332Z</time></trkpt><trkpt lat="45.7923892" lon="9.9723264"><ele>381.4</ele><time>2026-04-24T17:56:44.332Z</time></trkpt><trkpt lat="45.7923798" lon="9.9724482"><ele>382.6</ele><time>2026-04-24T17:56:45.333Z</time></trkpt><trkpt lat="45.79236" lon="9.9725749"><ele>383.8</ele><time>2026-04-24T17:56:46.333Z</time></trkpt><trkpt lat="45.7922993" lon="9.9726878"><ele>385.0</ele><time>2026-04-24T17:56:47.333Z</time></trkpt><trkpt lat="45.7922496" lon="9.9728055"><ele>385.50000000000006</ele><time>2026-04-24T17:56:48.332Z</time></trkpt><trkpt lat="45.7921937" lon="9.972937"><ele>386.0</ele><time>2026-04-24T17:56:49.332Z</time></trkpt><trkpt lat="45.7921443" lon="9.973055"><ele>386.5</ele><time>2026-04-24T17:56:50.331Z</time></trkpt><trkpt lat="45.7921265" lon="9.9731531"><ele>387.0</ele><time>2026-04-24T17:56:51.332Z</time></trkpt><trkpt lat="45.7921078" lon="9.9732657"><ele>387.50000000000006</ele><time>2026-04-24T17:56:52.332Z</time></trkpt><trkpt lat="45.7921204" lon="9.9733638"><ele>388.0</ele><time>2026-04-24T17:56:53.332Z</time></trkpt><trkpt lat="45.7921047" lon="9.9734692"><ele>388.50000000000006</ele><time>2026-04-24T17:56:54.332Z</time></trkpt><trkpt lat="45.7920693" lon="9.973546"><ele>389.0</ele><time>2026-04-24T17:56:55.333Z</time></trkpt><trkpt lat="45.7920303" lon="9.9736333"><ele>389.5</ele><time>2026-04-24T17:56:57.332Z</time></trkpt><trkpt lat="45.7919584" lon="9.9737299"><ele>390.0</ele><time>2026-04-24T17:56:58.331Z</time></trkpt><trkpt lat="45.7919018" lon="9.973854"><ele>390.50000000000006</ele><time>2026-04-24T17:56:59.331Z</time></trkpt><trkpt lat="45.7918512" lon="9.9739577"><ele>391.0</ele><time>2026-04-24T17:57:00.331Z</time></trkpt><trkpt lat="45.7918071" lon="9.9740792"><ele>387.6</ele><time>2026-04-24T17:57:01.331Z</time></trkpt><trkpt lat="45.7917664" lon="9.9741959"><ele>384.20000000000005</ele><time>2026-04-24T17:57:02.332Z</time></trkpt><trkpt lat="45.7917054" lon="9.9742916"><ele>380.79999999999995</ele><time>2026-04-24T17:57:03.332Z</time></trkpt><trkpt lat="45.7916402" lon="9.9743928"><ele>377.4</ele><time>2026-04-24T17:57:04.332Z</time></trkpt><trkpt lat="45.7915533" lon="9.9744966"><ele>374.0</ele><time>2026-04-24T17:57:05.331Z</time></trkpt><trkpt lat="45.791454" lon="9.9746647"><ele>374.0</ele><time>2026-04-24T17:57:06.33Z</time></trkpt><trkpt lat="45.7913526" lon="9.9748549"><ele>374.0</ele><time>2026-04-24T17:57:07.331Z</time></trkpt><trkpt lat="45.7912616" lon="9.9750287"><ele>374.0</ele><time>2026-04-24T17:57:08.332Z</time></trkpt><trkpt lat="45.7911879" lon="9.9751826"><ele>374.0</ele><time>2026-04-24T17:57:09.331Z</time></trkpt><trkpt lat="45.79109" lon="9.9753446"><ele>374.5</ele><time>2026-04-24T17:57:10.332Z</time></trkpt><trkpt lat="45.791046" lon="9.975462"><ele>375.0</ele><time>2026-04-24T17:57:11.333Z</time></trkpt><trkpt lat="45.7909638" lon="9.975638"><ele>375.5</ele><time>2026-04-24T17:57:12.332Z</time></trkpt><trkpt lat="45.7909087" lon="9.9758213"><ele>376.0</ele><time>2026-04-24T17:57:13.331Z</time></trkpt><trkpt lat="45.7908606" lon="9.9759927"><ele>369.25</ele><time>2026-04-24T17:57:14.331Z</time></trkpt><trkpt lat="45.7908379" lon="9.9761818"><ele>362.5</ele><time>2026-04-24T17:57:15.332Z</time></trkpt><trkpt lat="45.7908722" lon="9.9763732"><ele>355.75</ele><time>2026-04-24T17:57:16.331Z</time></trkpt><trkpt lat="45.7908912" lon="9.9765527"><ele>349.0</ele><time>2026-04-24T17:57:17.332Z</time></trkpt><trkpt lat="45.7909086" lon="9.9767385"><ele>349.0</ele><time>2026-04-24T17:57:18.333Z</time></trkpt><trkpt lat="45.7909239" lon="9.9769107"><ele>349.0</ele><time>2026-04-24T17:57:19.332Z</time></trkpt><trkpt lat="45.7909194" lon="9.9770795"><ele>349.0</ele><time>2026-04-24T17:57:20.332Z</time></trkpt><trkpt lat="45.790919" lon="9.9772392"><ele>349.0</ele><time>2026-04-24T17:57:21.332Z</time></trkpt><trkpt lat="45.7908966" lon="9.9774288"><ele>349.3333333333333</ele><time>2026-04-24T17:57:22.333Z</time></trkpt><trkpt lat="45.7908462" lon="9.9776946"><ele>349.6666666666667</ele><time>2026-04-24T17:57:23.331Z</time></trkpt><trkpt lat="45.7908096" lon="9.9779377"><ele>350.0</ele><time>2026-04-24T17:57:24.331Z</time></trkpt><trkpt lat="45.790775" lon="9.9781777"><ele>349.5</ele><time>2026-04-24T17:57:25.331Z</time></trkpt><trkpt lat="45.7907441" lon="9.9783993"><ele>349.0</ele><time>2026-04-24T17:57:26.331Z</time></trkpt><trkpt lat="45.7907332" lon="9.9785538"><ele>348.5</ele><time>2026-04-24T17:57:27.332Z</time></trkpt><trkpt lat="45.7907113" lon="9.9786809"><ele>348.0</ele><time>2026-04-24T17:57:28.33Z</time></trkpt><trkpt lat="45.7906837" lon="9.9788403"><ele>348.0</ele><time>2026-04-24T17:57:30.332Z</time></trkpt><trkpt lat="45.7906342" lon="9.978906"><ele>348.0</ele><time>2026-04-24T17:57:33.332Z</time></trkpt><trkpt lat="45.7905961" lon="9.9789813"><ele>348.0</ele><time>2026-04-24T17:57:41.333Z</time></trkpt><trkpt lat="45.7906022" lon="9.9790748"><ele>348.0</ele><time>2026-04-24T17:57:50.331Z</time></trkpt><trkpt lat="45.7905714" lon="9.979217"><ele>348.0</ele><time>2026-04-24T17:57:52.331Z</time></trkpt><trkpt lat="45.7905527" lon="9.9793146"><ele>348.0</ele><time>2026-04-24T17:57:53.332Z</time></trkpt><trkpt lat="45.7905317" lon="9.9794206"><ele>348.0</ele><time>2026-04-24T17:57:54.331Z</time></trkpt><trkpt lat="45.7905119" lon="9.979549"><ele>349.0</ele><time>2026-04-24T17:57:55.331Z</time></trkpt><trkpt lat="45.7904879" lon="9.9797122"><ele>350.0</ele><time>2026-04-24T17:57:56.331Z</time></trkpt><trkpt lat="45.7904704" lon="9.9798859"><ele>351.0</ele><time>2026-04-24T17:57:57.331Z</time></trkpt><trkpt lat="45.7904504" lon="9.9800779"><ele>352.0</ele><time>2026-04-24T17:57:58.332Z</time></trkpt><trkpt lat="45.7904325" lon="9.9802787"><ele>352.0</ele><time>2026-04-24T17:57:59.331Z</time></trkpt><trkpt lat="45.7904098" lon="9.9804869"><ele>352.0</ele><time>2026-04-24T17:58:00.332Z</time></trkpt><trkpt lat="45.7903743" lon="9.9806911"><ele>352.0</ele><time>2026-04-24T17:58:01.332Z</time></trkpt><trkpt lat="45.7903421" lon="9.9808928"><ele>352.0</ele><time>2026-04-24T17:58:02.332Z</time></trkpt><trkpt lat="45.7903071" lon="9.9811019"><ele>352.25</ele><time>2026-04-24T17:58:03.332Z</time></trkpt><trkpt lat="45.7902772" lon="9.9813021"><ele>352.5</ele><time>2026-04-24T17:58:04.332Z</time></trkpt><trkpt lat="45.7902548" lon="9.9815052"><ele>352.75</ele><time>2026-04-24T17:58:05.331Z</time></trkpt><trkpt lat="45.790225" lon="9.9817106"><ele>353.0</ele><time>2026-04-24T17:58:06.331Z</time></trkpt><trkpt lat="45.7902297" lon="9.981913"><ele>354.33333333333337</ele><time>2026-04-24T17:58:07.331Z</time></trkpt><trkpt lat="45.7902336" lon="9.9821199"><ele>355.6666666666667</ele><time>2026-04-24T17:58:08.332Z</time></trkpt><trkpt lat="45.7902511" lon="9.982339"><ele>357.0</ele><time>2026-04-24T17:58:09.332Z</time></trkpt><trkpt lat="45.790263" lon="9.9825574"><ele>358.0</ele><time>2026-04-24T17:58:10.331Z</time></trkpt><trkpt lat="45.7902854" lon="9.9827834"><ele>359.0</ele><time>2026-04-24T17:58:11.333Z</time></trkpt><trkpt lat="45.7903032" lon="9.9830013"><ele>360.0</ele><time>2026-04-24T17:58:12.332Z</time></trkpt><trkpt lat="45.7903239" lon="9.9832181"><ele>359.3333333333333</ele><time>2026-04-24T17:58:13.332Z</time></trkpt><trkpt lat="45.790338" lon="9.9834414"><ele>358.66666666666663</ele><time>2026-04-24T17:58:14.332Z</time></trkpt><trkpt lat="45.7903494" lon="9.9836587"><ele>358.0</ele><time>2026-04-24T17:58:15.332Z</time></trkpt><trkpt lat="45.7903704" lon="9.9838714"><ele>358.0</ele><time>2026-04-24T17:58:16.333Z</time></trkpt><trkpt lat="45.7903903" lon="9.9840814"><ele>358.0</ele><time>2026-04-24T17:58:17.332Z</time></trkpt><trkpt lat="45.7904001" lon="9.984279"><ele>358.0</ele><time>2026-04-24T17:58:18.332Z</time></trkpt><trkpt lat="45.790394" lon="9.9844754"><ele>358.0</ele><time>2026-04-24T17:58:19.332Z</time></trkpt><trkpt lat="45.790378" lon="9.9846727"><ele>358.25</ele><time>2026-04-24T17:58:20.332Z</time></trkpt><trkpt lat="45.7903547" lon="9.984871"><ele>358.5</ele><time>2026-04-24T17:58:21.332Z</time></trkpt><trkpt lat="45.7903196" lon="9.9850633"><ele>358.75</ele><time>2026-04-24T17:58:22.331Z</time></trkpt><trkpt lat="45.7902715" lon="9.9852619"><ele>359.0</ele><time>2026-04-24T17:58:23.332Z</time></trkpt><trkpt lat="45.790221" lon="9.9854577"><ele>357.33333333333337</ele><time>2026-04-24T17:58:24.332Z</time></trkpt><trkpt lat="45.7901786" lon="9.9856705"><ele>355.6666666666667</ele><time>2026-04-24T17:58:25.333Z</time></trkpt><trkpt lat="45.7901504" lon="9.9858893"><ele>354.0</ele><time>2026-04-24T17:58:26.332Z</time></trkpt><trkpt lat="45.7901408" lon="9.9861225"><ele>352.3333333333333</ele><time>2026-04-24T17:58:27.331Z</time></trkpt><trkpt lat="45.7901451" lon="9.9863501"><ele>350.66666666666663</ele><time>2026-04-24T17:58:28.332Z</time></trkpt><trkpt lat="45.7901626" lon="9.9865814"><ele>349.0</ele><time>2026-04-24T17:58:29.332Z</time></trkpt><trkpt lat="45.7901861" lon="9.986814"><ele>349.0</ele><time>2026-04-24T17:58:30.331Z</time></trkpt><trkpt lat="45.790218" lon="9.9870504"><ele>349.0</ele><time>2026-04-24T17:58:31.332Z</time></trkpt><trkpt lat="45.7902524" lon="9.9872954"><ele>349.0</ele><time>2026-04-24T17:58:32.331Z</time></trkpt><trkpt lat="45.7902767" lon="9.9875294"><ele>348.75</ele><time>2026-04-24T17:58:33.332Z</time></trkpt><trkpt lat="45.7902918" lon="9.9877492"><ele>348.5</ele><time>2026-04-24T17:58:34.332Z</time></trkpt><trkpt lat="45.7902925" lon="9.9879558"><ele>348.25</ele><time>2026-04-24T17:58:35.331Z</time></trkpt><trkpt lat="45.790281" lon="9.9881601"><ele>348.0</ele><time>2026-04-24T17:58:36.332Z</time></trkpt><trkpt lat="45.7902626" lon="9.9883616"><ele>348.75</ele><time>2026-04-24T17:58:37.332Z</time></trkpt><trkpt lat="45.7902227" lon="9.9885533"><ele>349.5</ele><time>2026-04-24T17:58:38.332Z</time></trkpt><trkpt lat="45.7901848" lon="9.9887422"><ele>350.25</ele><time>2026-04-24T17:58:39.331Z</time></trkpt><trkpt lat="45.7901277" lon="9.9889255"><ele>351.0</ele><time>2026-04-24T17:58:40.331Z</time></trkpt><trkpt lat="45.7900668" lon="9.9891124"><ele>349.0</ele><time>2026-04-24T17:58:41.333Z</time></trkpt><trkpt lat="45.7899968" lon="9.989301"><ele>347.0</ele><time>2026-04-24T17:58:42.331Z</time></trkpt><trkpt lat="45.7899113" lon="9.989509"><ele>345.0</ele><time>2026-04-24T17:58:43.332Z</time></trkpt><trkpt lat="45.7898279" lon="9.9897247"><ele>345.0</ele><time>2026-04-24T17:58:44.332Z</time></trkpt><trkpt lat="45.7897325" lon="9.9899418"><ele>345.0</ele><time>2026-04-24T17:58:45.331Z</time></trkpt><trkpt lat="45.7896442" lon="9.990148"><ele>345.0</ele><time>2026-04-24T17:58:46.332Z</time></trkpt><trkpt lat="45.7895556" lon="9.9903698"><ele>344.6666666666667</ele><time>2026-04-24T17:58:47.332Z</time></trkpt><trkpt lat="45.7894755" lon="9.9905798"><ele>344.33333333333337</ele><time>2026-04-24T17:58:48.332Z</time></trkpt><trkpt lat="45.7893965" lon="9.9907791"><ele>344.0</ele><time>2026-04-24T17:58:49.331Z</time></trkpt><trkpt lat="45.7893172" lon="9.9909707"><ele>344.0</ele><time>2026-04-24T17:58:50.332Z</time></trkpt><trkpt lat="45.789244" lon="9.9911573"><ele>344.0</ele><time>2026-04-24T17:58:51.332Z</time></trkpt><trkpt lat="45.7891678" lon="9.9913363"><ele>344.0</ele><time>2026-04-24T17:58:52.331Z</time></trkpt><trkpt lat="45.7890975" lon="9.9915124"><ele>344.0</ele><time>2026-04-24T17:58:53.332Z</time></trkpt><trkpt lat="45.7890237" lon="9.9916836"><ele>344.25</ele><time>2026-04-24T17:58:54.332Z</time></trkpt><trkpt lat="45.7889516" lon="9.9918454"><ele>344.5</ele><time>2026-04-24T17:58:55.331Z</time></trkpt><trkpt lat="45.7888883" lon="9.9920115"><ele>344.75</ele><time>2026-04-24T17:58:56.332Z</time></trkpt><trkpt lat="45.788824" lon="9.9921693"><ele>345.0</ele><time>2026-04-24T17:58:57.331Z</time></trkpt><trkpt lat="45.7887755" lon="9.9923138"><ele>345.0</ele><time>2026-04-24T17:58:58.332Z</time></trkpt><trkpt lat="45.788727" lon="9.9924217"><ele>345.0</ele><time>2026-04-24T17:58:59.332Z</time></trkpt><trkpt lat="45.7886822" lon="9.9925007"><ele>345.0</ele><time>2026-04-24T17:59:00.332Z</time></trkpt><trkpt lat="45.7886208" lon="9.992561"><ele>345.0</ele><time>2026-04-24T17:59:01.333Z</time></trkpt><trkpt lat="45.7885445" lon="9.9925908"><ele>345.0</ele><time>2026-04-24T17:59:02.332Z</time></trkpt><trkpt lat="45.7884588" lon="9.9925905"><ele>345.0</ele><time>2026-04-24T17:59:03.333Z</time></trkpt><trkpt lat="45.7883549" lon="9.9925727"><ele>344.6</ele><time>2026-04-24T17:59:04.331Z</time></trkpt><trkpt lat="45.7882535" lon="9.9925422"><ele>344.2</ele><time>2026-04-24T17:59:05.333Z</time></trkpt><trkpt lat="45.7881458" lon="9.9925124"><ele>343.79999999999995</ele><time>2026-04-24T17:59:06.332Z</time></trkpt><trkpt lat="45.788047" lon="9.9924745"><ele>343.4</ele><time>2026-04-24T17:59:07.331Z</time></trkpt><trkpt lat="45.7879451" lon="9.9924326"><ele>343.0</ele><time>2026-04-24T17:59:08.332Z</time></trkpt><trkpt lat="45.7878344" lon="9.9923771"><ele>342.5</ele><time>2026-04-24T17:59:09.331Z</time></trkpt><trkpt lat="45.7877211" lon="9.9923326"><ele>342.0</ele><time>2026-04-24T17:59:10.333Z</time></trkpt><trkpt lat="45.7876111" lon="9.9922861"><ele>341.5</ele><time>2026-04-24T17:59:11.332Z</time></trkpt><trkpt lat="45.7874859" lon="9.9922445"><ele>341.0</ele><time>2026-04-24T17:59:12.333Z</time></trkpt><trkpt lat="45.7873632" lon="9.9922044"><ele>341.0</ele><time>2026-04-24T17:59:13.332Z</time></trkpt><trkpt lat="45.7872433" lon="9.9921798"><ele>341.0</ele><time>2026-04-24T17:59:14.332Z</time></trkpt><trkpt lat="45.7871271" lon="9.9921475"><ele>341.0</ele><time>2026-04-24T17:59:15.332Z</time></trkpt><trkpt lat="45.7870127" lon="9.9921196"><ele>341.0</ele><time>2026-04-24T17:59:16.331Z</time></trkpt><trkpt lat="45.7869181" lon="9.9920772"><ele>341.1666666666667</ele><time>2026-04-24T17:59:17.332Z</time></trkpt><trkpt lat="45.786843" lon="9.9920339"><ele>341.33333333333337</ele><time>2026-04-24T17:59:18.332Z</time></trkpt><trkpt lat="45.7867712" lon="9.9919773"><ele>341.5</ele><time>2026-04-24T17:59:19.332Z</time></trkpt><trkpt lat="45.7867198" lon="9.9919178"><ele>341.6666666666667</ele><time>2026-04-24T17:59:20.331Z</time></trkpt><trkpt lat="45.7866615" lon="9.9918549"><ele>341.8333333333333</ele><time>2026-04-24T17:59:21.332Z</time></trkpt><trkpt lat="45.7866025" lon="9.9917991"><ele>342.0</ele><time>2026-04-24T17:59:22.331Z</time></trkpt><trkpt lat="45.786537" lon="9.9917378"><ele>341.5</ele><time>2026-04-24T17:59:23.332Z</time></trkpt><trkpt lat="45.7864771" lon="9.9916715"><ele>341.0</ele><time>2026-04-24T17:59:24.332Z</time></trkpt><trkpt lat="45.7864176" lon="9.9916084"><ele>340.5</ele><time>2026-04-24T17:59:25.333Z</time></trkpt><trkpt lat="45.7863407" lon="9.9915195"><ele>340.0</ele><time>2026-04-24T17:59:27.333Z</time></trkpt><trkpt lat="45.7862656" lon="9.9915247"><ele>339.5</ele><time>2026-04-24T17:59:29.332Z</time></trkpt><trkpt lat="45.7862628" lon="9.9913752"><ele>339.0</ele><time>2026-04-24T17:59:33.332Z</time></trkpt><trkpt lat="45.7863151" lon="9.9912919"><ele>339.0</ele><time>2026-04-24T17:59:34.33Z</time></trkpt><trkpt lat="45.7863655" lon="9.9911893"><ele>339.0</ele><time>2026-04-24T17:59:35.331Z</time></trkpt><trkpt lat="45.786411" lon="9.9910592"><ele>339.0</ele><time>2026-04-24T17:59:36.332Z</time></trkpt><trkpt lat="45.7864456" lon="9.9909136"><ele>339.0</ele><time>2026-04-24T17:59:37.332Z</time></trkpt><trkpt lat="45.7864718" lon="9.9907436"><ele>339.0</ele><time>2026-04-24T17:59:38.333Z</time></trkpt><trkpt lat="45.7864957" lon="9.9905624"><ele>339.0</ele><time>2026-04-24T17:59:39.332Z</time></trkpt><trkpt lat="45.7865115" lon="9.9903863"><ele>339.0</ele><time>2026-04-24T17:59:40.332Z</time></trkpt><trkpt lat="45.7865209" lon="9.990211"><ele>339.0</ele><time>2026-04-24T17:59:41.332Z</time></trkpt><trkpt lat="45.7865264" lon="9.9900353"><ele>339.0</ele><time>2026-04-24T17:59:42.332Z</time></trkpt><trkpt lat="45.7865214" lon="9.9898741"><ele>339.25</ele><time>2026-04-24T17:59:43.332Z</time></trkpt><trkpt lat="45.786498" lon="9.9897184"><ele>339.5</ele><time>2026-04-24T17:59:44.331Z</time></trkpt><trkpt lat="45.786463" lon="9.9895459"><ele>339.75</ele><time>2026-04-24T17:59:45.332Z</time></trkpt><trkpt lat="45.7863965" lon="9.9893368"><ele>340.0</ele><time>2026-04-24T17:59:46.331Z</time></trkpt><trkpt lat="45.7863351" lon="9.9891549"><ele>339.5</ele><time>2026-04-24T17:59:47.332Z</time></trkpt><trkpt lat="45.786269" lon="9.9889853"><ele>339.0</ele><time>2026-04-24T17:59:48.332Z</time></trkpt><trkpt lat="45.7862076" lon="9.9888374"><ele>338.5</ele><time>2026-04-24T17:59:49.331Z</time></trkpt><trkpt lat="45.7861381" lon="9.988705"><ele>338.0</ele><time>2026-04-24T17:59:50.331Z</time></trkpt><trkpt lat="45.7860852" lon="9.9885728"><ele>338.0</ele><time>2026-04-24T17:59:51.333Z</time></trkpt><trkpt lat="45.786045" lon="9.9884359"><ele>338.0</ele><time>2026-04-24T17:59:52.332Z</time></trkpt><trkpt lat="45.7860195" lon="9.9883107"><ele>338.0</ele><time>2026-04-24T17:59:53.332Z</time></trkpt><trkpt lat="45.7860122" lon="9.9881886"><ele>338.0</ele><time>2026-04-24T17:59:54.332Z</time></trkpt><trkpt lat="45.7860225" lon="9.988048"><ele>338.0</ele><time>2026-04-24T17:59:55.332Z</time></trkpt><trkpt lat="45.7860464" lon="9.9879053"><ele>338.0</ele><time>2026-04-24T17:59:56.331Z</time></trkpt><trkpt lat="45.7860764" lon="9.9877343"><ele>338.0</ele><time>2026-04-24T17:59:57.332Z</time></trkpt><trkpt lat="45.7861083" lon="9.9875582"><ele>338.0</ele><time>2026-04-24T17:59:58.332Z</time></trkpt><trkpt lat="45.786147" lon="9.9873944"><ele>338.0</ele><time>2026-04-24T17:59:59.332Z</time></trkpt><trkpt lat="45.7862025" lon="9.9872487"><ele>338.0</ele><time>2026-04-24T18:00:00.332Z</time></trkpt><trkpt lat="45.786261" lon="9.9871398"><ele>338.0</ele><time>2026-04-24T18:00:01.332Z</time></trkpt><trkpt lat="45.7863243" lon="9.9870601"><ele>338.0</ele><time>2026-04-24T18:00:02.331Z</time></trkpt><trkpt lat="45.7863907" lon="9.9869959"><ele>338.0</ele><time>2026-04-24T18:00:03.331Z</time></trkpt><trkpt lat="45.7864637" lon="9.9869396"><ele>338.0</ele><time>2026-04-24T18:00:04.332Z</time></trkpt><trkpt lat="45.78654" lon="9.9868921"><ele>338.0</ele><time>2026-04-24T18:00:05.331Z</time></trkpt><trkpt lat="45.7866225" lon="9.9868558"><ele>338.0</ele><time>2026-04-24T18:00:06.332Z</time></trkpt><trkpt lat="45.7867101" lon="9.9868209"><ele>338.0</ele><time>2026-04-24T18:00:07.331Z</time></trkpt><trkpt lat="45.7868053" lon="9.9867653"><ele>338.0</ele><time>2026-04-24T18:00:08.333Z</time></trkpt><trkpt lat="45.7869025" lon="9.9867303"><ele>338.0</ele><time>2026-04-24T18:00:09.332Z</time></trkpt><trkpt lat="45.7870093" lon="9.9866842"><ele>338.0</ele><time>2026-04-24T18:00:10.331Z</time></trkpt><trkpt lat="45.7871232" lon="9.9866469"><ele>338.0</ele><time>2026-04-24T18:00:11.332Z</time></trkpt><trkpt lat="45.7872302" lon="9.9865793"><ele>338.0</ele><time>2026-04-24T18:00:12.332Z</time></trkpt><trkpt lat="45.7873319" lon="9.9864807"><ele>338.0</ele><time>2026-04-24T18:00:13.332Z</time></trkpt><trkpt lat="45.7874343" lon="9.9863578"><ele>338.0</ele><time>2026-04-24T18:00:14.332Z</time></trkpt><trkpt lat="45.7875474" lon="9.9862009"><ele>338.0</ele><time>2026-04-24T18:00:15.332Z</time></trkpt><trkpt lat="45.7876737" lon="9.9860173"><ele>338.0</ele><time>2026-04-24T18:00:16.332Z</time></trkpt><trkpt lat="45.7877972" lon="9.985822"><ele>338.0</ele><time>2026-04-24T18:00:17.332Z</time></trkpt><trkpt lat="45.787911" lon="9.9856415"><ele>338.25</ele><time>2026-04-24T18:00:18.332Z</time></trkpt><trkpt lat="45.7880111" lon="9.985482"><ele>338.5</ele><time>2026-04-24T18:00:19.332Z</time></trkpt><trkpt lat="45.7881058" lon="9.9853316"><ele>338.75</ele><time>2026-04-24T18:00:20.332Z</time></trkpt><trkpt lat="45.7881898" lon="9.9852137"><ele>339.0</ele><time>2026-04-24T18:00:21.332Z</time></trkpt><trkpt lat="45.7882438" lon="9.9851431"><ele>339.0</ele><time>2026-04-24T18:00:22.332Z</time></trkpt><trkpt lat="45.7882897" lon="9.985077"><ele>339.0</ele><time>2026-04-24T18:00:23.332Z</time></trkpt><trkpt lat="45.7883531" lon="9.9849046"><ele>339.0</ele><time>2026-04-24T18:00:25.332Z</time></trkpt><trkpt lat="45.7883887" lon="9.9847601"><ele>339.0</ele><time>2026-04-24T18:00:26.333Z</time></trkpt><trkpt lat="45.7884313" lon="9.9845904"><ele>339.0</ele><time>2026-04-24T18:00:27.332Z</time></trkpt><trkpt lat="45.7884818" lon="9.9844155"><ele>338.0</ele><time>2026-04-24T18:00:28.333Z</time></trkpt><trkpt lat="45.788563" lon="9.9841994"><ele>337.0</ele><time>2026-04-24T18:00:29.331Z</time></trkpt><trkpt lat="45.7886373" lon="9.9839819"><ele>336.0</ele><time>2026-04-24T18:00:30.332Z</time></trkpt><trkpt lat="45.7887017" lon="9.9837827"><ele>336.0</ele><time>2026-04-24T18:00:31.332Z</time></trkpt><trkpt lat="45.7887656" lon="9.9835904"><ele>336.0</ele><time>2026-04-24T18:00:32.332Z</time></trkpt><trkpt lat="45.7888366" lon="9.9833626"><ele>336.0</ele><time>2026-04-24T18:00:33.331Z</time></trkpt><trkpt lat="45.7889024" lon="9.9831269"><ele>336.0</ele><time>2026-04-24T18:00:34.332Z</time></trkpt><trkpt lat="45.7889671" lon="9.9828878"><ele>336.0</ele><time>2026-04-24T18:00:35.331Z</time></trkpt><trkpt lat="45.7890231" lon="9.9826641"><ele>336.0</ele><time>2026-04-24T18:00:36.332Z</time></trkpt><trkpt lat="45.7890683" lon="9.9824511"><ele>336.5</ele><time>2026-04-24T18:00:37.332Z</time></trkpt><trkpt lat="45.7891159" lon="9.9822525"><ele>337.0</ele><time>2026-04-24T18:00:38.332Z</time></trkpt><trkpt lat="45.789156" lon="9.9820733"><ele>337.5</ele><time>2026-04-24T18:00:39.331Z</time></trkpt><trkpt lat="45.7891934" lon="9.9819011"><ele>338.0</ele><time>2026-04-24T18:00:40.333Z</time></trkpt><trkpt lat="45.7892271" lon="9.9817533"><ele>338.2</ele><time>2026-04-24T18:00:41.332Z</time></trkpt><trkpt lat="45.7892559" lon="9.9816061"><ele>338.4</ele><time>2026-04-24T18:00:42.331Z</time></trkpt><trkpt lat="45.7892769" lon="9.9814561"><ele>338.59999999999997</ele><time>2026-04-24T18:00:43.333Z</time></trkpt><trkpt lat="45.7892919" lon="9.9813134"><ele>338.79999999999995</ele><time>2026-04-24T18:00:44.331Z</time></trkpt><trkpt lat="45.7892768" lon="9.9812019"><ele>339.0</ele><time>2026-04-24T18:00:45.332Z</time></trkpt><trkpt lat="45.7892659" lon="9.9811004"><ele>339.0</ele><time>2026-04-24T18:00:46.332Z</time></trkpt><trkpt lat="45.7892703" lon="9.9809932"><ele>339.0</ele><time>2026-04-24T18:00:47.333Z</time></trkpt><trkpt lat="45.7892713" lon="9.980897"><ele>339.0</ele><time>2026-04-24T18:00:49.331Z</time></trkpt><trkpt lat="45.7892078" lon="9.9808315"><ele>339.0</ele><time>2026-04-24T18:00:53.331Z</time></trkpt><trkpt lat="45.7891044" lon="9.9808826"><ele>339.0</ele><time>2026-04-24T18:00:55.332Z</time></trkpt><trkpt lat="45.7890477" lon="9.9809299"><ele>339.0</ele><time>2026-04-24T18:00:56.331Z</time></trkpt><trkpt lat="45.7889898" lon="9.9809791"><ele>339.0</ele><time>2026-04-24T18:00:57.332Z</time></trkpt><trkpt lat="45.7889035" lon="9.9810376"><ele>339.0</ele><time>2026-04-24T18:00:58.333Z</time></trkpt><trkpt lat="45.7888293" lon="9.9810962"><ele>339.0</ele><time>2026-04-24T18:00:59.332Z</time></trkpt><trkpt lat="45.7887463" lon="9.981154"><ele>339.0</ele><time>2026-04-24T18:01:00.332Z</time></trkpt><trkpt lat="45.7886541" lon="9.9812206"><ele>339.0</ele><time>2026-04-24T18:01:01.331Z</time></trkpt><trkpt lat="45.7885607" lon="9.9812853"><ele>339.2</ele><time>2026-04-24T18:01:02.332Z</time></trkpt><trkpt lat="45.7884729" lon="9.9813389"><ele>339.4</ele><time>2026-04-24T18:01:03.333Z</time></trkpt><trkpt lat="45.7883781" lon="9.9813894"><ele>339.6</ele><time>2026-04-24T18:01:04.332Z</time></trkpt><trkpt lat="45.7882839" lon="9.981414"><ele>339.8</ele><time>2026-04-24T18:01:05.332Z</time></trkpt><trkpt lat="45.7881786" lon="9.9813882"><ele>340.0</ele><time>2026-04-24T18:01:06.332Z</time></trkpt><trkpt lat="45.7880858" lon="9.9813337"><ele>340.0</ele><time>2026-04-24T18:01:07.332Z</time></trkpt><trkpt lat="45.7880067" lon="9.9812464"><ele>340.0</ele><time>2026-04-24T18:01:08.331Z</time></trkpt><trkpt lat="45.7879361" lon="9.9811448"><ele>340.0</ele><time>2026-04-24T18:01:09.332Z</time></trkpt><trkpt lat="45.7878701" lon="9.9810401"><ele>340.0</ele><time>2026-04-24T18:01:10.332Z</time></trkpt><trkpt lat="45.7878156" lon="9.9809169"><ele>340.0</ele><time>2026-04-24T18:01:11.332Z</time></trkpt><trkpt lat="45.7877628" lon="9.9807888"><ele>339.8</ele><time>2026-04-24T18:01:12.332Z</time></trkpt><trkpt lat="45.787714" lon="9.9806583"><ele>339.6</ele><time>2026-04-24T18:01:13.332Z</time></trkpt><trkpt lat="45.7876889" lon="9.9805273"><ele>339.4</ele><time>2026-04-24T18:01:14.332Z</time></trkpt><trkpt lat="45.7876602" lon="9.9804012"><ele>339.2</ele><time>2026-04-24T18:01:15.332Z</time></trkpt><trkpt lat="45.787628" lon="9.9802573"><ele>339.0</ele><time>2026-04-24T18:01:16.332Z</time></trkpt><trkpt lat="45.7876005" lon="9.9801387"><ele>339.0</ele><time>2026-04-24T18:01:17.332Z</time></trkpt><trkpt lat="45.7875876" lon="9.9800253"><ele>339.0</ele><time>2026-04-24T18:01:18.332Z</time></trkpt><trkpt lat="45.7875736" lon="9.9799295"><ele>339.0</ele><time>2026-04-24T18:01:19.333Z</time></trkpt><trkpt lat="45.7875643" lon="9.9798077"><ele>339.0</ele><time>2026-04-24T18:01:21.332Z</time></trkpt><trkpt lat="45.7876107" lon="9.9797357"><ele>339.0</ele><time>2026-04-24T18:02:27.332Z</time></trkpt><trkpt lat="45.7875459" lon="9.979735"><ele>339.0</ele><time>2026-04-24T18:02:56.331Z</time></trkpt><trkpt lat="45.7876025" lon="9.9797796"><ele>339.0</ele><time>2026-04-24T18:03:20.332Z</time></trkpt><trkpt lat="45.787671" lon="9.9797299"><ele>338.0</ele><time>2026-04-24T18:03:24.332Z</time></trkpt><trkpt lat="45.7877724" lon="9.9798274"><ele>336.0</ele><time>2026-04-24T18:03:28.332Z</time></trkpt><trkpt lat="45.7877185" lon="9.9798902"><ele>336.0</ele><time>2026-04-24T18:06:47.332Z</time></trkpt><trkpt lat="45.7876536" lon="9.979936"><ele>338.0</ele><time>2026-04-24T18:07:05.332Z</time></trkpt><trkpt lat="45.7876509" lon="9.979826"><ele>338.0</ele><time>2026-04-24T18:07:17.333Z</time></trkpt><trkpt lat="45.7876955" lon="9.9797337"><ele>336.0</ele><time>2026-04-24T18:07:38.332Z</time></trkpt></trkseg></trk></gpx>